<?xml version="1.0" encoding="UTF-8" standalone="no" ?>
<gpx xmlns="http://www.topografix.com/GPX/1/1" xmlns:xsi="http://www.w3.org/2001/XMLSchema-instance" xsi:schemaLocation="http://www.topografix.com/GPX/1/1 http://www.topografix.com/GPX/1/1/gpx.xsd" version="1.1" creator="VisuGPX - https://www.visugpx.com">
  <metadata>
    <name>VTT du vendredi 20 juillet 2012 (avec Marius)</name>
    <desc><![CDATA[C\'est presque le parcours précédent, fait en sens inverse avec des petites variantes : on a évité la partie boueuse et les barbelés. Mais on s\'est perdu vers l\'usine éléctrique, du km 18 au km 22 (durée 3/4 heure).]]></desc>
  </metadata>
  <trk>
    <name><![CDATA[Coulevon04 (Marius)]]></name>
    <trkseg>
      <trkpt lat="47.64434" lon="6.1831">
        <ele>-0.20000000298023</ele>
        <time>2012-07-20T07:35:06.000Z</time>
      </trkpt>
      <trkpt lat="47.64434" lon="6.1831">
        <ele>-0.20000000298023</ele>
        <time>2012-07-20T07:35:07.000Z</time>
      </trkpt>
      <trkpt lat="47.64434" lon="6.18306">
        <ele>229.60000610352</ele>
        <time>2012-07-20T07:36:25.000Z</time>
      </trkpt>
      <trkpt lat="47.64433" lon="6.18302">
        <ele>229.60000610352</ele>
        <time>2012-07-20T07:36:27.000Z</time>
      </trkpt>
      <trkpt lat="47.64435" lon="6.18295">
        <ele>229.60000610352</ele>
        <time>2012-07-20T07:36:32.000Z</time>
      </trkpt>
      <trkpt lat="47.6444" lon="6.18291">
        <ele>229.60000610352</ele>
        <time>2012-07-20T07:36:35.000Z</time>
      </trkpt>
      <trkpt lat="47.64444" lon="6.18287">
        <ele>229.60000610352</ele>
        <time>2012-07-20T07:36:38.000Z</time>
      </trkpt>
      <trkpt lat="47.64455" lon="6.18276">
        <ele>229.60000610352</ele>
        <time>2012-07-20T07:36:45.000Z</time>
      </trkpt>
      <trkpt lat="47.64465" lon="6.18263">
        <ele>229.60000610352</ele>
        <time>2012-07-20T07:36:51.000Z</time>
      </trkpt>
      <trkpt lat="47.64478" lon="6.18243">
        <ele>229.60000610352</ele>
        <time>2012-07-20T07:36:56.000Z</time>
      </trkpt>
      <trkpt lat="47.64493" lon="6.18213">
        <ele>229.60000610352</ele>
        <time>2012-07-20T07:37:03.000Z</time>
      </trkpt>
      <trkpt lat="47.645" lon="6.18183">
        <ele>229.60000610352</ele>
        <time>2012-07-20T07:37:09.000Z</time>
      </trkpt>
      <trkpt lat="47.64502" lon="6.1817">
        <ele>229.60000610352</ele>
        <time>2012-07-20T07:37:11.000Z</time>
      </trkpt>
      <trkpt lat="47.64499" lon="6.18156">
        <ele>229.60000610352</ele>
        <time>2012-07-20T07:37:13.000Z</time>
      </trkpt>
      <trkpt lat="47.64496" lon="6.18143">
        <ele>229.60000610352</ele>
        <time>2012-07-20T07:37:15.000Z</time>
      </trkpt>
      <trkpt lat="47.64494" lon="6.18125">
        <ele>229.60000610352</ele>
        <time>2012-07-20T07:37:18.000Z</time>
      </trkpt>
      <trkpt lat="47.64495" lon="6.18119">
        <ele>229.60000610352</ele>
        <time>2012-07-20T07:37:19.000Z</time>
      </trkpt>
      <trkpt lat="47.64499" lon="6.18102">
        <ele>229.60000610352</ele>
        <time>2012-07-20T07:37:22.000Z</time>
      </trkpt>
      <trkpt lat="47.64502" lon="6.18087">
        <ele>229.60000610352</ele>
        <time>2012-07-20T07:37:25.000Z</time>
      </trkpt>
      <trkpt lat="47.64511" lon="6.18053">
        <ele>229.60000610352</ele>
        <time>2012-07-20T07:37:33.000Z</time>
      </trkpt>
      <trkpt lat="47.64522" lon="6.18038">
        <ele>229.60000610352</ele>
        <time>2012-07-20T07:37:38.000Z</time>
      </trkpt>
      <trkpt lat="47.64526" lon="6.18033">
        <ele>230</ele>
        <time>2012-07-20T07:37:40.000Z</time>
      </trkpt>
      <trkpt lat="47.64528" lon="6.18031">
        <ele>230.39999389648</ele>
        <time>2012-07-20T07:37:41.000Z</time>
      </trkpt>
      <trkpt lat="47.6453" lon="6.1803">
        <ele>230.80000305176</ele>
        <time>2012-07-20T07:37:42.000Z</time>
      </trkpt>
      <trkpt lat="47.64532" lon="6.18028">
        <ele>231.39999389648</ele>
        <time>2012-07-20T07:37:43.000Z</time>
      </trkpt>
      <trkpt lat="47.64533" lon="6.18025">
        <ele>231.80000305176</ele>
        <time>2012-07-20T07:37:44.000Z</time>
      </trkpt>
      <trkpt lat="47.64535" lon="6.18021">
        <ele>231.80000305176</ele>
        <time>2012-07-20T07:37:45.000Z</time>
      </trkpt>
      <trkpt lat="47.64542" lon="6.18006">
        <ele>231.80000305176</ele>
        <time>2012-07-20T07:37:49.000Z</time>
      </trkpt>
      <trkpt lat="47.64547" lon="6.17991">
        <ele>231.80000305176</ele>
        <time>2012-07-20T07:37:53.000Z</time>
      </trkpt>
      <trkpt lat="47.64549" lon="6.17988">
        <ele>232.19999694824</ele>
        <time>2012-07-20T07:37:54.000Z</time>
      </trkpt>
      <trkpt lat="47.64551" lon="6.17984">
        <ele>232.60000610352</ele>
        <time>2012-07-20T07:37:55.000Z</time>
      </trkpt>
      <trkpt lat="47.64553" lon="6.1798">
        <ele>233</ele>
        <time>2012-07-20T07:37:56.000Z</time>
      </trkpt>
      <trkpt lat="47.64554" lon="6.17975">
        <ele>233.39999389648</ele>
        <time>2012-07-20T07:37:57.000Z</time>
      </trkpt>
      <trkpt lat="47.64555" lon="6.17968">
        <ele>233.80000305176</ele>
        <time>2012-07-20T07:37:58.000Z</time>
      </trkpt>
      <trkpt lat="47.64557" lon="6.17962">
        <ele>233.80000305176</ele>
        <time>2012-07-20T07:37:59.000Z</time>
      </trkpt>
      <trkpt lat="47.6456" lon="6.17948">
        <ele>233.80000305176</ele>
        <time>2012-07-20T07:38:01.000Z</time>
      </trkpt>
      <trkpt lat="47.64564" lon="6.17936">
        <ele>233.80000305176</ele>
        <time>2012-07-20T07:38:03.000Z</time>
      </trkpt>
      <trkpt lat="47.64566" lon="6.17931">
        <ele>233.39999389648</ele>
        <time>2012-07-20T07:38:04.000Z</time>
      </trkpt>
      <trkpt lat="47.64569" lon="6.17926">
        <ele>233</ele>
        <time>2012-07-20T07:38:05.000Z</time>
      </trkpt>
      <trkpt lat="47.64572" lon="6.17921">
        <ele>232.60000610352</ele>
        <time>2012-07-20T07:38:06.000Z</time>
      </trkpt>
      <trkpt lat="47.64575" lon="6.17917">
        <ele>232.19999694824</ele>
        <time>2012-07-20T07:38:07.000Z</time>
      </trkpt>
      <trkpt lat="47.64579" lon="6.17912">
        <ele>231.80000305176</ele>
        <time>2012-07-20T07:38:08.000Z</time>
      </trkpt>
      <trkpt lat="47.64586" lon="6.17903">
        <ele>231.80000305176</ele>
        <time>2012-07-20T07:38:10.000Z</time>
      </trkpt>
      <trkpt lat="47.64599" lon="6.17891">
        <ele>231.80000305176</ele>
        <time>2012-07-20T07:38:13.000Z</time>
      </trkpt>
      <trkpt lat="47.64608" lon="6.17887">
        <ele>231.80000305176</ele>
        <time>2012-07-20T07:38:15.000Z</time>
      </trkpt>
      <trkpt lat="47.64616" lon="6.17885">
        <ele>231.39999389648</ele>
        <time>2012-07-20T07:38:17.000Z</time>
      </trkpt>
      <trkpt lat="47.64621" lon="6.17885">
        <ele>230.80000305176</ele>
        <time>2012-07-20T07:38:18.000Z</time>
      </trkpt>
      <trkpt lat="47.64625" lon="6.17886">
        <ele>230.39999389648</ele>
        <time>2012-07-20T07:38:19.000Z</time>
      </trkpt>
      <trkpt lat="47.64629" lon="6.17888">
        <ele>230</ele>
        <time>2012-07-20T07:38:20.000Z</time>
      </trkpt>
      <trkpt lat="47.64633" lon="6.1789">
        <ele>229.60000610352</ele>
        <time>2012-07-20T07:38:21.000Z</time>
      </trkpt>
      <trkpt lat="47.64654" lon="6.17901">
        <ele>229.60000610352</ele>
        <time>2012-07-20T07:38:26.000Z</time>
      </trkpt>
      <trkpt lat="47.64681" lon="6.17919">
        <ele>229.60000610352</ele>
        <time>2012-07-20T07:38:33.000Z</time>
      </trkpt>
      <trkpt lat="47.64688" lon="6.17928">
        <ele>229.60000610352</ele>
        <time>2012-07-20T07:38:35.000Z</time>
      </trkpt>
      <trkpt lat="47.6472" lon="6.17974">
        <ele>229.60000610352</ele>
        <time>2012-07-20T07:38:45.000Z</time>
      </trkpt>
      <trkpt lat="47.6474" lon="6.18008">
        <ele>229.60000610352</ele>
        <time>2012-07-20T07:38:53.000Z</time>
      </trkpt>
      <trkpt lat="47.64757" lon="6.18033">
        <ele>229.60000610352</ele>
        <time>2012-07-20T07:38:59.000Z</time>
      </trkpt>
      <trkpt lat="47.6478" lon="6.18057">
        <ele>229.60000610352</ele>
        <time>2012-07-20T07:39:06.000Z</time>
      </trkpt>
      <trkpt lat="47.64796" lon="6.18064">
        <ele>229.60000610352</ele>
        <time>2012-07-20T07:39:10.000Z</time>
      </trkpt>
      <trkpt lat="47.64804" lon="6.18066">
        <ele>229.60000610352</ele>
        <time>2012-07-20T07:39:12.000Z</time>
      </trkpt>
      <trkpt lat="47.6483" lon="6.18072">
        <ele>229.60000610352</ele>
        <time>2012-07-20T07:39:19.000Z</time>
      </trkpt>
      <trkpt lat="47.64853" lon="6.18076">
        <ele>229.60000610352</ele>
        <time>2012-07-20T07:39:26.000Z</time>
      </trkpt>
      <trkpt lat="47.64879" lon="6.18084">
        <ele>229.60000610352</ele>
        <time>2012-07-20T07:39:33.000Z</time>
      </trkpt>
      <trkpt lat="47.64911" lon="6.18093">
        <ele>229.60000610352</ele>
        <time>2012-07-20T07:39:41.000Z</time>
      </trkpt>
      <trkpt lat="47.64936" lon="6.18098">
        <ele>229.60000610352</ele>
        <time>2012-07-20T07:39:47.000Z</time>
      </trkpt>
      <trkpt lat="47.6494" lon="6.18099">
        <ele>230.19999694824</ele>
        <time>2012-07-20T07:39:48.000Z</time>
      </trkpt>
      <trkpt lat="47.64944" lon="6.181">
        <ele>230.80000305176</ele>
        <time>2012-07-20T07:39:49.000Z</time>
      </trkpt>
      <trkpt lat="47.64948" lon="6.18101">
        <ele>231.39999389648</ele>
        <time>2012-07-20T07:39:50.000Z</time>
      </trkpt>
      <trkpt lat="47.64952" lon="6.18101">
        <ele>232</ele>
        <time>2012-07-20T07:39:51.000Z</time>
      </trkpt>
      <trkpt lat="47.64956" lon="6.18101">
        <ele>232.60000610352</ele>
        <time>2012-07-20T07:39:52.000Z</time>
      </trkpt>
      <trkpt lat="47.64964" lon="6.181">
        <ele>232.60000610352</ele>
        <time>2012-07-20T07:39:54.000Z</time>
      </trkpt>
      <trkpt lat="47.64968" lon="6.181">
        <ele>232.60000610352</ele>
        <time>2012-07-20T07:39:55.000Z</time>
      </trkpt>
      <trkpt lat="47.64982" lon="6.18098">
        <ele>232.60000610352</ele>
        <time>2012-07-20T07:39:58.000Z</time>
      </trkpt>
      <trkpt lat="47.65" lon="6.18095">
        <ele>232.60000610352</ele>
        <time>2012-07-20T07:40:02.000Z</time>
      </trkpt>
      <trkpt lat="47.65008" lon="6.18095">
        <ele>232.60000610352</ele>
        <time>2012-07-20T07:40:04.000Z</time>
      </trkpt>
      <trkpt lat="47.65022" lon="6.18093">
        <ele>232.60000610352</ele>
        <time>2012-07-20T07:40:07.000Z</time>
      </trkpt>
      <trkpt lat="47.65034" lon="6.18094">
        <ele>232</ele>
        <time>2012-07-20T07:40:10.000Z</time>
      </trkpt>
      <trkpt lat="47.65038" lon="6.18094">
        <ele>231.60000610352</ele>
        <time>2012-07-20T07:40:11.000Z</time>
      </trkpt>
      <trkpt lat="47.65042" lon="6.18094">
        <ele>231.19999694824</ele>
        <time>2012-07-20T07:40:12.000Z</time>
      </trkpt>
      <trkpt lat="47.65045" lon="6.18094">
        <ele>230.80000305176</ele>
        <time>2012-07-20T07:40:13.000Z</time>
      </trkpt>
      <trkpt lat="47.65049" lon="6.18095">
        <ele>230.39999389648</ele>
        <time>2012-07-20T07:40:14.000Z</time>
      </trkpt>
      <trkpt lat="47.65075" lon="6.181">
        <ele>230.39999389648</ele>
        <time>2012-07-20T07:40:20.000Z</time>
      </trkpt>
      <trkpt lat="47.65084" lon="6.18103">
        <ele>230.39999389648</ele>
        <time>2012-07-20T07:40:22.000Z</time>
      </trkpt>
      <trkpt lat="47.65102" lon="6.18103">
        <ele>230.39999389648</ele>
        <time>2012-07-20T07:40:26.000Z</time>
      </trkpt>
      <trkpt lat="47.65115" lon="6.18099">
        <ele>230.39999389648</ele>
        <time>2012-07-20T07:40:29.000Z</time>
      </trkpt>
      <trkpt lat="47.65123" lon="6.18095">
        <ele>230.39999389648</ele>
        <time>2012-07-20T07:40:31.000Z</time>
      </trkpt>
      <trkpt lat="47.65131" lon="6.1809">
        <ele>230.39999389648</ele>
        <time>2012-07-20T07:40:33.000Z</time>
      </trkpt>
      <trkpt lat="47.65153" lon="6.18069">
        <ele>230.39999389648</ele>
        <time>2012-07-20T07:40:39.000Z</time>
      </trkpt>
      <trkpt lat="47.65174" lon="6.18036">
        <ele>230.39999389648</ele>
        <time>2012-07-20T07:40:47.000Z</time>
      </trkpt>
      <trkpt lat="47.6519" lon="6.18011">
        <ele>230.39999389648</ele>
        <time>2012-07-20T07:40:54.000Z</time>
      </trkpt>
      <trkpt lat="47.65209" lon="6.17992">
        <ele>230.39999389648</ele>
        <time>2012-07-20T07:41:01.000Z</time>
      </trkpt>
      <trkpt lat="47.65222" lon="6.1798">
        <ele>230.39999389648</ele>
        <time>2012-07-20T07:41:06.000Z</time>
      </trkpt>
      <trkpt lat="47.65244" lon="6.17977">
        <ele>230.39999389648</ele>
        <time>2012-07-20T07:41:12.000Z</time>
      </trkpt>
      <trkpt lat="47.65264" lon="6.17985">
        <ele>230.39999389648</ele>
        <time>2012-07-20T07:41:17.000Z</time>
      </trkpt>
      <trkpt lat="47.65279" lon="6.18005">
        <ele>230.39999389648</ele>
        <time>2012-07-20T07:41:22.000Z</time>
      </trkpt>
      <trkpt lat="47.65288" lon="6.18022">
        <ele>230.39999389648</ele>
        <time>2012-07-20T07:41:25.000Z</time>
      </trkpt>
      <trkpt lat="47.65292" lon="6.1804">
        <ele>230.39999389648</ele>
        <time>2012-07-20T07:41:28.000Z</time>
      </trkpt>
      <trkpt lat="47.653" lon="6.18082">
        <ele>230.39999389648</ele>
        <time>2012-07-20T07:41:35.000Z</time>
      </trkpt>
      <trkpt lat="47.65306" lon="6.18117">
        <ele>230.39999389648</ele>
        <time>2012-07-20T07:41:41.000Z</time>
      </trkpt>
      <trkpt lat="47.65308" lon="6.18123">
        <ele>230.39999389648</ele>
        <time>2012-07-20T07:41:42.000Z</time>
      </trkpt>
      <trkpt lat="47.65323" lon="6.1816">
        <ele>230.39999389648</ele>
        <time>2012-07-20T07:41:49.000Z</time>
      </trkpt>
      <trkpt lat="47.65326" lon="6.18164">
        <ele>230.39999389648</ele>
        <time>2012-07-20T07:41:50.000Z</time>
      </trkpt>
      <trkpt lat="47.65348" lon="6.18192">
        <ele>230.39999389648</ele>
        <time>2012-07-20T07:41:57.000Z</time>
      </trkpt>
      <trkpt lat="47.6537" lon="6.18215">
        <ele>230.39999389648</ele>
        <time>2012-07-20T07:42:04.000Z</time>
      </trkpt>
      <trkpt lat="47.65395" lon="6.18237">
        <ele>230.39999389648</ele>
        <time>2012-07-20T07:42:12.000Z</time>
      </trkpt>
      <trkpt lat="47.65419" lon="6.18253">
        <ele>231</ele>
        <time>2012-07-20T07:42:20.000Z</time>
      </trkpt>
      <trkpt lat="47.65422" lon="6.18254">
        <ele>231.39999389648</ele>
        <time>2012-07-20T07:42:21.000Z</time>
      </trkpt>
      <trkpt lat="47.65425" lon="6.18255">
        <ele>231.80000305176</ele>
        <time>2012-07-20T07:42:22.000Z</time>
      </trkpt>
      <trkpt lat="47.65427" lon="6.18256">
        <ele>232.19999694824</ele>
        <time>2012-07-20T07:42:23.000Z</time>
      </trkpt>
      <trkpt lat="47.6543" lon="6.18257">
        <ele>232.60000610352</ele>
        <time>2012-07-20T07:42:24.000Z</time>
      </trkpt>
      <trkpt lat="47.65433" lon="6.18258">
        <ele>232.60000610352</ele>
        <time>2012-07-20T07:42:25.000Z</time>
      </trkpt>
      <trkpt lat="47.65441" lon="6.1826">
        <ele>232.60000610352</ele>
        <time>2012-07-20T07:42:28.000Z</time>
      </trkpt>
      <trkpt lat="47.65458" lon="6.18264">
        <ele>232.60000610352</ele>
        <time>2012-07-20T07:42:34.000Z</time>
      </trkpt>
      <trkpt lat="47.65463" lon="6.18265">
        <ele>233</ele>
        <time>2012-07-20T07:42:36.000Z</time>
      </trkpt>
      <trkpt lat="47.65465" lon="6.18264">
        <ele>233.39999389648</ele>
        <time>2012-07-20T07:42:37.000Z</time>
      </trkpt>
      <trkpt lat="47.65467" lon="6.18264">
        <ele>233.80000305176</ele>
        <time>2012-07-20T07:42:38.000Z</time>
      </trkpt>
      <trkpt lat="47.65469" lon="6.18264">
        <ele>234.19999694824</ele>
        <time>2012-07-20T07:42:39.000Z</time>
      </trkpt>
      <trkpt lat="47.65472" lon="6.18264">
        <ele>234.60000610352</ele>
        <time>2012-07-20T07:42:40.000Z</time>
      </trkpt>
      <trkpt lat="47.65476" lon="6.18263">
        <ele>234.60000610352</ele>
        <time>2012-07-20T07:42:42.000Z</time>
      </trkpt>
      <trkpt lat="47.65494" lon="6.1826">
        <ele>234.60000610352</ele>
        <time>2012-07-20T07:42:49.000Z</time>
      </trkpt>
      <trkpt lat="47.655" lon="6.18257">
        <ele>235</ele>
        <time>2012-07-20T07:42:51.000Z</time>
      </trkpt>
      <trkpt lat="47.65503" lon="6.18255">
        <ele>235.39999389648</ele>
        <time>2012-07-20T07:42:52.000Z</time>
      </trkpt>
      <trkpt lat="47.65505" lon="6.18254">
        <ele>235.80000305176</ele>
        <time>2012-07-20T07:42:53.000Z</time>
      </trkpt>
      <trkpt lat="47.65508" lon="6.18253">
        <ele>236.19999694824</ele>
        <time>2012-07-20T07:42:54.000Z</time>
      </trkpt>
      <trkpt lat="47.65512" lon="6.18252">
        <ele>236.60000610352</ele>
        <time>2012-07-20T07:42:55.000Z</time>
      </trkpt>
      <trkpt lat="47.65514" lon="6.18251">
        <ele>236.60000610352</ele>
        <time>2012-07-20T07:42:56.000Z</time>
      </trkpt>
      <trkpt lat="47.65537" lon="6.18242">
        <ele>236.60000610352</ele>
        <time>2012-07-20T07:43:04.000Z</time>
      </trkpt>
      <trkpt lat="47.65557" lon="6.1823">
        <ele>236.60000610352</ele>
        <time>2012-07-20T07:43:12.000Z</time>
      </trkpt>
      <trkpt lat="47.65572" lon="6.18214">
        <ele>236.60000610352</ele>
        <time>2012-07-20T07:43:18.000Z</time>
      </trkpt>
      <trkpt lat="47.65589" lon="6.18193">
        <ele>236.60000610352</ele>
        <time>2012-07-20T07:43:24.000Z</time>
      </trkpt>
      <trkpt lat="47.65592" lon="6.18188">
        <ele>236.60000610352</ele>
        <time>2012-07-20T07:43:25.000Z</time>
      </trkpt>
      <trkpt lat="47.65613" lon="6.18166">
        <ele>236.60000610352</ele>
        <time>2012-07-20T07:43:30.000Z</time>
      </trkpt>
      <trkpt lat="47.65627" lon="6.18166">
        <ele>236.60000610352</ele>
        <time>2012-07-20T07:43:33.000Z</time>
      </trkpt>
      <trkpt lat="47.65642" lon="6.18162">
        <ele>236.60000610352</ele>
        <time>2012-07-20T07:43:38.000Z</time>
      </trkpt>
      <trkpt lat="47.65665" lon="6.18142">
        <ele>236.60000610352</ele>
        <time>2012-07-20T07:43:47.000Z</time>
      </trkpt>
      <trkpt lat="47.65671" lon="6.18137">
        <ele>237</ele>
        <time>2012-07-20T07:43:49.000Z</time>
      </trkpt>
      <trkpt lat="47.65673" lon="6.18135">
        <ele>237.39999389648</ele>
        <time>2012-07-20T07:43:50.000Z</time>
      </trkpt>
      <trkpt lat="47.65676" lon="6.18131">
        <ele>237.80000305176</ele>
        <time>2012-07-20T07:43:51.000Z</time>
      </trkpt>
      <trkpt lat="47.65679" lon="6.18127">
        <ele>238.19999694824</ele>
        <time>2012-07-20T07:43:52.000Z</time>
      </trkpt>
      <trkpt lat="47.65681" lon="6.18123">
        <ele>238.60000610352</ele>
        <time>2012-07-20T07:43:53.000Z</time>
      </trkpt>
      <trkpt lat="47.65694" lon="6.18097">
        <ele>238.60000610352</ele>
        <time>2012-07-20T07:43:58.000Z</time>
      </trkpt>
      <trkpt lat="47.6571" lon="6.18074">
        <ele>238.60000610352</ele>
        <time>2012-07-20T07:44:04.000Z</time>
      </trkpt>
      <trkpt lat="47.65732" lon="6.18052">
        <ele>238.60000610352</ele>
        <time>2012-07-20T07:44:13.000Z</time>
      </trkpt>
      <trkpt lat="47.65746" lon="6.18041">
        <ele>239.19999694824</ele>
        <time>2012-07-20T07:44:20.000Z</time>
      </trkpt>
      <trkpt lat="47.65749" lon="6.18039">
        <ele>239.60000610352</ele>
        <time>2012-07-20T07:44:21.000Z</time>
      </trkpt>
      <trkpt lat="47.65751" lon="6.18038">
        <ele>240</ele>
        <time>2012-07-20T07:44:22.000Z</time>
      </trkpt>
      <trkpt lat="47.65753" lon="6.18037">
        <ele>240.39999389648</ele>
        <time>2012-07-20T07:44:23.000Z</time>
      </trkpt>
      <trkpt lat="47.65756" lon="6.18035">
        <ele>240.80000305176</ele>
        <time>2012-07-20T07:44:24.000Z</time>
      </trkpt>
      <trkpt lat="47.65763" lon="6.18032">
        <ele>240.80000305176</ele>
        <time>2012-07-20T07:44:27.000Z</time>
      </trkpt>
      <trkpt lat="47.65775" lon="6.18025">
        <ele>240.80000305176</ele>
        <time>2012-07-20T07:44:33.000Z</time>
      </trkpt>
      <trkpt lat="47.65778" lon="6.18023">
        <ele>241.19999694824</ele>
        <time>2012-07-20T07:44:34.000Z</time>
      </trkpt>
      <trkpt lat="47.6578" lon="6.18021">
        <ele>241.60000610352</ele>
        <time>2012-07-20T07:44:35.000Z</time>
      </trkpt>
      <trkpt lat="47.65781" lon="6.1802">
        <ele>242</ele>
        <time>2012-07-20T07:44:36.000Z</time>
      </trkpt>
      <trkpt lat="47.65783" lon="6.18018">
        <ele>242.39999389648</ele>
        <time>2012-07-20T07:44:37.000Z</time>
      </trkpt>
      <trkpt lat="47.65785" lon="6.18016">
        <ele>242.80000305176</ele>
        <time>2012-07-20T07:44:38.000Z</time>
      </trkpt>
      <trkpt lat="47.65791" lon="6.18011">
        <ele>242.80000305176</ele>
        <time>2012-07-20T07:44:41.000Z</time>
      </trkpt>
      <trkpt lat="47.65805" lon="6.18">
        <ele>242.80000305176</ele>
        <time>2012-07-20T07:44:47.000Z</time>
      </trkpt>
      <trkpt lat="47.65819" lon="6.17989">
        <ele>242.80000305176</ele>
        <time>2012-07-20T07:44:51.000Z</time>
      </trkpt>
      <trkpt lat="47.65823" lon="6.17986">
        <ele>242.80000305176</ele>
        <time>2012-07-20T07:44:52.000Z</time>
      </trkpt>
      <trkpt lat="47.65849" lon="6.17965">
        <ele>242.80000305176</ele>
        <time>2012-07-20T07:44:58.000Z</time>
      </trkpt>
      <trkpt lat="47.65858" lon="6.17959">
        <ele>242.39999389648</ele>
        <time>2012-07-20T07:45:00.000Z</time>
      </trkpt>
      <trkpt lat="47.65864" lon="6.17958">
        <ele>242</ele>
        <time>2012-07-20T07:45:01.000Z</time>
      </trkpt>
      <trkpt lat="47.65869" lon="6.17956">
        <ele>241.19999694824</ele>
        <time>2012-07-20T07:45:02.000Z</time>
      </trkpt>
      <trkpt lat="47.65874" lon="6.17956">
        <ele>240.80000305176</ele>
        <time>2012-07-20T07:45:03.000Z</time>
      </trkpt>
      <trkpt lat="47.65914" lon="6.17948">
        <ele>240.19999694824</ele>
        <time>2012-07-20T07:45:11.000Z</time>
      </trkpt>
      <trkpt lat="47.6592" lon="6.17948">
        <ele>239.80000305176</ele>
        <time>2012-07-20T07:45:12.000Z</time>
      </trkpt>
      <trkpt lat="47.65926" lon="6.17948">
        <ele>239.39999389648</ele>
        <time>2012-07-20T07:45:13.000Z</time>
      </trkpt>
      <trkpt lat="47.65932" lon="6.17947">
        <ele>239</ele>
        <time>2012-07-20T07:45:14.000Z</time>
      </trkpt>
      <trkpt lat="47.65939" lon="6.17947">
        <ele>238.39999389648</ele>
        <time>2012-07-20T07:45:15.000Z</time>
      </trkpt>
      <trkpt lat="47.65945" lon="6.17947">
        <ele>238.39999389648</ele>
        <time>2012-07-20T07:45:16.000Z</time>
      </trkpt>
      <trkpt lat="47.65951" lon="6.17948">
        <ele>238</ele>
        <time>2012-07-20T07:45:17.000Z</time>
      </trkpt>
      <trkpt lat="47.65958" lon="6.17948">
        <ele>237.60000610352</ele>
        <time>2012-07-20T07:45:18.000Z</time>
      </trkpt>
      <trkpt lat="47.65964" lon="6.17949">
        <ele>237.19999694824</ele>
        <time>2012-07-20T07:45:19.000Z</time>
      </trkpt>
      <trkpt lat="47.65971" lon="6.1795">
        <ele>236.80000305176</ele>
        <time>2012-07-20T07:45:20.000Z</time>
      </trkpt>
      <trkpt lat="47.65977" lon="6.1795">
        <ele>236.19999694824</ele>
        <time>2012-07-20T07:45:21.000Z</time>
      </trkpt>
      <trkpt lat="47.65996" lon="6.1795">
        <ele>236.19999694824</ele>
        <time>2012-07-20T07:45:24.000Z</time>
      </trkpt>
      <trkpt lat="47.66042" lon="6.17952">
        <ele>236.19999694824</ele>
        <time>2012-07-20T07:45:32.000Z</time>
      </trkpt>
      <trkpt lat="47.66079" lon="6.17952">
        <ele>236.19999694824</ele>
        <time>2012-07-20T07:45:40.000Z</time>
      </trkpt>
      <trkpt lat="47.66103" lon="6.17952">
        <ele>236.19999694824</ele>
        <time>2012-07-20T07:45:46.000Z</time>
      </trkpt>
      <trkpt lat="47.66113" lon="6.17952">
        <ele>236.19999694824</ele>
        <time>2012-07-20T07:45:49.000Z</time>
      </trkpt>
      <trkpt lat="47.6613" lon="6.17951">
        <ele>236.19999694824</ele>
        <time>2012-07-20T07:45:54.000Z</time>
      </trkpt>
      <trkpt lat="47.66162" lon="6.17952">
        <ele>236.19999694824</ele>
        <time>2012-07-20T07:46:04.000Z</time>
      </trkpt>
      <trkpt lat="47.66187" lon="6.17955">
        <ele>236.19999694824</ele>
        <time>2012-07-20T07:46:12.000Z</time>
      </trkpt>
      <trkpt lat="47.66213" lon="6.17961">
        <ele>236.19999694824</ele>
        <time>2012-07-20T07:46:20.000Z</time>
      </trkpt>
      <trkpt lat="47.6624" lon="6.17968">
        <ele>236.19999694824</ele>
        <time>2012-07-20T07:46:27.000Z</time>
      </trkpt>
      <trkpt lat="47.66273" lon="6.17972">
        <ele>236.19999694824</ele>
        <time>2012-07-20T07:46:34.000Z</time>
      </trkpt>
      <trkpt lat="47.66284" lon="6.17973">
        <ele>235.80000305176</ele>
        <time>2012-07-20T07:46:36.000Z</time>
      </trkpt>
      <trkpt lat="47.66289" lon="6.17974">
        <ele>235.39999389648</ele>
        <time>2012-07-20T07:46:37.000Z</time>
      </trkpt>
      <trkpt lat="47.66295" lon="6.17974">
        <ele>235</ele>
        <time>2012-07-20T07:46:38.000Z</time>
      </trkpt>
      <trkpt lat="47.663" lon="6.17974">
        <ele>234.60000610352</ele>
        <time>2012-07-20T07:46:39.000Z</time>
      </trkpt>
      <trkpt lat="47.66305" lon="6.17974">
        <ele>234.19999694824</ele>
        <time>2012-07-20T07:46:40.000Z</time>
      </trkpt>
      <trkpt lat="47.6631" lon="6.17973">
        <ele>234.19999694824</ele>
        <time>2012-07-20T07:46:41.000Z</time>
      </trkpt>
      <trkpt lat="47.66328" lon="6.17976">
        <ele>234.19999694824</ele>
        <time>2012-07-20T07:46:46.000Z</time>
      </trkpt>
      <trkpt lat="47.66335" lon="6.17996">
        <ele>234.19999694824</ele>
        <time>2012-07-20T07:46:50.000Z</time>
      </trkpt>
      <trkpt lat="47.66346" lon="6.18029">
        <ele>234.19999694824</ele>
        <time>2012-07-20T07:46:57.000Z</time>
      </trkpt>
      <trkpt lat="47.66359" lon="6.18057">
        <ele>234.19999694824</ele>
        <time>2012-07-20T07:47:03.000Z</time>
      </trkpt>
      <trkpt lat="47.66365" lon="6.18066">
        <ele>234.19999694824</ele>
        <time>2012-07-20T07:47:05.000Z</time>
      </trkpt>
      <trkpt lat="47.66377" lon="6.18082">
        <ele>234.19999694824</ele>
        <time>2012-07-20T07:47:09.000Z</time>
      </trkpt>
      <trkpt lat="47.66398" lon="6.18109">
        <ele>234.19999694824</ele>
        <time>2012-07-20T07:47:16.000Z</time>
      </trkpt>
      <trkpt lat="47.66421" lon="6.18135">
        <ele>234.19999694824</ele>
        <time>2012-07-20T07:47:24.000Z</time>
      </trkpt>
      <trkpt lat="47.66441" lon="6.18157">
        <ele>234.19999694824</ele>
        <time>2012-07-20T07:47:31.000Z</time>
      </trkpt>
      <trkpt lat="47.66452" lon="6.18184">
        <ele>234.19999694824</ele>
        <time>2012-07-20T07:47:37.000Z</time>
      </trkpt>
      <trkpt lat="47.66465" lon="6.18215">
        <ele>234.19999694824</ele>
        <time>2012-07-20T07:47:45.000Z</time>
      </trkpt>
      <trkpt lat="47.66475" lon="6.18235">
        <ele>234.19999694824</ele>
        <time>2012-07-20T07:47:51.000Z</time>
      </trkpt>
      <trkpt lat="47.66488" lon="6.18259">
        <ele>234.19999694824</ele>
        <time>2012-07-20T07:47:58.000Z</time>
      </trkpt>
      <trkpt lat="47.66503" lon="6.1828">
        <ele>234.19999694824</ele>
        <time>2012-07-20T07:48:04.000Z</time>
      </trkpt>
      <trkpt lat="47.66513" lon="6.18293">
        <ele>234.60000610352</ele>
        <time>2012-07-20T07:48:08.000Z</time>
      </trkpt>
      <trkpt lat="47.66516" lon="6.18296">
        <ele>235</ele>
        <time>2012-07-20T07:48:09.000Z</time>
      </trkpt>
      <trkpt lat="47.66518" lon="6.18299">
        <ele>235.39999389648</ele>
        <time>2012-07-20T07:48:10.000Z</time>
      </trkpt>
      <trkpt lat="47.66521" lon="6.18301">
        <ele>235.80000305176</ele>
        <time>2012-07-20T07:48:11.000Z</time>
      </trkpt>
      <trkpt lat="47.66523" lon="6.18304">
        <ele>236.19999694824</ele>
        <time>2012-07-20T07:48:12.000Z</time>
      </trkpt>
      <trkpt lat="47.66526" lon="6.18307">
        <ele>236.19999694824</ele>
        <time>2012-07-20T07:48:13.000Z</time>
      </trkpt>
      <trkpt lat="47.66544" lon="6.18328">
        <ele>236.19999694824</ele>
        <time>2012-07-20T07:48:20.000Z</time>
      </trkpt>
      <trkpt lat="47.66569" lon="6.18352">
        <ele>236.19999694824</ele>
        <time>2012-07-20T07:48:30.000Z</time>
      </trkpt>
      <trkpt lat="47.66589" lon="6.1837">
        <ele>236.19999694824</ele>
        <time>2012-07-20T07:48:38.000Z</time>
      </trkpt>
      <trkpt lat="47.6661" lon="6.1839">
        <ele>236.19999694824</ele>
        <time>2012-07-20T07:48:46.000Z</time>
      </trkpt>
      <trkpt lat="47.66627" lon="6.18405">
        <ele>236.19999694824</ele>
        <time>2012-07-20T07:48:53.000Z</time>
      </trkpt>
      <trkpt lat="47.66628" lon="6.18405">
        <ele>236.19999694824</ele>
        <time>2012-07-20T07:48:55.000Z</time>
      </trkpt>
      <trkpt lat="47.6663" lon="6.18409">
        <ele>236.19999694824</ele>
        <time>2012-07-20T07:49:01.000Z</time>
      </trkpt>
      <trkpt lat="47.66641" lon="6.18417">
        <ele>236.19999694824</ele>
        <time>2012-07-20T07:49:06.000Z</time>
      </trkpt>
      <trkpt lat="47.66661" lon="6.18432">
        <ele>236.19999694824</ele>
        <time>2012-07-20T07:49:13.000Z</time>
      </trkpt>
      <trkpt lat="47.66666" lon="6.18437">
        <ele>236.60000610352</ele>
        <time>2012-07-20T07:49:15.000Z</time>
      </trkpt>
      <trkpt lat="47.66669" lon="6.1844">
        <ele>237</ele>
        <time>2012-07-20T07:49:16.000Z</time>
      </trkpt>
      <trkpt lat="47.66671" lon="6.18443">
        <ele>237.39999389648</ele>
        <time>2012-07-20T07:49:17.000Z</time>
      </trkpt>
      <trkpt lat="47.66674" lon="6.18446">
        <ele>237.80000305176</ele>
        <time>2012-07-20T07:49:18.000Z</time>
      </trkpt>
      <trkpt lat="47.66677" lon="6.18449">
        <ele>238.39999389648</ele>
        <time>2012-07-20T07:49:19.000Z</time>
      </trkpt>
      <trkpt lat="47.66685" lon="6.18458">
        <ele>238.39999389648</ele>
        <time>2012-07-20T07:49:22.000Z</time>
      </trkpt>
      <trkpt lat="47.66704" lon="6.18473">
        <ele>238.39999389648</ele>
        <time>2012-07-20T07:49:29.000Z</time>
      </trkpt>
      <trkpt lat="47.66724" lon="6.18484">
        <ele>238.39999389648</ele>
        <time>2012-07-20T07:49:36.000Z</time>
      </trkpt>
      <trkpt lat="47.66745" lon="6.18493">
        <ele>238.39999389648</ele>
        <time>2012-07-20T07:49:43.000Z</time>
      </trkpt>
      <trkpt lat="47.66765" lon="6.18499">
        <ele>238.39999389648</ele>
        <time>2012-07-20T07:49:50.000Z</time>
      </trkpt>
      <trkpt lat="47.66794" lon="6.18505">
        <ele>238.39999389648</ele>
        <time>2012-07-20T07:49:59.000Z</time>
      </trkpt>
      <trkpt lat="47.66816" lon="6.18513">
        <ele>238.39999389648</ele>
        <time>2012-07-20T07:50:06.000Z</time>
      </trkpt>
      <trkpt lat="47.6684" lon="6.18533">
        <ele>238.39999389648</ele>
        <time>2012-07-20T07:50:14.000Z</time>
      </trkpt>
      <trkpt lat="47.66863" lon="6.1855">
        <ele>238.39999389648</ele>
        <time>2012-07-20T07:50:21.000Z</time>
      </trkpt>
      <trkpt lat="47.66884" lon="6.18566">
        <ele>238.39999389648</ele>
        <time>2012-07-20T07:50:28.000Z</time>
      </trkpt>
      <trkpt lat="47.669" lon="6.18576">
        <ele>238.80000305176</ele>
        <time>2012-07-20T07:50:34.000Z</time>
      </trkpt>
      <trkpt lat="47.66903" lon="6.18577">
        <ele>239.19999694824</ele>
        <time>2012-07-20T07:50:35.000Z</time>
      </trkpt>
      <trkpt lat="47.66907" lon="6.18578">
        <ele>239.60000610352</ele>
        <time>2012-07-20T07:50:36.000Z</time>
      </trkpt>
      <trkpt lat="47.6691" lon="6.18579">
        <ele>240</ele>
        <time>2012-07-20T07:50:37.000Z</time>
      </trkpt>
      <trkpt lat="47.66913" lon="6.1858">
        <ele>240.39999389648</ele>
        <time>2012-07-20T07:50:38.000Z</time>
      </trkpt>
      <trkpt lat="47.66922" lon="6.18581">
        <ele>240.39999389648</ele>
        <time>2012-07-20T07:50:41.000Z</time>
      </trkpt>
      <trkpt lat="47.66943" lon="6.18584">
        <ele>240.39999389648</ele>
        <time>2012-07-20T07:50:49.000Z</time>
      </trkpt>
      <trkpt lat="47.66953" lon="6.18586">
        <ele>240.80000305176</ele>
        <time>2012-07-20T07:50:53.000Z</time>
      </trkpt>
      <trkpt lat="47.66956" lon="6.18587">
        <ele>241.19999694824</ele>
        <time>2012-07-20T07:50:54.000Z</time>
      </trkpt>
      <trkpt lat="47.66958" lon="6.18588">
        <ele>241.60000610352</ele>
        <time>2012-07-20T07:50:55.000Z</time>
      </trkpt>
      <trkpt lat="47.6696" lon="6.18588">
        <ele>242</ele>
        <time>2012-07-20T07:50:56.000Z</time>
      </trkpt>
      <trkpt lat="47.66963" lon="6.18588">
        <ele>242.39999389648</ele>
        <time>2012-07-20T07:50:57.000Z</time>
      </trkpt>
      <trkpt lat="47.66973" lon="6.1859">
        <ele>242.39999389648</ele>
        <time>2012-07-20T07:51:01.000Z</time>
      </trkpt>
      <trkpt lat="47.66991" lon="6.18595">
        <ele>242.39999389648</ele>
        <time>2012-07-20T07:51:07.000Z</time>
      </trkpt>
      <trkpt lat="47.67012" lon="6.18601">
        <ele>242.39999389648</ele>
        <time>2012-07-20T07:51:14.000Z</time>
      </trkpt>
      <trkpt lat="47.67042" lon="6.18606">
        <ele>242.39999389648</ele>
        <time>2012-07-20T07:51:24.000Z</time>
      </trkpt>
      <trkpt lat="47.67068" lon="6.1861">
        <ele>242.39999389648</ele>
        <time>2012-07-20T07:51:33.000Z</time>
      </trkpt>
      <trkpt lat="47.67093" lon="6.1861">
        <ele>242.39999389648</ele>
        <time>2012-07-20T07:51:41.000Z</time>
      </trkpt>
      <trkpt lat="47.67115" lon="6.18612">
        <ele>242.39999389648</ele>
        <time>2012-07-20T07:51:48.000Z</time>
      </trkpt>
      <trkpt lat="47.6714" lon="6.18612">
        <ele>242.39999389648</ele>
        <time>2012-07-20T07:51:56.000Z</time>
      </trkpt>
      <trkpt lat="47.6716" lon="6.18613">
        <ele>242.39999389648</ele>
        <time>2012-07-20T07:52:03.000Z</time>
      </trkpt>
      <trkpt lat="47.67181" lon="6.18616">
        <ele>242.39999389648</ele>
        <time>2012-07-20T07:52:11.000Z</time>
      </trkpt>
      <trkpt lat="47.67198" lon="6.18618">
        <ele>242.39999389648</ele>
        <time>2012-07-20T07:52:18.000Z</time>
      </trkpt>
      <trkpt lat="47.67218" lon="6.18621">
        <ele>242.39999389648</ele>
        <time>2012-07-20T07:52:25.000Z</time>
      </trkpt>
      <trkpt lat="47.6724" lon="6.18622">
        <ele>242.39999389648</ele>
        <time>2012-07-20T07:52:33.000Z</time>
      </trkpt>
      <trkpt lat="47.6726" lon="6.18624">
        <ele>242.39999389648</ele>
        <time>2012-07-20T07:52:40.000Z</time>
      </trkpt>
      <trkpt lat="47.67276" lon="6.18626">
        <ele>242.39999389648</ele>
        <time>2012-07-20T07:52:46.000Z</time>
      </trkpt>
      <trkpt lat="47.67287" lon="6.18626">
        <ele>242.39999389648</ele>
        <time>2012-07-20T07:52:51.000Z</time>
      </trkpt>
      <trkpt lat="47.6729" lon="6.18626">
        <ele>242.39999389648</ele>
        <time>2012-07-20T07:52:52.000Z</time>
      </trkpt>
      <trkpt lat="47.673" lon="6.18627">
        <ele>242.80000305176</ele>
        <time>2012-07-20T07:52:57.000Z</time>
      </trkpt>
      <trkpt lat="47.67302" lon="6.18627">
        <ele>243.19999694824</ele>
        <time>2012-07-20T07:52:58.000Z</time>
      </trkpt>
      <trkpt lat="47.67304" lon="6.18627">
        <ele>243.60000610352</ele>
        <time>2012-07-20T07:52:59.000Z</time>
      </trkpt>
      <trkpt lat="47.67306" lon="6.18627">
        <ele>244</ele>
        <time>2012-07-20T07:53:00.000Z</time>
      </trkpt>
      <trkpt lat="47.67308" lon="6.18627">
        <ele>244.39999389648</ele>
        <time>2012-07-20T07:53:01.000Z</time>
      </trkpt>
      <trkpt lat="47.67319" lon="6.18626">
        <ele>244.39999389648</ele>
        <time>2012-07-20T07:53:05.000Z</time>
      </trkpt>
      <trkpt lat="47.67335" lon="6.18626">
        <ele>244.39999389648</ele>
        <time>2012-07-20T07:53:11.000Z</time>
      </trkpt>
      <trkpt lat="47.6735" lon="6.18627">
        <ele>244.39999389648</ele>
        <time>2012-07-20T07:53:17.000Z</time>
      </trkpt>
      <trkpt lat="47.67366" lon="6.18624">
        <ele>244.39999389648</ele>
        <time>2012-07-20T07:53:23.000Z</time>
      </trkpt>
      <trkpt lat="47.67377" lon="6.18625">
        <ele>244.39999389648</ele>
        <time>2012-07-20T07:53:29.000Z</time>
      </trkpt>
      <trkpt lat="47.67388" lon="6.18624">
        <ele>244.39999389648</ele>
        <time>2012-07-20T07:53:34.000Z</time>
      </trkpt>
      <trkpt lat="47.67404" lon="6.1862">
        <ele>244.39999389648</ele>
        <time>2012-07-20T07:53:40.000Z</time>
      </trkpt>
      <trkpt lat="47.6741" lon="6.18623">
        <ele>244.80000305176</ele>
        <time>2012-07-20T07:53:45.000Z</time>
      </trkpt>
      <trkpt lat="47.67411" lon="6.18623">
        <ele>245.19999694824</ele>
        <time>2012-07-20T07:53:46.000Z</time>
      </trkpt>
      <trkpt lat="47.67412" lon="6.18623">
        <ele>245.60000610352</ele>
        <time>2012-07-20T07:53:47.000Z</time>
      </trkpt>
      <trkpt lat="47.67413" lon="6.18623">
        <ele>246</ele>
        <time>2012-07-20T07:53:48.000Z</time>
      </trkpt>
      <trkpt lat="47.67414" lon="6.18623">
        <ele>246.39999389648</ele>
        <time>2012-07-20T07:53:49.000Z</time>
      </trkpt>
      <trkpt lat="47.67416" lon="6.18623">
        <ele>246.39999389648</ele>
        <time>2012-07-20T07:53:51.000Z</time>
      </trkpt>
      <trkpt lat="47.67442" lon="6.18623">
        <ele>246.39999389648</ele>
        <time>2012-07-20T07:54:07.000Z</time>
      </trkpt>
      <trkpt lat="47.67445" lon="6.18623">
        <ele>247.19999694824</ele>
        <time>2012-07-20T07:54:08.000Z</time>
      </trkpt>
      <trkpt lat="47.67449" lon="6.18622">
        <ele>247.80000305176</ele>
        <time>2012-07-20T07:54:09.000Z</time>
      </trkpt>
      <trkpt lat="47.67451" lon="6.18622">
        <ele>248.19999694824</ele>
        <time>2012-07-20T07:54:10.000Z</time>
      </trkpt>
      <trkpt lat="47.67454" lon="6.18622">
        <ele>248.60000610352</ele>
        <time>2012-07-20T07:54:11.000Z</time>
      </trkpt>
      <trkpt lat="47.67459" lon="6.18622">
        <ele>248.60000610352</ele>
        <time>2012-07-20T07:54:13.000Z</time>
      </trkpt>
      <trkpt lat="47.67461" lon="6.18624">
        <ele>248.60000610352</ele>
        <time>2012-07-20T07:54:14.000Z</time>
      </trkpt>
      <trkpt lat="47.67467" lon="6.18624">
        <ele>248.60000610352</ele>
        <time>2012-07-20T07:54:17.000Z</time>
      </trkpt>
      <trkpt lat="47.67481" lon="6.18624">
        <ele>248.60000610352</ele>
        <time>2012-07-20T07:54:25.000Z</time>
      </trkpt>
      <trkpt lat="47.67487" lon="6.18625">
        <ele>249</ele>
        <time>2012-07-20T07:54:27.000Z</time>
      </trkpt>
      <trkpt lat="47.6749" lon="6.18625">
        <ele>249.39999389648</ele>
        <time>2012-07-20T07:54:28.000Z</time>
      </trkpt>
      <trkpt lat="47.67493" lon="6.18626">
        <ele>249.80000305176</ele>
        <time>2012-07-20T07:54:29.000Z</time>
      </trkpt>
      <trkpt lat="47.67495" lon="6.18625">
        <ele>250.19999694824</ele>
        <time>2012-07-20T07:54:30.000Z</time>
      </trkpt>
      <trkpt lat="47.67498" lon="6.18626">
        <ele>250.60000610352</ele>
        <time>2012-07-20T07:54:31.000Z</time>
      </trkpt>
      <trkpt lat="47.67502" lon="6.18626">
        <ele>250.60000610352</ele>
        <time>2012-07-20T07:54:33.000Z</time>
      </trkpt>
      <trkpt lat="47.67518" lon="6.18624">
        <ele>250.60000610352</ele>
        <time>2012-07-20T07:54:40.000Z</time>
      </trkpt>
      <trkpt lat="47.67526" lon="6.18623">
        <ele>250.60000610352</ele>
        <time>2012-07-20T07:54:42.000Z</time>
      </trkpt>
      <trkpt lat="47.67537" lon="6.18624">
        <ele>250.60000610352</ele>
        <time>2012-07-20T07:55:06.000Z</time>
      </trkpt>
      <trkpt lat="47.67539" lon="6.18624">
        <ele>251</ele>
        <time>2012-07-20T07:55:07.000Z</time>
      </trkpt>
      <trkpt lat="47.6754" lon="6.18623">
        <ele>251.39999389648</ele>
        <time>2012-07-20T07:55:08.000Z</time>
      </trkpt>
      <trkpt lat="47.67541" lon="6.18624">
        <ele>251.80000305176</ele>
        <time>2012-07-20T07:55:09.000Z</time>
      </trkpt>
      <trkpt lat="47.67541" lon="6.18624">
        <ele>252.19999694824</ele>
        <time>2012-07-20T07:55:10.000Z</time>
      </trkpt>
      <trkpt lat="47.67542" lon="6.18624">
        <ele>252.60000610352</ele>
        <time>2012-07-20T07:55:11.000Z</time>
      </trkpt>
      <trkpt lat="47.67544" lon="6.18623">
        <ele>252.60000610352</ele>
        <time>2012-07-20T07:55:13.000Z</time>
      </trkpt>
      <trkpt lat="47.67548" lon="6.18622">
        <ele>253.19999694824</ele>
        <time>2012-07-20T07:55:17.000Z</time>
      </trkpt>
      <trkpt lat="47.67548" lon="6.18622">
        <ele>253.80000305176</ele>
        <time>2012-07-20T07:55:18.000Z</time>
      </trkpt>
      <trkpt lat="47.6755" lon="6.18622">
        <ele>254.19999694824</ele>
        <time>2012-07-20T07:55:19.000Z</time>
      </trkpt>
      <trkpt lat="47.6755" lon="6.18622">
        <ele>254.80000305176</ele>
        <time>2012-07-20T07:55:20.000Z</time>
      </trkpt>
      <trkpt lat="47.67551" lon="6.18622">
        <ele>255.39999389648</ele>
        <time>2012-07-20T07:55:21.000Z</time>
      </trkpt>
      <trkpt lat="47.67555" lon="6.18622">
        <ele>255.39999389648</ele>
        <time>2012-07-20T07:55:26.000Z</time>
      </trkpt>
      <trkpt lat="47.67564" lon="6.18623">
        <ele>255.39999389648</ele>
        <time>2012-07-20T07:55:34.000Z</time>
      </trkpt>
      <trkpt lat="47.67574" lon="6.18624">
        <ele>255.39999389648</ele>
        <time>2012-07-20T07:55:42.000Z</time>
      </trkpt>
      <trkpt lat="47.67589" lon="6.18623">
        <ele>255.39999389648</ele>
        <time>2012-07-20T07:55:50.000Z</time>
      </trkpt>
      <trkpt lat="47.67601" lon="6.18621">
        <ele>255.39999389648</ele>
        <time>2012-07-20T07:55:57.000Z</time>
      </trkpt>
      <trkpt lat="47.67618" lon="6.18619">
        <ele>255.39999389648</ele>
        <time>2012-07-20T07:56:53.000Z</time>
      </trkpt>
      <trkpt lat="47.67613" lon="6.18619">
        <ele>255.39999389648</ele>
        <time>2012-07-20T07:56:58.000Z</time>
      </trkpt>
      <trkpt lat="47.67612" lon="6.18619">
        <ele>255.39999389648</ele>
        <time>2012-07-20T07:56:59.000Z</time>
      </trkpt>
      <trkpt lat="47.67601" lon="6.18617">
        <ele>255.39999389648</ele>
        <time>2012-07-20T07:57:05.000Z</time>
      </trkpt>
      <trkpt lat="47.67587" lon="6.18616">
        <ele>255.39999389648</ele>
        <time>2012-07-20T07:57:10.000Z</time>
      </trkpt>
      <trkpt lat="47.67575" lon="6.18616">
        <ele>255.39999389648</ele>
        <time>2012-07-20T07:57:15.000Z</time>
      </trkpt>
      <trkpt lat="47.67562" lon="6.18618">
        <ele>255.39999389648</ele>
        <time>2012-07-20T07:57:20.000Z</time>
      </trkpt>
      <trkpt lat="47.6756" lon="6.18618">
        <ele>255</ele>
        <time>2012-07-20T07:57:21.000Z</time>
      </trkpt>
      <trkpt lat="47.67556" lon="6.18619">
        <ele>254.60000610352</ele>
        <time>2012-07-20T07:57:22.000Z</time>
      </trkpt>
      <trkpt lat="47.67553" lon="6.18619">
        <ele>254.19999694824</ele>
        <time>2012-07-20T07:57:23.000Z</time>
      </trkpt>
      <trkpt lat="47.67551" lon="6.18619">
        <ele>253.80000305176</ele>
        <time>2012-07-20T07:57:24.000Z</time>
      </trkpt>
      <trkpt lat="47.67549" lon="6.18619">
        <ele>253.19999694824</ele>
        <time>2012-07-20T07:57:25.000Z</time>
      </trkpt>
      <trkpt lat="47.67547" lon="6.1862">
        <ele>253.19999694824</ele>
        <time>2012-07-20T07:57:26.000Z</time>
      </trkpt>
      <trkpt lat="47.67544" lon="6.18622">
        <ele>252.80000305176</ele>
        <time>2012-07-20T07:57:29.000Z</time>
      </trkpt>
      <trkpt lat="47.67542" lon="6.18623">
        <ele>252.39999389648</ele>
        <time>2012-07-20T07:57:30.000Z</time>
      </trkpt>
      <trkpt lat="47.67541" lon="6.18625">
        <ele>252</ele>
        <time>2012-07-20T07:57:31.000Z</time>
      </trkpt>
      <trkpt lat="47.67539" lon="6.18626">
        <ele>251.60000610352</ele>
        <time>2012-07-20T07:57:32.000Z</time>
      </trkpt>
      <trkpt lat="47.67538" lon="6.18627">
        <ele>251.19999694824</ele>
        <time>2012-07-20T07:57:33.000Z</time>
      </trkpt>
      <trkpt lat="47.67537" lon="6.18629">
        <ele>251.19999694824</ele>
        <time>2012-07-20T07:57:34.000Z</time>
      </trkpt>
      <trkpt lat="47.67537" lon="6.18632">
        <ele>251.19999694824</ele>
        <time>2012-07-20T07:57:36.000Z</time>
      </trkpt>
      <trkpt lat="47.67539" lon="6.18649">
        <ele>251.19999694824</ele>
        <time>2012-07-20T07:57:42.000Z</time>
      </trkpt>
      <trkpt lat="47.67547" lon="6.1867">
        <ele>251.19999694824</ele>
        <time>2012-07-20T07:57:48.000Z</time>
      </trkpt>
      <trkpt lat="47.67554" lon="6.18684">
        <ele>251.19999694824</ele>
        <time>2012-07-20T07:57:53.000Z</time>
      </trkpt>
      <trkpt lat="47.67566" lon="6.18689">
        <ele>251.19999694824</ele>
        <time>2012-07-20T07:57:59.000Z</time>
      </trkpt>
      <trkpt lat="47.67579" lon="6.18691">
        <ele>251.19999694824</ele>
        <time>2012-07-20T07:58:07.000Z</time>
      </trkpt>
      <trkpt lat="47.67589" lon="6.18693">
        <ele>251.19999694824</ele>
        <time>2012-07-20T07:58:13.000Z</time>
      </trkpt>
      <trkpt lat="47.676" lon="6.18691">
        <ele>251.19999694824</ele>
        <time>2012-07-20T07:58:19.000Z</time>
      </trkpt>
      <trkpt lat="47.67612" lon="6.18692">
        <ele>251.19999694824</ele>
        <time>2012-07-20T07:58:26.000Z</time>
      </trkpt>
      <trkpt lat="47.67623" lon="6.18692">
        <ele>251.19999694824</ele>
        <time>2012-07-20T07:58:33.000Z</time>
      </trkpt>
      <trkpt lat="47.67624" lon="6.18692">
        <ele>251.19999694824</ele>
        <time>2012-07-20T07:58:35.000Z</time>
      </trkpt>
      <trkpt lat="47.67628" lon="6.18697">
        <ele>251.19999694824</ele>
        <time>2012-07-20T07:58:57.000Z</time>
      </trkpt>
      <trkpt lat="47.6763" lon="6.187">
        <ele>251.19999694824</ele>
        <time>2012-07-20T07:58:58.000Z</time>
      </trkpt>
      <trkpt lat="47.67631" lon="6.18705">
        <ele>251.19999694824</ele>
        <time>2012-07-20T07:59:00.000Z</time>
      </trkpt>
      <trkpt lat="47.67632" lon="6.18713">
        <ele>251.19999694824</ele>
        <time>2012-07-20T07:59:03.000Z</time>
      </trkpt>
      <trkpt lat="47.67633" lon="6.18714">
        <ele>251.19999694824</ele>
        <time>2012-07-20T07:59:05.000Z</time>
      </trkpt>
      <trkpt lat="47.67635" lon="6.18724">
        <ele>251.19999694824</ele>
        <time>2012-07-20T07:59:19.000Z</time>
      </trkpt>
      <trkpt lat="47.67634" lon="6.18727">
        <ele>250.80000305176</ele>
        <time>2012-07-20T07:59:20.000Z</time>
      </trkpt>
      <trkpt lat="47.67635" lon="6.18729">
        <ele>250.39999389648</ele>
        <time>2012-07-20T07:59:21.000Z</time>
      </trkpt>
      <trkpt lat="47.67634" lon="6.18731">
        <ele>250</ele>
        <time>2012-07-20T07:59:22.000Z</time>
      </trkpt>
      <trkpt lat="47.67634" lon="6.18734">
        <ele>249.60000610352</ele>
        <time>2012-07-20T07:59:23.000Z</time>
      </trkpt>
      <trkpt lat="47.67634" lon="6.18735">
        <ele>249.19999694824</ele>
        <time>2012-07-20T07:59:24.000Z</time>
      </trkpt>
      <trkpt lat="47.67634" lon="6.18739">
        <ele>249.19999694824</ele>
        <time>2012-07-20T07:59:25.000Z</time>
      </trkpt>
      <trkpt lat="47.67632" lon="6.18754">
        <ele>249.19999694824</ele>
        <time>2012-07-20T07:59:30.000Z</time>
      </trkpt>
      <trkpt lat="47.67633" lon="6.18757">
        <ele>248.80000305176</ele>
        <time>2012-07-20T07:59:31.000Z</time>
      </trkpt>
      <trkpt lat="47.67633" lon="6.18759">
        <ele>248.39999389648</ele>
        <time>2012-07-20T07:59:32.000Z</time>
      </trkpt>
      <trkpt lat="47.67633" lon="6.18762">
        <ele>247.80000305176</ele>
        <time>2012-07-20T07:59:33.000Z</time>
      </trkpt>
      <trkpt lat="47.67633" lon="6.18764">
        <ele>247.39999389648</ele>
        <time>2012-07-20T07:59:34.000Z</time>
      </trkpt>
      <trkpt lat="47.67634" lon="6.18768">
        <ele>247</ele>
        <time>2012-07-20T07:59:35.000Z</time>
      </trkpt>
      <trkpt lat="47.67639" lon="6.18774">
        <ele>247</ele>
        <time>2012-07-20T07:59:39.000Z</time>
      </trkpt>
      <trkpt lat="47.67643" lon="6.18775">
        <ele>247</ele>
        <time>2012-07-20T07:59:41.000Z</time>
      </trkpt>
      <trkpt lat="47.67648" lon="6.18777">
        <ele>247</ele>
        <time>2012-07-20T07:59:45.000Z</time>
      </trkpt>
      <trkpt lat="47.67656" lon="6.18779">
        <ele>247</ele>
        <time>2012-07-20T07:59:49.000Z</time>
      </trkpt>
      <trkpt lat="47.67663" lon="6.18779">
        <ele>247</ele>
        <time>2012-07-20T07:59:53.000Z</time>
      </trkpt>
      <trkpt lat="47.67663" lon="6.1878">
        <ele>247</ele>
        <time>2012-07-20T07:59:54.000Z</time>
      </trkpt>
      <trkpt lat="47.6767" lon="6.18789">
        <ele>247</ele>
        <time>2012-07-20T08:00:01.000Z</time>
      </trkpt>
      <trkpt lat="47.67675" lon="6.18793">
        <ele>247</ele>
        <time>2012-07-20T08:00:07.000Z</time>
      </trkpt>
      <trkpt lat="47.67677" lon="6.18792">
        <ele>247</ele>
        <time>2012-07-20T08:00:08.000Z</time>
      </trkpt>
      <trkpt lat="47.67682" lon="6.18789">
        <ele>247</ele>
        <time>2012-07-20T08:00:12.000Z</time>
      </trkpt>
      <trkpt lat="47.67682" lon="6.18789">
        <ele>247</ele>
        <time>2012-07-20T08:00:13.000Z</time>
      </trkpt>
      <trkpt lat="47.67684" lon="6.18788">
        <ele>247</ele>
        <time>2012-07-20T08:00:14.000Z</time>
      </trkpt>
      <trkpt lat="47.67706" lon="6.18807">
        <ele>247</ele>
        <time>2012-07-20T08:01:05.000Z</time>
      </trkpt>
      <trkpt lat="47.6771" lon="6.18812">
        <ele>247</ele>
        <time>2012-07-20T08:01:07.000Z</time>
      </trkpt>
      <trkpt lat="47.67718" lon="6.18817">
        <ele>247</ele>
        <time>2012-07-20T08:01:12.000Z</time>
      </trkpt>
      <trkpt lat="47.67726" lon="6.18818">
        <ele>247</ele>
        <time>2012-07-20T08:01:18.000Z</time>
      </trkpt>
      <trkpt lat="47.67733" lon="6.18818">
        <ele>247</ele>
        <time>2012-07-20T08:01:23.000Z</time>
      </trkpt>
      <trkpt lat="47.67739" lon="6.18818">
        <ele>247</ele>
        <time>2012-07-20T08:01:27.000Z</time>
      </trkpt>
      <trkpt lat="47.67752" lon="6.18816">
        <ele>247</ele>
        <time>2012-07-20T08:01:35.000Z</time>
      </trkpt>
      <trkpt lat="47.67758" lon="6.18814">
        <ele>247.39999389648</ele>
        <time>2012-07-20T08:01:38.000Z</time>
      </trkpt>
      <trkpt lat="47.6776" lon="6.18814">
        <ele>247.80000305176</ele>
        <time>2012-07-20T08:01:39.000Z</time>
      </trkpt>
      <trkpt lat="47.6776" lon="6.18813">
        <ele>248.19999694824</ele>
        <time>2012-07-20T08:01:40.000Z</time>
      </trkpt>
      <trkpt lat="47.67763" lon="6.18812">
        <ele>248.60000610352</ele>
        <time>2012-07-20T08:01:41.000Z</time>
      </trkpt>
      <trkpt lat="47.67765" lon="6.18811">
        <ele>249</ele>
        <time>2012-07-20T08:01:42.000Z</time>
      </trkpt>
      <trkpt lat="47.67766" lon="6.1881">
        <ele>249</ele>
        <time>2012-07-20T08:01:43.000Z</time>
      </trkpt>
      <trkpt lat="47.67777" lon="6.18802">
        <ele>249</ele>
        <time>2012-07-20T08:01:50.000Z</time>
      </trkpt>
      <trkpt lat="47.67783" lon="6.18795">
        <ele>249</ele>
        <time>2012-07-20T08:01:56.000Z</time>
      </trkpt>
      <trkpt lat="47.67786" lon="6.18791">
        <ele>249</ele>
        <time>2012-07-20T08:01:58.000Z</time>
      </trkpt>
      <trkpt lat="47.67798" lon="6.1878">
        <ele>249</ele>
        <time>2012-07-20T08:02:06.000Z</time>
      </trkpt>
      <trkpt lat="47.67812" lon="6.18764">
        <ele>249</ele>
        <time>2012-07-20T08:02:13.000Z</time>
      </trkpt>
      <trkpt lat="47.67823" lon="6.18751">
        <ele>249</ele>
        <time>2012-07-20T08:02:21.000Z</time>
      </trkpt>
      <trkpt lat="47.67825" lon="6.18749">
        <ele>249.39999389648</ele>
        <time>2012-07-20T08:02:22.000Z</time>
      </trkpt>
      <trkpt lat="47.67826" lon="6.18748">
        <ele>249.80000305176</ele>
        <time>2012-07-20T08:02:23.000Z</time>
      </trkpt>
      <trkpt lat="47.67826" lon="6.18748">
        <ele>250.39999389648</ele>
        <time>2012-07-20T08:02:24.000Z</time>
      </trkpt>
      <trkpt lat="47.67827" lon="6.18747">
        <ele>250.80000305176</ele>
        <time>2012-07-20T08:02:25.000Z</time>
      </trkpt>
      <trkpt lat="47.6783" lon="6.18746">
        <ele>251.19999694824</ele>
        <time>2012-07-20T08:02:26.000Z</time>
      </trkpt>
      <trkpt lat="47.67833" lon="6.18744">
        <ele>251.19999694824</ele>
        <time>2012-07-20T08:02:29.000Z</time>
      </trkpt>
      <trkpt lat="47.67842" lon="6.18739">
        <ele>251.19999694824</ele>
        <time>2012-07-20T08:02:37.000Z</time>
      </trkpt>
      <trkpt lat="47.67844" lon="6.18738">
        <ele>251.60000610352</ele>
        <time>2012-07-20T08:02:39.000Z</time>
      </trkpt>
      <trkpt lat="47.67844" lon="6.18738">
        <ele>252</ele>
        <time>2012-07-20T08:02:40.000Z</time>
      </trkpt>
      <trkpt lat="47.67845" lon="6.18738">
        <ele>252.39999389648</ele>
        <time>2012-07-20T08:02:41.000Z</time>
      </trkpt>
      <trkpt lat="47.67848" lon="6.18737">
        <ele>252.80000305176</ele>
        <time>2012-07-20T08:02:42.000Z</time>
      </trkpt>
      <trkpt lat="47.67849" lon="6.18736">
        <ele>253.19999694824</ele>
        <time>2012-07-20T08:02:43.000Z</time>
      </trkpt>
      <trkpt lat="47.67849" lon="6.18737">
        <ele>253.19999694824</ele>
        <time>2012-07-20T08:02:44.000Z</time>
      </trkpt>
      <trkpt lat="47.67852" lon="6.18744">
        <ele>253.19999694824</ele>
        <time>2012-07-20T08:02:49.000Z</time>
      </trkpt>
      <trkpt lat="47.67856" lon="6.18752">
        <ele>253.19999694824</ele>
        <time>2012-07-20T08:02:55.000Z</time>
      </trkpt>
      <trkpt lat="47.6786" lon="6.18756">
        <ele>253.19999694824</ele>
        <time>2012-07-20T08:02:58.000Z</time>
      </trkpt>
      <trkpt lat="47.67862" lon="6.1876">
        <ele>253.60000610352</ele>
        <time>2012-07-20T08:03:01.000Z</time>
      </trkpt>
      <trkpt lat="47.67863" lon="6.18762">
        <ele>254</ele>
        <time>2012-07-20T08:03:02.000Z</time>
      </trkpt>
      <trkpt lat="47.67864" lon="6.18764">
        <ele>254.39999389648</ele>
        <time>2012-07-20T08:03:03.000Z</time>
      </trkpt>
      <trkpt lat="47.67865" lon="6.18766">
        <ele>254.80000305176</ele>
        <time>2012-07-20T08:03:04.000Z</time>
      </trkpt>
      <trkpt lat="47.67865" lon="6.18767">
        <ele>255.19999694824</ele>
        <time>2012-07-20T08:03:05.000Z</time>
      </trkpt>
      <trkpt lat="47.67867" lon="6.18771">
        <ele>255.19999694824</ele>
        <time>2012-07-20T08:03:08.000Z</time>
      </trkpt>
      <trkpt lat="47.67873" lon="6.1878">
        <ele>255.19999694824</ele>
        <time>2012-07-20T08:03:14.000Z</time>
      </trkpt>
      <trkpt lat="47.67925" lon="6.18819">
        <ele>261.60000610352</ele>
        <time>2012-07-20T08:04:17.000Z</time>
      </trkpt>
      <trkpt lat="47.67926" lon="6.18818">
        <ele>262</ele>
        <time>2012-07-20T08:04:18.000Z</time>
      </trkpt>
      <trkpt lat="47.67928" lon="6.18818">
        <ele>262.39999389648</ele>
        <time>2012-07-20T08:04:19.000Z</time>
      </trkpt>
      <trkpt lat="47.67929" lon="6.18817">
        <ele>262.79998779297</ele>
        <time>2012-07-20T08:04:20.000Z</time>
      </trkpt>
      <trkpt lat="47.6793" lon="6.18817">
        <ele>263.20001220703</ele>
        <time>2012-07-20T08:04:21.000Z</time>
      </trkpt>
      <trkpt lat="47.67931" lon="6.18816">
        <ele>263.60000610352</ele>
        <time>2012-07-20T08:04:22.000Z</time>
      </trkpt>
      <trkpt lat="47.67933" lon="6.18816">
        <ele>263.60000610352</ele>
        <time>2012-07-20T08:04:24.000Z</time>
      </trkpt>
      <trkpt lat="47.67977" lon="6.18791">
        <ele>265.60000610352</ele>
        <time>2012-07-20T08:06:55.000Z</time>
      </trkpt>
      <trkpt lat="47.67979" lon="6.1879">
        <ele>265.60000610352</ele>
        <time>2012-07-20T08:06:57.000Z</time>
      </trkpt>
      <trkpt lat="47.67987" lon="6.18784">
        <ele>265.60000610352</ele>
        <time>2012-07-20T08:07:04.000Z</time>
      </trkpt>
      <trkpt lat="47.67995" lon="6.18779">
        <ele>265.60000610352</ele>
        <time>2012-07-20T08:07:11.000Z</time>
      </trkpt>
      <trkpt lat="47.68003" lon="6.18775">
        <ele>263.79998779297</ele>
        <time>2012-07-20T08:07:17.000Z</time>
      </trkpt>
      <trkpt lat="47.68004" lon="6.18774">
        <ele>264</ele>
        <time>2012-07-20T08:07:18.000Z</time>
      </trkpt>
      <trkpt lat="47.68032" lon="6.18765">
        <ele>268.20001220703</ele>
        <time>2012-07-20T08:08:24.000Z</time>
      </trkpt>
      <trkpt lat="47.68036" lon="6.18764">
        <ele>268.20001220703</ele>
        <time>2012-07-20T08:08:27.000Z</time>
      </trkpt>
      <trkpt lat="47.68043" lon="6.18756">
        <ele>268.20001220703</ele>
        <time>2012-07-20T08:08:32.000Z</time>
      </trkpt>
      <trkpt lat="47.68045" lon="6.18754">
        <ele>268.60000610352</ele>
        <time>2012-07-20T08:08:34.000Z</time>
      </trkpt>
      <trkpt lat="47.68047" lon="6.18753">
        <ele>269.39999389648</ele>
        <time>2012-07-20T08:08:35.000Z</time>
      </trkpt>
      <trkpt lat="47.68048" lon="6.18751">
        <ele>269.79998779297</ele>
        <time>2012-07-20T08:08:36.000Z</time>
      </trkpt>
      <trkpt lat="47.6805" lon="6.18751">
        <ele>270.20001220703</ele>
        <time>2012-07-20T08:08:37.000Z</time>
      </trkpt>
      <trkpt lat="47.68052" lon="6.1875">
        <ele>270.20001220703</ele>
        <time>2012-07-20T08:08:38.000Z</time>
      </trkpt>
      <trkpt lat="47.68052" lon="6.1875">
        <ele>270.20001220703</ele>
        <time>2012-07-20T08:08:39.000Z</time>
      </trkpt>
      <trkpt lat="47.68076" lon="6.18746">
        <ele>272.20001220703</ele>
        <time>2012-07-20T08:10:08.000Z</time>
      </trkpt>
      <trkpt lat="47.68077" lon="6.18751">
        <ele>272.20001220703</ele>
        <time>2012-07-20T08:10:10.000Z</time>
      </trkpt>
      <trkpt lat="47.68079" lon="6.18757">
        <ele>272.20001220703</ele>
        <time>2012-07-20T08:10:14.000Z</time>
      </trkpt>
      <trkpt lat="47.6808" lon="6.18761">
        <ele>272.60000610352</ele>
        <time>2012-07-20T08:10:16.000Z</time>
      </trkpt>
      <trkpt lat="47.68081" lon="6.18762">
        <ele>273</ele>
        <time>2012-07-20T08:10:17.000Z</time>
      </trkpt>
      <trkpt lat="47.68081" lon="6.18764">
        <ele>273.60000610352</ele>
        <time>2012-07-20T08:10:18.000Z</time>
      </trkpt>
      <trkpt lat="47.68082" lon="6.18766">
        <ele>274</ele>
        <time>2012-07-20T08:10:19.000Z</time>
      </trkpt>
      <trkpt lat="47.68083" lon="6.18768">
        <ele>274.39999389648</ele>
        <time>2012-07-20T08:10:20.000Z</time>
      </trkpt>
      <trkpt lat="47.68091" lon="6.18781">
        <ele>274.39999389648</ele>
        <time>2012-07-20T08:10:26.000Z</time>
      </trkpt>
      <trkpt lat="47.68094" lon="6.18787">
        <ele>274.79998779297</ele>
        <time>2012-07-20T08:10:29.000Z</time>
      </trkpt>
      <trkpt lat="47.68094" lon="6.18789">
        <ele>275.20001220703</ele>
        <time>2012-07-20T08:10:30.000Z</time>
      </trkpt>
      <trkpt lat="47.68094" lon="6.18791">
        <ele>275.60000610352</ele>
        <time>2012-07-20T08:10:31.000Z</time>
      </trkpt>
      <trkpt lat="47.68095" lon="6.18793">
        <ele>276</ele>
        <time>2012-07-20T08:10:32.000Z</time>
      </trkpt>
      <trkpt lat="47.68095" lon="6.18795">
        <ele>276.60000610352</ele>
        <time>2012-07-20T08:10:33.000Z</time>
      </trkpt>
      <trkpt lat="47.68097" lon="6.18799">
        <ele>276.60000610352</ele>
        <time>2012-07-20T08:10:35.000Z</time>
      </trkpt>
      <trkpt lat="47.68101" lon="6.1881">
        <ele>276.60000610352</ele>
        <time>2012-07-20T08:10:39.000Z</time>
      </trkpt>
      <trkpt lat="47.68102" lon="6.18813">
        <ele>277</ele>
        <time>2012-07-20T08:10:41.000Z</time>
      </trkpt>
      <trkpt lat="47.68102" lon="6.18814">
        <ele>277.39999389648</ele>
        <time>2012-07-20T08:10:42.000Z</time>
      </trkpt>
      <trkpt lat="47.68103" lon="6.18816">
        <ele>277.79998779297</ele>
        <time>2012-07-20T08:10:43.000Z</time>
      </trkpt>
      <trkpt lat="47.68103" lon="6.18817">
        <ele>278.20001220703</ele>
        <time>2012-07-20T08:10:44.000Z</time>
      </trkpt>
      <trkpt lat="47.68104" lon="6.18818">
        <ele>278.60000610352</ele>
        <time>2012-07-20T08:10:45.000Z</time>
      </trkpt>
      <trkpt lat="47.68104" lon="6.1882">
        <ele>278.60000610352</ele>
        <time>2012-07-20T08:10:46.000Z</time>
      </trkpt>
      <trkpt lat="47.68107" lon="6.18829">
        <ele>278.60000610352</ele>
        <time>2012-07-20T08:10:50.000Z</time>
      </trkpt>
      <trkpt lat="47.68111" lon="6.18838">
        <ele>279</ele>
        <time>2012-07-20T08:10:54.000Z</time>
      </trkpt>
      <trkpt lat="47.68112" lon="6.18841">
        <ele>279.39999389648</ele>
        <time>2012-07-20T08:10:55.000Z</time>
      </trkpt>
      <trkpt lat="47.68113" lon="6.18843">
        <ele>279.79998779297</ele>
        <time>2012-07-20T08:10:56.000Z</time>
      </trkpt>
      <trkpt lat="47.68113" lon="6.18845">
        <ele>280.39999389648</ele>
        <time>2012-07-20T08:10:57.000Z</time>
      </trkpt>
      <trkpt lat="47.68114" lon="6.18846">
        <ele>280.79998779297</ele>
        <time>2012-07-20T08:10:58.000Z</time>
      </trkpt>
      <trkpt lat="47.68116" lon="6.1885">
        <ele>280.79998779297</ele>
        <time>2012-07-20T08:11:00.000Z</time>
      </trkpt>
      <trkpt lat="47.68119" lon="6.18856">
        <ele>281.60000610352</ele>
        <time>2012-07-20T08:11:03.000Z</time>
      </trkpt>
      <trkpt lat="47.6812" lon="6.18858">
        <ele>282</ele>
        <time>2012-07-20T08:11:04.000Z</time>
      </trkpt>
      <trkpt lat="47.6812" lon="6.1886">
        <ele>282.39999389648</ele>
        <time>2012-07-20T08:11:05.000Z</time>
      </trkpt>
      <trkpt lat="47.68121" lon="6.18863">
        <ele>282.79998779297</ele>
        <time>2012-07-20T08:11:06.000Z</time>
      </trkpt>
      <trkpt lat="47.68123" lon="6.18871">
        <ele>282.79998779297</ele>
        <time>2012-07-20T08:11:11.000Z</time>
      </trkpt>
      <trkpt lat="47.68124" lon="6.18875">
        <ele>283.20001220703</ele>
        <time>2012-07-20T08:11:14.000Z</time>
      </trkpt>
      <trkpt lat="47.68124" lon="6.18877">
        <ele>283.60000610352</ele>
        <time>2012-07-20T08:11:15.000Z</time>
      </trkpt>
      <trkpt lat="47.68124" lon="6.18879">
        <ele>284</ele>
        <time>2012-07-20T08:11:16.000Z</time>
      </trkpt>
      <trkpt lat="47.68124" lon="6.1888">
        <ele>284.39999389648</ele>
        <time>2012-07-20T08:11:17.000Z</time>
      </trkpt>
      <trkpt lat="47.68124" lon="6.18882">
        <ele>284.79998779297</ele>
        <time>2012-07-20T08:11:18.000Z</time>
      </trkpt>
      <trkpt lat="47.68123" lon="6.18884">
        <ele>284.79998779297</ele>
        <time>2012-07-20T08:11:19.000Z</time>
      </trkpt>
      <trkpt lat="47.68121" lon="6.18888">
        <ele>284.79998779297</ele>
        <time>2012-07-20T08:11:22.000Z</time>
      </trkpt>
      <trkpt lat="47.68119" lon="6.18899">
        <ele>285.60000610352</ele>
        <time>2012-07-20T08:11:28.000Z</time>
      </trkpt>
      <trkpt lat="47.68119" lon="6.18901">
        <ele>286.20001220703</ele>
        <time>2012-07-20T08:11:29.000Z</time>
      </trkpt>
      <trkpt lat="47.6812" lon="6.18902">
        <ele>286.60000610352</ele>
        <time>2012-07-20T08:11:30.000Z</time>
      </trkpt>
      <trkpt lat="47.6812" lon="6.18904">
        <ele>287</ele>
        <time>2012-07-20T08:11:31.000Z</time>
      </trkpt>
      <trkpt lat="47.68121" lon="6.18908">
        <ele>287</ele>
        <time>2012-07-20T08:11:33.000Z</time>
      </trkpt>
      <trkpt lat="47.68123" lon="6.18913">
        <ele>287</ele>
        <time>2012-07-20T08:11:36.000Z</time>
      </trkpt>
      <trkpt lat="47.68126" lon="6.18918">
        <ele>287.39999389648</ele>
        <time>2012-07-20T08:11:38.000Z</time>
      </trkpt>
      <trkpt lat="47.68127" lon="6.1892">
        <ele>287.79998779297</ele>
        <time>2012-07-20T08:11:39.000Z</time>
      </trkpt>
      <trkpt lat="47.68128" lon="6.18922">
        <ele>288.20001220703</ele>
        <time>2012-07-20T08:11:40.000Z</time>
      </trkpt>
      <trkpt lat="47.68128" lon="6.18924">
        <ele>288.60000610352</ele>
        <time>2012-07-20T08:11:41.000Z</time>
      </trkpt>
      <trkpt lat="47.68129" lon="6.18926">
        <ele>289</ele>
        <time>2012-07-20T08:11:42.000Z</time>
      </trkpt>
      <trkpt lat="47.6813" lon="6.18928">
        <ele>289</ele>
        <time>2012-07-20T08:11:43.000Z</time>
      </trkpt>
      <trkpt lat="47.68132" lon="6.18936">
        <ele>289</ele>
        <time>2012-07-20T08:11:49.000Z</time>
      </trkpt>
      <trkpt lat="47.68132" lon="6.1894">
        <ele>289.39999389648</ele>
        <time>2012-07-20T08:11:51.000Z</time>
      </trkpt>
      <trkpt lat="47.68133" lon="6.18942">
        <ele>290.20001220703</ele>
        <time>2012-07-20T08:11:52.000Z</time>
      </trkpt>
      <trkpt lat="47.68133" lon="6.18944">
        <ele>290.60000610352</ele>
        <time>2012-07-20T08:11:53.000Z</time>
      </trkpt>
      <trkpt lat="47.68135" lon="6.18945">
        <ele>291</ele>
        <time>2012-07-20T08:11:54.000Z</time>
      </trkpt>
      <trkpt lat="47.68135" lon="6.18949">
        <ele>291</ele>
        <time>2012-07-20T08:11:56.000Z</time>
      </trkpt>
      <trkpt lat="47.6814" lon="6.18959">
        <ele>291.60000610352</ele>
        <time>2012-07-20T08:12:02.000Z</time>
      </trkpt>
      <trkpt lat="47.68141" lon="6.18961">
        <ele>292</ele>
        <time>2012-07-20T08:12:03.000Z</time>
      </trkpt>
      <trkpt lat="47.68143" lon="6.18962">
        <ele>292.39999389648</ele>
        <time>2012-07-20T08:12:04.000Z</time>
      </trkpt>
      <trkpt lat="47.68144" lon="6.18964">
        <ele>292.79998779297</ele>
        <time>2012-07-20T08:12:05.000Z</time>
      </trkpt>
      <trkpt lat="47.68146" lon="6.18966">
        <ele>293.20001220703</ele>
        <time>2012-07-20T08:12:06.000Z</time>
      </trkpt>
      <trkpt lat="47.68147" lon="6.18972">
        <ele>293.20001220703</ele>
        <time>2012-07-20T08:12:09.000Z</time>
      </trkpt>
      <trkpt lat="47.68148" lon="6.1898">
        <ele>293.60000610352</ele>
        <time>2012-07-20T08:12:14.000Z</time>
      </trkpt>
      <trkpt lat="47.68149" lon="6.18982">
        <ele>294</ele>
        <time>2012-07-20T08:12:15.000Z</time>
      </trkpt>
      <trkpt lat="47.68149" lon="6.18983">
        <ele>294.39999389648</ele>
        <time>2012-07-20T08:12:16.000Z</time>
      </trkpt>
      <trkpt lat="47.68149" lon="6.18985">
        <ele>295.20001220703</ele>
        <time>2012-07-20T08:12:17.000Z</time>
      </trkpt>
      <trkpt lat="47.6815" lon="6.18989">
        <ele>295.20001220703</ele>
        <time>2012-07-20T08:12:19.000Z</time>
      </trkpt>
      <trkpt lat="47.68154" lon="6.18995">
        <ele>295.20001220703</ele>
        <time>2012-07-20T08:12:23.000Z</time>
      </trkpt>
      <trkpt lat="47.68153" lon="6.19004">
        <ele>295.79998779297</ele>
        <time>2012-07-20T08:12:28.000Z</time>
      </trkpt>
      <trkpt lat="47.68153" lon="6.19006">
        <ele>296.20001220703</ele>
        <time>2012-07-20T08:12:29.000Z</time>
      </trkpt>
      <trkpt lat="47.68153" lon="6.19007">
        <ele>296.60000610352</ele>
        <time>2012-07-20T08:12:30.000Z</time>
      </trkpt>
      <trkpt lat="47.68152" lon="6.19009">
        <ele>297</ele>
        <time>2012-07-20T08:12:31.000Z</time>
      </trkpt>
      <trkpt lat="47.68152" lon="6.1901">
        <ele>297.39999389648</ele>
        <time>2012-07-20T08:12:32.000Z</time>
      </trkpt>
      <trkpt lat="47.6815" lon="6.19014">
        <ele>297.39999389648</ele>
        <time>2012-07-20T08:12:34.000Z</time>
      </trkpt>
      <trkpt lat="47.6815" lon="6.19015">
        <ele>297.39999389648</ele>
        <time>2012-07-20T08:12:35.000Z</time>
      </trkpt>
      <trkpt lat="47.68152" lon="6.1902">
        <ele>297.39999389648</ele>
        <time>2012-07-20T08:12:39.000Z</time>
      </trkpt>
      <trkpt lat="47.68154" lon="6.19019">
        <ele>297.39999389648</ele>
        <time>2012-07-20T08:14:30.000Z</time>
      </trkpt>
      <trkpt lat="47.68162" lon="6.19018">
        <ele>297.39999389648</ele>
        <time>2012-07-20T08:14:35.000Z</time>
      </trkpt>
      <trkpt lat="47.68166" lon="6.19026">
        <ele>297.39999389648</ele>
        <time>2012-07-20T08:14:39.000Z</time>
      </trkpt>
      <trkpt lat="47.68166" lon="6.19028">
        <ele>297.39999389648</ele>
        <time>2012-07-20T08:14:40.000Z</time>
      </trkpt>
      <trkpt lat="47.68165" lon="6.19037">
        <ele>297.79998779297</ele>
        <time>2012-07-20T08:14:44.000Z</time>
      </trkpt>
      <trkpt lat="47.68166" lon="6.19039">
        <ele>298.20001220703</ele>
        <time>2012-07-20T08:14:45.000Z</time>
      </trkpt>
      <trkpt lat="47.68167" lon="6.19041">
        <ele>299</ele>
        <time>2012-07-20T08:14:46.000Z</time>
      </trkpt>
      <trkpt lat="47.68168" lon="6.19043">
        <ele>299.39999389648</ele>
        <time>2012-07-20T08:14:47.000Z</time>
      </trkpt>
      <trkpt lat="47.68171" lon="6.19054">
        <ele>299.39999389648</ele>
        <time>2012-07-20T08:14:53.000Z</time>
      </trkpt>
      <trkpt lat="47.68175" lon="6.19068">
        <ele>299.39999389648</ele>
        <time>2012-07-20T08:15:00.000Z</time>
      </trkpt>
      <trkpt lat="47.68176" lon="6.1907">
        <ele>299.79998779297</ele>
        <time>2012-07-20T08:15:01.000Z</time>
      </trkpt>
      <trkpt lat="47.68176" lon="6.19072">
        <ele>300.20001220703</ele>
        <time>2012-07-20T08:15:02.000Z</time>
      </trkpt>
      <trkpt lat="47.68177" lon="6.19074">
        <ele>300.60000610352</ele>
        <time>2012-07-20T08:15:03.000Z</time>
      </trkpt>
      <trkpt lat="47.68178" lon="6.19076">
        <ele>301</ele>
        <time>2012-07-20T08:15:04.000Z</time>
      </trkpt>
      <trkpt lat="47.68179" lon="6.19078">
        <ele>301.60000610352</ele>
        <time>2012-07-20T08:15:05.000Z</time>
      </trkpt>
      <trkpt lat="47.6818" lon="6.19083">
        <ele>301.60000610352</ele>
        <time>2012-07-20T08:15:07.000Z</time>
      </trkpt>
      <trkpt lat="47.6818" lon="6.19085">
        <ele>301.60000610352</ele>
        <time>2012-07-20T08:15:08.000Z</time>
      </trkpt>
      <trkpt lat="47.68182" lon="6.19096">
        <ele>301.60000610352</ele>
        <time>2012-07-20T08:15:13.000Z</time>
      </trkpt>
      <trkpt lat="47.68182" lon="6.19098">
        <ele>301.60000610352</ele>
        <time>2012-07-20T08:15:14.000Z</time>
      </trkpt>
      <trkpt lat="47.68186" lon="6.19113">
        <ele>301.60000610352</ele>
        <time>2012-07-20T08:15:21.000Z</time>
      </trkpt>
      <trkpt lat="47.68191" lon="6.19128">
        <ele>301.60000610352</ele>
        <time>2012-07-20T08:15:28.000Z</time>
      </trkpt>
      <trkpt lat="47.68193" lon="6.19142">
        <ele>301.60000610352</ele>
        <time>2012-07-20T08:15:33.000Z</time>
      </trkpt>
      <trkpt lat="47.68198" lon="6.1916">
        <ele>301.60000610352</ele>
        <time>2012-07-20T08:15:39.000Z</time>
      </trkpt>
      <trkpt lat="47.68205" lon="6.19182">
        <ele>301.60000610352</ele>
        <time>2012-07-20T08:15:46.000Z</time>
      </trkpt>
      <trkpt lat="47.68212" lon="6.19203">
        <ele>301.60000610352</ele>
        <time>2012-07-20T08:15:53.000Z</time>
      </trkpt>
      <trkpt lat="47.68219" lon="6.19222">
        <ele>301.60000610352</ele>
        <time>2012-07-20T08:15:59.000Z</time>
      </trkpt>
      <trkpt lat="47.68223" lon="6.19236">
        <ele>301.60000610352</ele>
        <time>2012-07-20T08:16:04.000Z</time>
      </trkpt>
      <trkpt lat="47.68225" lon="6.19241">
        <ele>301.60000610352</ele>
        <time>2012-07-20T08:16:06.000Z</time>
      </trkpt>
      <trkpt lat="47.68233" lon="6.19267">
        <ele>301.60000610352</ele>
        <time>2012-07-20T08:16:13.000Z</time>
      </trkpt>
      <trkpt lat="47.68244" lon="6.19301">
        <ele>301.60000610352</ele>
        <time>2012-07-20T08:16:20.000Z</time>
      </trkpt>
      <trkpt lat="47.68248" lon="6.19318">
        <ele>301.60000610352</ele>
        <time>2012-07-20T08:16:25.000Z</time>
      </trkpt>
      <trkpt lat="47.68248" lon="6.19319">
        <ele>301.60000610352</ele>
        <time>2012-07-20T08:16:26.000Z</time>
      </trkpt>
      <trkpt lat="47.68249" lon="6.19323">
        <ele>299.39999389648</ele>
        <time>2012-07-20T08:16:39.000Z</time>
      </trkpt>
      <trkpt lat="47.6825" lon="6.19325">
        <ele>299.39999389648</ele>
        <time>2012-07-20T08:16:40.000Z</time>
      </trkpt>
      <trkpt lat="47.68255" lon="6.19341">
        <ele>299.39999389648</ele>
        <time>2012-07-20T08:16:44.000Z</time>
      </trkpt>
      <trkpt lat="47.68256" lon="6.19344">
        <ele>299.39999389648</ele>
        <time>2012-07-20T08:16:45.000Z</time>
      </trkpt>
      <trkpt lat="47.68262" lon="6.19364">
        <ele>299.39999389648</ele>
        <time>2012-07-20T08:16:50.000Z</time>
      </trkpt>
      <trkpt lat="47.68266" lon="6.19383">
        <ele>299.39999389648</ele>
        <time>2012-07-20T08:16:55.000Z</time>
      </trkpt>
      <trkpt lat="47.68274" lon="6.19403">
        <ele>299.39999389648</ele>
        <time>2012-07-20T08:17:01.000Z</time>
      </trkpt>
      <trkpt lat="47.6828" lon="6.1941">
        <ele>299.39999389648</ele>
        <time>2012-07-20T08:17:04.000Z</time>
      </trkpt>
      <trkpt lat="47.68287" lon="6.19415">
        <ele>299.39999389648</ele>
        <time>2012-07-20T08:17:07.000Z</time>
      </trkpt>
      <trkpt lat="47.68298" lon="6.19419">
        <ele>299.39999389648</ele>
        <time>2012-07-20T08:17:12.000Z</time>
      </trkpt>
      <trkpt lat="47.68314" lon="6.19416">
        <ele>299.39999389648</ele>
        <time>2012-07-20T08:17:19.000Z</time>
      </trkpt>
      <trkpt lat="47.6833" lon="6.19412">
        <ele>299</ele>
        <time>2012-07-20T08:17:25.000Z</time>
      </trkpt>
      <trkpt lat="47.68333" lon="6.19412">
        <ele>298.39999389648</ele>
        <time>2012-07-20T08:17:26.000Z</time>
      </trkpt>
      <trkpt lat="47.68339" lon="6.19411">
        <ele>298</ele>
        <time>2012-07-20T08:17:27.000Z</time>
      </trkpt>
      <trkpt lat="47.68345" lon="6.19412">
        <ele>297.39999389648</ele>
        <time>2012-07-20T08:17:28.000Z</time>
      </trkpt>
      <trkpt lat="47.68354" lon="6.19414">
        <ele>297</ele>
        <time>2012-07-20T08:17:29.000Z</time>
      </trkpt>
      <trkpt lat="47.68369" lon="6.19424">
        <ele>296.39999389648</ele>
        <time>2012-07-20T08:17:31.000Z</time>
      </trkpt>
      <trkpt lat="47.68376" lon="6.19429">
        <ele>296</ele>
        <time>2012-07-20T08:17:32.000Z</time>
      </trkpt>
      <trkpt lat="47.68384" lon="6.19433">
        <ele>295.39999389648</ele>
        <time>2012-07-20T08:17:33.000Z</time>
      </trkpt>
      <trkpt lat="47.68391" lon="6.19438">
        <ele>295</ele>
        <time>2012-07-20T08:17:34.000Z</time>
      </trkpt>
      <trkpt lat="47.68397" lon="6.19443">
        <ele>294.39999389648</ele>
        <time>2012-07-20T08:17:35.000Z</time>
      </trkpt>
      <trkpt lat="47.68415" lon="6.19461">
        <ele>294</ele>
        <time>2012-07-20T08:17:39.000Z</time>
      </trkpt>
      <trkpt lat="47.68419" lon="6.19465">
        <ele>293.60000610352</ele>
        <time>2012-07-20T08:17:40.000Z</time>
      </trkpt>
      <trkpt lat="47.68423" lon="6.1947">
        <ele>293.20001220703</ele>
        <time>2012-07-20T08:17:41.000Z</time>
      </trkpt>
      <trkpt lat="47.68426" lon="6.19474">
        <ele>292.79998779297</ele>
        <time>2012-07-20T08:17:42.000Z</time>
      </trkpt>
      <trkpt lat="47.68429" lon="6.19478">
        <ele>292.20001220703</ele>
        <time>2012-07-20T08:17:43.000Z</time>
      </trkpt>
      <trkpt lat="47.68432" lon="6.19482">
        <ele>291.79998779297</ele>
        <time>2012-07-20T08:17:44.000Z</time>
      </trkpt>
      <trkpt lat="47.68435" lon="6.19486">
        <ele>291.39999389648</ele>
        <time>2012-07-20T08:17:45.000Z</time>
      </trkpt>
      <trkpt lat="47.68439" lon="6.19491">
        <ele>291</ele>
        <time>2012-07-20T08:17:46.000Z</time>
      </trkpt>
      <trkpt lat="47.68442" lon="6.19496">
        <ele>290.60000610352</ele>
        <time>2012-07-20T08:17:47.000Z</time>
      </trkpt>
      <trkpt lat="47.68446" lon="6.19502">
        <ele>290</ele>
        <time>2012-07-20T08:17:48.000Z</time>
      </trkpt>
      <trkpt lat="47.6845" lon="6.19507">
        <ele>289.60000610352</ele>
        <time>2012-07-20T08:17:49.000Z</time>
      </trkpt>
      <trkpt lat="47.68454" lon="6.19513">
        <ele>289</ele>
        <time>2012-07-20T08:17:50.000Z</time>
      </trkpt>
      <trkpt lat="47.68459" lon="6.19519">
        <ele>288.39999389648</ele>
        <time>2012-07-20T08:17:51.000Z</time>
      </trkpt>
      <trkpt lat="47.68464" lon="6.19524">
        <ele>287.79998779297</ele>
        <time>2012-07-20T08:17:52.000Z</time>
      </trkpt>
      <trkpt lat="47.68469" lon="6.1953">
        <ele>287</ele>
        <time>2012-07-20T08:17:53.000Z</time>
      </trkpt>
      <trkpt lat="47.68474" lon="6.19535">
        <ele>286.39999389648</ele>
        <time>2012-07-20T08:17:54.000Z</time>
      </trkpt>
      <trkpt lat="47.6848" lon="6.1954">
        <ele>285.79998779297</ele>
        <time>2012-07-20T08:17:55.000Z</time>
      </trkpt>
      <trkpt lat="47.68485" lon="6.19544">
        <ele>285</ele>
        <time>2012-07-20T08:17:56.000Z</time>
      </trkpt>
      <trkpt lat="47.6849" lon="6.19549">
        <ele>284.20001220703</ele>
        <time>2012-07-20T08:17:57.000Z</time>
      </trkpt>
      <trkpt lat="47.68495" lon="6.19554">
        <ele>283.39999389648</ele>
        <time>2012-07-20T08:17:58.000Z</time>
      </trkpt>
      <trkpt lat="47.685" lon="6.19559">
        <ele>282.60000610352</ele>
        <time>2012-07-20T08:17:59.000Z</time>
      </trkpt>
      <trkpt lat="47.68505" lon="6.19563">
        <ele>281.79998779297</ele>
        <time>2012-07-20T08:18:00.000Z</time>
      </trkpt>
      <trkpt lat="47.6851" lon="6.19569">
        <ele>281.20001220703</ele>
        <time>2012-07-20T08:18:01.000Z</time>
      </trkpt>
      <trkpt lat="47.68515" lon="6.19574">
        <ele>280.39999389648</ele>
        <time>2012-07-20T08:18:02.000Z</time>
      </trkpt>
      <trkpt lat="47.6852" lon="6.19579">
        <ele>278.79998779297</ele>
        <time>2012-07-20T08:18:03.000Z</time>
      </trkpt>
      <trkpt lat="47.68525" lon="6.19585">
        <ele>278</ele>
        <time>2012-07-20T08:18:04.000Z</time>
      </trkpt>
      <trkpt lat="47.6853" lon="6.19591">
        <ele>277.20001220703</ele>
        <time>2012-07-20T08:18:05.000Z</time>
      </trkpt>
      <trkpt lat="47.68535" lon="6.19597">
        <ele>276.39999389648</ele>
        <time>2012-07-20T08:18:06.000Z</time>
      </trkpt>
      <trkpt lat="47.68541" lon="6.19603">
        <ele>275.79998779297</ele>
        <time>2012-07-20T08:18:07.000Z</time>
      </trkpt>
      <trkpt lat="47.68546" lon="6.19609">
        <ele>275.20001220703</ele>
        <time>2012-07-20T08:18:08.000Z</time>
      </trkpt>
      <trkpt lat="47.68551" lon="6.19616">
        <ele>274.39999389648</ele>
        <time>2012-07-20T08:18:09.000Z</time>
      </trkpt>
      <trkpt lat="47.68556" lon="6.19621">
        <ele>273.79998779297</ele>
        <time>2012-07-20T08:18:10.000Z</time>
      </trkpt>
      <trkpt lat="47.68561" lon="6.19627">
        <ele>273</ele>
        <time>2012-07-20T08:18:11.000Z</time>
      </trkpt>
      <trkpt lat="47.68566" lon="6.19631">
        <ele>272.20001220703</ele>
        <time>2012-07-20T08:18:12.000Z</time>
      </trkpt>
      <trkpt lat="47.68571" lon="6.19636">
        <ele>271.60000610352</ele>
        <time>2012-07-20T08:18:13.000Z</time>
      </trkpt>
      <trkpt lat="47.68576" lon="6.19641">
        <ele>270.79998779297</ele>
        <time>2012-07-20T08:18:14.000Z</time>
      </trkpt>
      <trkpt lat="47.6858" lon="6.19646">
        <ele>270.20001220703</ele>
        <time>2012-07-20T08:18:15.000Z</time>
      </trkpt>
      <trkpt lat="47.68585" lon="6.19651">
        <ele>269.39999389648</ele>
        <time>2012-07-20T08:18:16.000Z</time>
      </trkpt>
      <trkpt lat="47.68589" lon="6.19655">
        <ele>268.60000610352</ele>
        <time>2012-07-20T08:18:17.000Z</time>
      </trkpt>
      <trkpt lat="47.68594" lon="6.19658">
        <ele>268</ele>
        <time>2012-07-20T08:18:18.000Z</time>
      </trkpt>
      <trkpt lat="47.68598" lon="6.19661">
        <ele>267.20001220703</ele>
        <time>2012-07-20T08:18:19.000Z</time>
      </trkpt>
      <trkpt lat="47.68602" lon="6.19663">
        <ele>266.60000610352</ele>
        <time>2012-07-20T08:18:20.000Z</time>
      </trkpt>
      <trkpt lat="47.68606" lon="6.19665">
        <ele>265.79998779297</ele>
        <time>2012-07-20T08:18:21.000Z</time>
      </trkpt>
      <trkpt lat="47.68611" lon="6.19666">
        <ele>265.20001220703</ele>
        <time>2012-07-20T08:18:22.000Z</time>
      </trkpt>
      <trkpt lat="47.68615" lon="6.19667">
        <ele>264.60000610352</ele>
        <time>2012-07-20T08:18:23.000Z</time>
      </trkpt>
      <trkpt lat="47.6862" lon="6.1967">
        <ele>263.79998779297</ele>
        <time>2012-07-20T08:18:24.000Z</time>
      </trkpt>
      <trkpt lat="47.68624" lon="6.19672">
        <ele>263.20001220703</ele>
        <time>2012-07-20T08:18:25.000Z</time>
      </trkpt>
      <trkpt lat="47.68629" lon="6.19673">
        <ele>262.39999389648</ele>
        <time>2012-07-20T08:18:26.000Z</time>
      </trkpt>
      <trkpt lat="47.68635" lon="6.19674">
        <ele>262</ele>
        <time>2012-07-20T08:18:27.000Z</time>
      </trkpt>
      <trkpt lat="47.68641" lon="6.19676">
        <ele>260.79998779297</ele>
        <time>2012-07-20T08:18:28.000Z</time>
      </trkpt>
      <trkpt lat="47.68647" lon="6.19677">
        <ele>260.20001220703</ele>
        <time>2012-07-20T08:18:29.000Z</time>
      </trkpt>
      <trkpt lat="47.68653" lon="6.19679">
        <ele>259.60000610352</ele>
        <time>2012-07-20T08:18:30.000Z</time>
      </trkpt>
      <trkpt lat="47.6866" lon="6.1968">
        <ele>258.79998779297</ele>
        <time>2012-07-20T08:18:31.000Z</time>
      </trkpt>
      <trkpt lat="47.68666" lon="6.19681">
        <ele>258.20001220703</ele>
        <time>2012-07-20T08:18:32.000Z</time>
      </trkpt>
      <trkpt lat="47.68673" lon="6.19682">
        <ele>257.60000610352</ele>
        <time>2012-07-20T08:18:33.000Z</time>
      </trkpt>
      <trkpt lat="47.6868" lon="6.19684">
        <ele>257</ele>
        <time>2012-07-20T08:18:34.000Z</time>
      </trkpt>
      <trkpt lat="47.68687" lon="6.19684">
        <ele>256.20001220703</ele>
        <time>2012-07-20T08:18:35.000Z</time>
      </trkpt>
      <trkpt lat="47.68693" lon="6.19684">
        <ele>255.60000610352</ele>
        <time>2012-07-20T08:18:36.000Z</time>
      </trkpt>
      <trkpt lat="47.68699" lon="6.19684">
        <ele>255</ele>
        <time>2012-07-20T08:18:37.000Z</time>
      </trkpt>
      <trkpt lat="47.68707" lon="6.19684">
        <ele>254.39999389648</ele>
        <time>2012-07-20T08:18:38.000Z</time>
      </trkpt>
      <trkpt lat="47.68715" lon="6.19683">
        <ele>253.80000305176</ele>
        <time>2012-07-20T08:18:39.000Z</time>
      </trkpt>
      <trkpt lat="47.68723" lon="6.19682">
        <ele>253.19999694824</ele>
        <time>2012-07-20T08:18:40.000Z</time>
      </trkpt>
      <trkpt lat="47.68731" lon="6.19681">
        <ele>252.80000305176</ele>
        <time>2012-07-20T08:18:41.000Z</time>
      </trkpt>
      <trkpt lat="47.68738" lon="6.1968">
        <ele>252.19999694824</ele>
        <time>2012-07-20T08:18:42.000Z</time>
      </trkpt>
      <trkpt lat="47.68745" lon="6.19678">
        <ele>251.60000610352</ele>
        <time>2012-07-20T08:18:43.000Z</time>
      </trkpt>
      <trkpt lat="47.68752" lon="6.19677">
        <ele>251</ele>
        <time>2012-07-20T08:18:44.000Z</time>
      </trkpt>
      <trkpt lat="47.68759" lon="6.19675">
        <ele>250.39999389648</ele>
        <time>2012-07-20T08:18:45.000Z</time>
      </trkpt>
      <trkpt lat="47.68785" lon="6.19672">
        <ele>250.39999389648</ele>
        <time>2012-07-20T08:18:49.000Z</time>
      </trkpt>
      <trkpt lat="47.6881" lon="6.19668">
        <ele>250.39999389648</ele>
        <time>2012-07-20T08:18:54.000Z</time>
      </trkpt>
      <trkpt lat="47.68836" lon="6.19659">
        <ele>250.39999389648</ele>
        <time>2012-07-20T08:19:01.000Z</time>
      </trkpt>
      <trkpt lat="47.68857" lon="6.19653">
        <ele>250.39999389648</ele>
        <time>2012-07-20T08:19:08.000Z</time>
      </trkpt>
      <trkpt lat="47.68859" lon="6.19652">
        <ele>250.80000305176</ele>
        <time>2012-07-20T08:19:09.000Z</time>
      </trkpt>
      <trkpt lat="47.6886" lon="6.19651">
        <ele>251.39999389648</ele>
        <time>2012-07-20T08:19:10.000Z</time>
      </trkpt>
      <trkpt lat="47.68861" lon="6.1965">
        <ele>251.80000305176</ele>
        <time>2012-07-20T08:19:11.000Z</time>
      </trkpt>
      <trkpt lat="47.68862" lon="6.19649">
        <ele>252.19999694824</ele>
        <time>2012-07-20T08:19:12.000Z</time>
      </trkpt>
      <trkpt lat="47.68864" lon="6.19648">
        <ele>252.60000610352</ele>
        <time>2012-07-20T08:19:13.000Z</time>
      </trkpt>
      <trkpt lat="47.68864" lon="6.19648">
        <ele>252.60000610352</ele>
        <time>2012-07-20T08:19:14.000Z</time>
      </trkpt>
      <trkpt lat="47.68864" lon="6.19648">
        <ele>252.60000610352</ele>
        <time>2012-07-20T08:19:15.000Z</time>
      </trkpt>
      <trkpt lat="47.68867" lon="6.19645">
        <ele>252.60000610352</ele>
        <time>2012-07-20T08:19:49.000Z</time>
      </trkpt>
      <trkpt lat="47.6887" lon="6.19643">
        <ele>252.60000610352</ele>
        <time>2012-07-20T08:19:51.000Z</time>
      </trkpt>
      <trkpt lat="47.68883" lon="6.19639">
        <ele>252.60000610352</ele>
        <time>2012-07-20T08:19:57.000Z</time>
      </trkpt>
      <trkpt lat="47.68887" lon="6.19639">
        <ele>253.19999694824</ele>
        <time>2012-07-20T08:19:59.000Z</time>
      </trkpt>
      <trkpt lat="47.6889" lon="6.19639">
        <ele>253.60000610352</ele>
        <time>2012-07-20T08:20:00.000Z</time>
      </trkpt>
      <trkpt lat="47.68892" lon="6.19639">
        <ele>254</ele>
        <time>2012-07-20T08:20:01.000Z</time>
      </trkpt>
      <trkpt lat="47.68894" lon="6.19638">
        <ele>254.60000610352</ele>
        <time>2012-07-20T08:20:02.000Z</time>
      </trkpt>
      <trkpt lat="47.68897" lon="6.19638">
        <ele>255</ele>
        <time>2012-07-20T08:20:03.000Z</time>
      </trkpt>
      <trkpt lat="47.68909" lon="6.19639">
        <ele>255</ele>
        <time>2012-07-20T08:20:07.000Z</time>
      </trkpt>
      <trkpt lat="47.68927" lon="6.19648">
        <ele>255</ele>
        <time>2012-07-20T08:20:13.000Z</time>
      </trkpt>
      <trkpt lat="47.68945" lon="6.19663">
        <ele>255</ele>
        <time>2012-07-20T08:20:20.000Z</time>
      </trkpt>
      <trkpt lat="47.68963" lon="6.1967">
        <ele>255</ele>
        <time>2012-07-20T08:20:26.000Z</time>
      </trkpt>
      <trkpt lat="47.68988" lon="6.19666">
        <ele>255</ele>
        <time>2012-07-20T08:20:32.000Z</time>
      </trkpt>
      <trkpt lat="47.69008" lon="6.19661">
        <ele>254.60000610352</ele>
        <time>2012-07-20T08:20:36.000Z</time>
      </trkpt>
      <trkpt lat="47.69013" lon="6.1966">
        <ele>254.19999694824</ele>
        <time>2012-07-20T08:20:37.000Z</time>
      </trkpt>
      <trkpt lat="47.69019" lon="6.19658">
        <ele>253.80000305176</ele>
        <time>2012-07-20T08:20:38.000Z</time>
      </trkpt>
      <trkpt lat="47.69026" lon="6.19657">
        <ele>253.39999389648</ele>
        <time>2012-07-20T08:20:39.000Z</time>
      </trkpt>
      <trkpt lat="47.69033" lon="6.19655">
        <ele>252.80000305176</ele>
        <time>2012-07-20T08:20:40.000Z</time>
      </trkpt>
      <trkpt lat="47.69039" lon="6.19653">
        <ele>252.80000305176</ele>
        <time>2012-07-20T08:20:41.000Z</time>
      </trkpt>
      <trkpt lat="47.69046" lon="6.1965">
        <ele>252.39999389648</ele>
        <time>2012-07-20T08:20:42.000Z</time>
      </trkpt>
      <trkpt lat="47.69053" lon="6.19649">
        <ele>252</ele>
        <time>2012-07-20T08:20:43.000Z</time>
      </trkpt>
      <trkpt lat="47.69061" lon="6.19647">
        <ele>251.60000610352</ele>
        <time>2012-07-20T08:20:44.000Z</time>
      </trkpt>
      <trkpt lat="47.69068" lon="6.19646">
        <ele>251</ele>
        <time>2012-07-20T08:20:45.000Z</time>
      </trkpt>
      <trkpt lat="47.69076" lon="6.19645">
        <ele>250.60000610352</ele>
        <time>2012-07-20T08:20:46.000Z</time>
      </trkpt>
      <trkpt lat="47.69098" lon="6.19639">
        <ele>250.19999694824</ele>
        <time>2012-07-20T08:20:49.000Z</time>
      </trkpt>
      <trkpt lat="47.69105" lon="6.19636">
        <ele>249.80000305176</ele>
        <time>2012-07-20T08:20:50.000Z</time>
      </trkpt>
      <trkpt lat="47.69111" lon="6.19634">
        <ele>249.19999694824</ele>
        <time>2012-07-20T08:20:51.000Z</time>
      </trkpt>
      <trkpt lat="47.69117" lon="6.19632">
        <ele>248.80000305176</ele>
        <time>2012-07-20T08:20:52.000Z</time>
      </trkpt>
      <trkpt lat="47.69123" lon="6.1963">
        <ele>248.39999389648</ele>
        <time>2012-07-20T08:20:53.000Z</time>
      </trkpt>
      <trkpt lat="47.69129" lon="6.19627">
        <ele>248.39999389648</ele>
        <time>2012-07-20T08:20:54.000Z</time>
      </trkpt>
      <trkpt lat="47.69139" lon="6.19624">
        <ele>247.80000305176</ele>
        <time>2012-07-20T08:20:56.000Z</time>
      </trkpt>
      <trkpt lat="47.69145" lon="6.19622">
        <ele>247.39999389648</ele>
        <time>2012-07-20T08:20:57.000Z</time>
      </trkpt>
      <trkpt lat="47.6915" lon="6.19619">
        <ele>247</ele>
        <time>2012-07-20T08:20:58.000Z</time>
      </trkpt>
      <trkpt lat="47.69155" lon="6.19617">
        <ele>246.60000610352</ele>
        <time>2012-07-20T08:20:59.000Z</time>
      </trkpt>
      <trkpt lat="47.69161" lon="6.19615">
        <ele>246</ele>
        <time>2012-07-20T08:21:00.000Z</time>
      </trkpt>
      <trkpt lat="47.69167" lon="6.19612">
        <ele>246</ele>
        <time>2012-07-20T08:21:01.000Z</time>
      </trkpt>
      <trkpt lat="47.69179" lon="6.19607">
        <ele>245.60000610352</ele>
        <time>2012-07-20T08:21:03.000Z</time>
      </trkpt>
      <trkpt lat="47.69186" lon="6.19604">
        <ele>245.19999694824</ele>
        <time>2012-07-20T08:21:04.000Z</time>
      </trkpt>
      <trkpt lat="47.69192" lon="6.19602">
        <ele>244.80000305176</ele>
        <time>2012-07-20T08:21:05.000Z</time>
      </trkpt>
      <trkpt lat="47.69198" lon="6.19599">
        <ele>244.19999694824</ele>
        <time>2012-07-20T08:21:06.000Z</time>
      </trkpt>
      <trkpt lat="47.69205" lon="6.19597">
        <ele>243.80000305176</ele>
        <time>2012-07-20T08:21:07.000Z</time>
      </trkpt>
      <trkpt lat="47.69212" lon="6.19595">
        <ele>243.80000305176</ele>
        <time>2012-07-20T08:21:08.000Z</time>
      </trkpt>
      <trkpt lat="47.69219" lon="6.19592">
        <ele>243.39999389648</ele>
        <time>2012-07-20T08:21:09.000Z</time>
      </trkpt>
      <trkpt lat="47.69226" lon="6.1959">
        <ele>243</ele>
        <time>2012-07-20T08:21:10.000Z</time>
      </trkpt>
      <trkpt lat="47.69233" lon="6.19587">
        <ele>242.39999389648</ele>
        <time>2012-07-20T08:21:11.000Z</time>
      </trkpt>
      <trkpt lat="47.6924" lon="6.19585">
        <ele>242</ele>
        <time>2012-07-20T08:21:12.000Z</time>
      </trkpt>
      <trkpt lat="47.69246" lon="6.19582">
        <ele>241.39999389648</ele>
        <time>2012-07-20T08:21:13.000Z</time>
      </trkpt>
      <trkpt lat="47.69253" lon="6.19579">
        <ele>241.39999389648</ele>
        <time>2012-07-20T08:21:14.000Z</time>
      </trkpt>
      <trkpt lat="47.69265" lon="6.19572">
        <ele>241</ele>
        <time>2012-07-20T08:21:17.000Z</time>
      </trkpt>
      <trkpt lat="47.69271" lon="6.19569">
        <ele>240.60000610352</ele>
        <time>2012-07-20T08:21:18.000Z</time>
      </trkpt>
      <trkpt lat="47.69277" lon="6.19566">
        <ele>240.19999694824</ele>
        <time>2012-07-20T08:21:19.000Z</time>
      </trkpt>
      <trkpt lat="47.69283" lon="6.19563">
        <ele>239.80000305176</ele>
        <time>2012-07-20T08:21:20.000Z</time>
      </trkpt>
      <trkpt lat="47.6929" lon="6.1956">
        <ele>239.39999389648</ele>
        <time>2012-07-20T08:21:21.000Z</time>
      </trkpt>
      <trkpt lat="47.69307" lon="6.19548">
        <ele>239.39999389648</ele>
        <time>2012-07-20T08:21:24.000Z</time>
      </trkpt>
      <trkpt lat="47.69341" lon="6.1952">
        <ele>239.39999389648</ele>
        <time>2012-07-20T08:21:31.000Z</time>
      </trkpt>
      <trkpt lat="47.69366" lon="6.19499">
        <ele>239.39999389648</ele>
        <time>2012-07-20T08:21:37.000Z</time>
      </trkpt>
      <trkpt lat="47.69386" lon="6.1948">
        <ele>239.39999389648</ele>
        <time>2012-07-20T08:21:42.000Z</time>
      </trkpt>
      <trkpt lat="47.69394" lon="6.19473">
        <ele>239.39999389648</ele>
        <time>2012-07-20T08:21:44.000Z</time>
      </trkpt>
      <trkpt lat="47.69414" lon="6.19452">
        <ele>239.39999389648</ele>
        <time>2012-07-20T08:21:50.000Z</time>
      </trkpt>
      <trkpt lat="47.69427" lon="6.19434">
        <ele>239.39999389648</ele>
        <time>2012-07-20T08:21:56.000Z</time>
      </trkpt>
      <trkpt lat="47.69435" lon="6.19408">
        <ele>239.39999389648</ele>
        <time>2012-07-20T08:22:04.000Z</time>
      </trkpt>
      <trkpt lat="47.69441" lon="6.19385">
        <ele>239.39999389648</ele>
        <time>2012-07-20T08:22:12.000Z</time>
      </trkpt>
      <trkpt lat="47.69448" lon="6.19371">
        <ele>239.80000305176</ele>
        <time>2012-07-20T08:22:18.000Z</time>
      </trkpt>
      <trkpt lat="47.6945" lon="6.19369">
        <ele>240.19999694824</ele>
        <time>2012-07-20T08:22:19.000Z</time>
      </trkpt>
      <trkpt lat="47.69451" lon="6.19367">
        <ele>240.60000610352</ele>
        <time>2012-07-20T08:22:20.000Z</time>
      </trkpt>
      <trkpt lat="47.69453" lon="6.19365">
        <ele>241</ele>
        <time>2012-07-20T08:22:21.000Z</time>
      </trkpt>
      <trkpt lat="47.69455" lon="6.19363">
        <ele>241.60000610352</ele>
        <time>2012-07-20T08:22:22.000Z</time>
      </trkpt>
      <trkpt lat="47.69462" lon="6.19353">
        <ele>241.60000610352</ele>
        <time>2012-07-20T08:22:26.000Z</time>
      </trkpt>
      <trkpt lat="47.6948" lon="6.19334">
        <ele>241.60000610352</ele>
        <time>2012-07-20T08:22:32.000Z</time>
      </trkpt>
      <trkpt lat="47.69497" lon="6.19316">
        <ele>241</ele>
        <time>2012-07-20T08:22:36.000Z</time>
      </trkpt>
      <trkpt lat="47.69501" lon="6.19312">
        <ele>240.60000610352</ele>
        <time>2012-07-20T08:22:37.000Z</time>
      </trkpt>
      <trkpt lat="47.69506" lon="6.19307">
        <ele>240.19999694824</ele>
        <time>2012-07-20T08:22:38.000Z</time>
      </trkpt>
      <trkpt lat="47.6951" lon="6.19303">
        <ele>239.80000305176</ele>
        <time>2012-07-20T08:22:39.000Z</time>
      </trkpt>
      <trkpt lat="47.69516" lon="6.19299">
        <ele>239.19999694824</ele>
        <time>2012-07-20T08:22:40.000Z</time>
      </trkpt>
      <trkpt lat="47.69534" lon="6.19286">
        <ele>238.80000305176</ele>
        <time>2012-07-20T08:22:43.000Z</time>
      </trkpt>
      <trkpt lat="47.6954" lon="6.19284">
        <ele>238.39999389648</ele>
        <time>2012-07-20T08:22:44.000Z</time>
      </trkpt>
      <trkpt lat="47.69546" lon="6.19283">
        <ele>238</ele>
        <time>2012-07-20T08:22:45.000Z</time>
      </trkpt>
      <trkpt lat="47.69552" lon="6.19281">
        <ele>237.60000610352</ele>
        <time>2012-07-20T08:22:46.000Z</time>
      </trkpt>
      <trkpt lat="47.69558" lon="6.1928">
        <ele>237.19999694824</ele>
        <time>2012-07-20T08:22:47.000Z</time>
      </trkpt>
      <trkpt lat="47.69575" lon="6.19277">
        <ele>237.19999694824</ele>
        <time>2012-07-20T08:22:50.000Z</time>
      </trkpt>
      <trkpt lat="47.69598" lon="6.19271">
        <ele>237.19999694824</ele>
        <time>2012-07-20T08:22:55.000Z</time>
      </trkpt>
      <trkpt lat="47.69602" lon="6.1927">
        <ele>237.19999694824</ele>
        <time>2012-07-20T08:22:56.000Z</time>
      </trkpt>
      <trkpt lat="47.69619" lon="6.19263">
        <ele>237.19999694824</ele>
        <time>2012-07-20T08:23:02.000Z</time>
      </trkpt>
      <trkpt lat="47.69637" lon="6.19254">
        <ele>237.19999694824</ele>
        <time>2012-07-20T08:23:09.000Z</time>
      </trkpt>
      <trkpt lat="47.69656" lon="6.19242">
        <ele>237.19999694824</ele>
        <time>2012-07-20T08:23:16.000Z</time>
      </trkpt>
      <trkpt lat="47.69681" lon="6.19222">
        <ele>237.19999694824</ele>
        <time>2012-07-20T08:23:25.000Z</time>
      </trkpt>
      <trkpt lat="47.69698" lon="6.19208">
        <ele>237.19999694824</ele>
        <time>2012-07-20T08:23:30.000Z</time>
      </trkpt>
      <trkpt lat="47.69702" lon="6.19205">
        <ele>237.19999694824</ele>
        <time>2012-07-20T08:23:31.000Z</time>
      </trkpt>
      <trkpt lat="47.69731" lon="6.19179">
        <ele>237.19999694824</ele>
        <time>2012-07-20T08:23:38.000Z</time>
      </trkpt>
      <trkpt lat="47.69753" lon="6.19163">
        <ele>237.19999694824</ele>
        <time>2012-07-20T08:23:44.000Z</time>
      </trkpt>
      <trkpt lat="47.69768" lon="6.19151">
        <ele>237.19999694824</ele>
        <time>2012-07-20T08:23:49.000Z</time>
      </trkpt>
      <trkpt lat="47.69786" lon="6.19139">
        <ele>237.19999694824</ele>
        <time>2012-07-20T08:23:55.000Z</time>
      </trkpt>
      <trkpt lat="47.69802" lon="6.19128">
        <ele>237.19999694824</ele>
        <time>2012-07-20T08:24:01.000Z</time>
      </trkpt>
      <trkpt lat="47.69818" lon="6.1911">
        <ele>237.19999694824</ele>
        <time>2012-07-20T08:24:08.000Z</time>
      </trkpt>
      <trkpt lat="47.6982" lon="6.19091">
        <ele>237.19999694824</ele>
        <time>2012-07-20T08:24:12.000Z</time>
      </trkpt>
      <trkpt lat="47.69818" lon="6.19064">
        <ele>237.19999694824</ele>
        <time>2012-07-20T08:24:18.000Z</time>
      </trkpt>
      <trkpt lat="47.69814" lon="6.19034">
        <ele>237.19999694824</ele>
        <time>2012-07-20T08:24:24.000Z</time>
      </trkpt>
      <trkpt lat="47.69808" lon="6.18983">
        <ele>237.19999694824</ele>
        <time>2012-07-20T08:24:34.000Z</time>
      </trkpt>
      <trkpt lat="47.69803" lon="6.18938">
        <ele>237.19999694824</ele>
        <time>2012-07-20T08:24:42.000Z</time>
      </trkpt>
      <trkpt lat="47.69804" lon="6.18906">
        <ele>237.19999694824</ele>
        <time>2012-07-20T08:24:48.000Z</time>
      </trkpt>
      <trkpt lat="47.69812" lon="6.18891">
        <ele>237.19999694824</ele>
        <time>2012-07-20T08:24:52.000Z</time>
      </trkpt>
      <trkpt lat="47.69815" lon="6.1889">
        <ele>237.19999694824</ele>
        <time>2012-07-20T08:24:53.000Z</time>
      </trkpt>
      <trkpt lat="47.69823" lon="6.18883">
        <ele>237.19999694824</ele>
        <time>2012-07-20T08:24:57.000Z</time>
      </trkpt>
      <trkpt lat="47.69823" lon="6.1888">
        <ele>237.19999694824</ele>
        <time>2012-07-20T08:24:58.000Z</time>
      </trkpt>
      <trkpt lat="47.69821" lon="6.18871">
        <ele>237.19999694824</ele>
        <time>2012-07-20T08:25:01.000Z</time>
      </trkpt>
      <trkpt lat="47.69818" lon="6.18864">
        <ele>237.19999694824</ele>
        <time>2012-07-20T08:25:03.000Z</time>
      </trkpt>
      <trkpt lat="47.69807" lon="6.18851">
        <ele>237.19999694824</ele>
        <time>2012-07-20T08:25:07.000Z</time>
      </trkpt>
      <trkpt lat="47.69784" lon="6.18823">
        <ele>237.19999694824</ele>
        <time>2012-07-20T08:25:15.000Z</time>
      </trkpt>
      <trkpt lat="47.6977" lon="6.18806">
        <ele>237.19999694824</ele>
        <time>2012-07-20T08:25:21.000Z</time>
      </trkpt>
      <trkpt lat="47.69758" lon="6.18789">
        <ele>237.19999694824</ele>
        <time>2012-07-20T08:25:27.000Z</time>
      </trkpt>
      <trkpt lat="47.69753" lon="6.18783">
        <ele>237.19999694824</ele>
        <time>2012-07-20T08:25:29.000Z</time>
      </trkpt>
      <trkpt lat="47.69737" lon="6.1876">
        <ele>237.19999694824</ele>
        <time>2012-07-20T08:25:36.000Z</time>
      </trkpt>
      <trkpt lat="47.69726" lon="6.18751">
        <ele>237.19999694824</ele>
        <time>2012-07-20T08:25:41.000Z</time>
      </trkpt>
      <trkpt lat="47.6971" lon="6.18731">
        <ele>237.19999694824</ele>
        <time>2012-07-20T08:25:47.000Z</time>
      </trkpt>
      <trkpt lat="47.69687" lon="6.18713">
        <ele>237.19999694824</ele>
        <time>2012-07-20T08:25:53.000Z</time>
      </trkpt>
      <trkpt lat="47.69654" lon="6.18702">
        <ele>237.19999694824</ele>
        <time>2012-07-20T08:26:01.000Z</time>
      </trkpt>
      <trkpt lat="47.69622" lon="6.18694">
        <ele>237.19999694824</ele>
        <time>2012-07-20T08:26:09.000Z</time>
      </trkpt>
      <trkpt lat="47.69588" lon="6.18681">
        <ele>237.19999694824</ele>
        <time>2012-07-20T08:26:17.000Z</time>
      </trkpt>
      <trkpt lat="47.69567" lon="6.1867">
        <ele>237.19999694824</ele>
        <time>2012-07-20T08:26:22.000Z</time>
      </trkpt>
      <trkpt lat="47.69563" lon="6.18667">
        <ele>237.19999694824</ele>
        <time>2012-07-20T08:26:23.000Z</time>
      </trkpt>
      <trkpt lat="47.69535" lon="6.18639">
        <ele>237.19999694824</ele>
        <time>2012-07-20T08:26:31.000Z</time>
      </trkpt>
      <trkpt lat="47.69511" lon="6.18601">
        <ele>237.19999694824</ele>
        <time>2012-07-20T08:26:39.000Z</time>
      </trkpt>
      <trkpt lat="47.69499" lon="6.18572">
        <ele>237.19999694824</ele>
        <time>2012-07-20T08:26:45.000Z</time>
      </trkpt>
      <trkpt lat="47.69489" lon="6.18534">
        <ele>237.19999694824</ele>
        <time>2012-07-20T08:26:53.000Z</time>
      </trkpt>
      <trkpt lat="47.69484" lon="6.18485">
        <ele>237.19999694824</ele>
        <time>2012-07-20T08:27:02.000Z</time>
      </trkpt>
      <trkpt lat="47.69481" lon="6.18434">
        <ele>237.19999694824</ele>
        <time>2012-07-20T08:27:10.000Z</time>
      </trkpt>
      <trkpt lat="47.69473" lon="6.1839">
        <ele>237.19999694824</ele>
        <time>2012-07-20T08:27:17.000Z</time>
      </trkpt>
      <trkpt lat="47.69457" lon="6.18336">
        <ele>237.19999694824</ele>
        <time>2012-07-20T08:27:26.000Z</time>
      </trkpt>
      <trkpt lat="47.6944" lon="6.18298">
        <ele>237.19999694824</ele>
        <time>2012-07-20T08:27:33.000Z</time>
      </trkpt>
      <trkpt lat="47.69418" lon="6.18263">
        <ele>237.19999694824</ele>
        <time>2012-07-20T08:27:41.000Z</time>
      </trkpt>
      <trkpt lat="47.69389" lon="6.18224">
        <ele>237.19999694824</ele>
        <time>2012-07-20T08:27:51.000Z</time>
      </trkpt>
      <trkpt lat="47.69368" lon="6.18196">
        <ele>237.19999694824</ele>
        <time>2012-07-20T08:27:59.000Z</time>
      </trkpt>
      <trkpt lat="47.69351" lon="6.18172">
        <ele>237.19999694824</ele>
        <time>2012-07-20T08:28:06.000Z</time>
      </trkpt>
      <trkpt lat="47.69333" lon="6.18149">
        <ele>237.19999694824</ele>
        <time>2012-07-20T08:28:14.000Z</time>
      </trkpt>
      <trkpt lat="47.69331" lon="6.18146">
        <ele>237.60000610352</ele>
        <time>2012-07-20T08:28:15.000Z</time>
      </trkpt>
      <trkpt lat="47.69329" lon="6.18143">
        <ele>238</ele>
        <time>2012-07-20T08:28:16.000Z</time>
      </trkpt>
      <trkpt lat="47.69327" lon="6.18141">
        <ele>238.39999389648</ele>
        <time>2012-07-20T08:28:17.000Z</time>
      </trkpt>
      <trkpt lat="47.69326" lon="6.18138">
        <ele>238.80000305176</ele>
        <time>2012-07-20T08:28:18.000Z</time>
      </trkpt>
      <trkpt lat="47.69324" lon="6.18135">
        <ele>239.19999694824</ele>
        <time>2012-07-20T08:28:19.000Z</time>
      </trkpt>
      <trkpt lat="47.6932" lon="6.1813">
        <ele>239.19999694824</ele>
        <time>2012-07-20T08:28:21.000Z</time>
      </trkpt>
      <trkpt lat="47.69302" lon="6.18105">
        <ele>239.19999694824</ele>
        <time>2012-07-20T08:28:30.000Z</time>
      </trkpt>
      <trkpt lat="47.69288" lon="6.18086">
        <ele>239.19999694824</ele>
        <time>2012-07-20T08:28:37.000Z</time>
      </trkpt>
      <trkpt lat="47.69281" lon="6.18075">
        <ele>239.60000610352</ele>
        <time>2012-07-20T08:28:41.000Z</time>
      </trkpt>
      <trkpt lat="47.69279" lon="6.18073">
        <ele>240</ele>
        <time>2012-07-20T08:28:42.000Z</time>
      </trkpt>
      <trkpt lat="47.69276" lon="6.18071">
        <ele>240.39999389648</ele>
        <time>2012-07-20T08:28:43.000Z</time>
      </trkpt>
      <trkpt lat="47.69274" lon="6.18068">
        <ele>241</ele>
        <time>2012-07-20T08:28:44.000Z</time>
      </trkpt>
      <trkpt lat="47.69272" lon="6.18065">
        <ele>241.39999389648</ele>
        <time>2012-07-20T08:28:45.000Z</time>
      </trkpt>
      <trkpt lat="47.6927" lon="6.18063">
        <ele>241.39999389648</ele>
        <time>2012-07-20T08:28:46.000Z</time>
      </trkpt>
      <trkpt lat="47.69259" lon="6.18049">
        <ele>241.39999389648</ele>
        <time>2012-07-20T08:28:52.000Z</time>
      </trkpt>
      <trkpt lat="47.69248" lon="6.18033">
        <ele>241.39999389648</ele>
        <time>2012-07-20T08:28:59.000Z</time>
      </trkpt>
      <trkpt lat="47.69237" lon="6.18019">
        <ele>241.80000305176</ele>
        <time>2012-07-20T08:29:05.000Z</time>
      </trkpt>
      <trkpt lat="47.69235" lon="6.18016">
        <ele>242.19999694824</ele>
        <time>2012-07-20T08:29:06.000Z</time>
      </trkpt>
      <trkpt lat="47.69233" lon="6.18014">
        <ele>242.60000610352</ele>
        <time>2012-07-20T08:29:07.000Z</time>
      </trkpt>
      <trkpt lat="47.69232" lon="6.18011">
        <ele>243</ele>
        <time>2012-07-20T08:29:08.000Z</time>
      </trkpt>
      <trkpt lat="47.6923" lon="6.18009">
        <ele>243.39999389648</ele>
        <time>2012-07-20T08:29:09.000Z</time>
      </trkpt>
      <trkpt lat="47.69221" lon="6.17996">
        <ele>243.39999389648</ele>
        <time>2012-07-20T08:29:14.000Z</time>
      </trkpt>
      <trkpt lat="47.69209" lon="6.1798">
        <ele>243.39999389648</ele>
        <time>2012-07-20T08:29:21.000Z</time>
      </trkpt>
      <trkpt lat="47.69201" lon="6.17966">
        <ele>243.39999389648</ele>
        <time>2012-07-20T08:29:27.000Z</time>
      </trkpt>
      <trkpt lat="47.69197" lon="6.17961">
        <ele>243.80000305176</ele>
        <time>2012-07-20T08:29:29.000Z</time>
      </trkpt>
      <trkpt lat="47.69196" lon="6.17959">
        <ele>244.19999694824</ele>
        <time>2012-07-20T08:29:30.000Z</time>
      </trkpt>
      <trkpt lat="47.69194" lon="6.17956">
        <ele>244.60000610352</ele>
        <time>2012-07-20T08:29:31.000Z</time>
      </trkpt>
      <trkpt lat="47.69192" lon="6.17954">
        <ele>245</ele>
        <time>2012-07-20T08:29:32.000Z</time>
      </trkpt>
      <trkpt lat="47.6919" lon="6.17951">
        <ele>245.39999389648</ele>
        <time>2012-07-20T08:29:33.000Z</time>
      </trkpt>
      <trkpt lat="47.69186" lon="6.17945">
        <ele>245.39999389648</ele>
        <time>2012-07-20T08:29:35.000Z</time>
      </trkpt>
      <trkpt lat="47.69168" lon="6.1792">
        <ele>245.39999389648</ele>
        <time>2012-07-20T08:29:43.000Z</time>
      </trkpt>
      <trkpt lat="47.69149" lon="6.17893">
        <ele>245.39999389648</ele>
        <time>2012-07-20T08:29:50.000Z</time>
      </trkpt>
      <trkpt lat="47.69124" lon="6.17856">
        <ele>245.39999389648</ele>
        <time>2012-07-20T08:29:58.000Z</time>
      </trkpt>
      <trkpt lat="47.69095" lon="6.17816">
        <ele>245</ele>
        <time>2012-07-20T08:30:06.000Z</time>
      </trkpt>
      <trkpt lat="47.69091" lon="6.17812">
        <ele>244.60000610352</ele>
        <time>2012-07-20T08:30:07.000Z</time>
      </trkpt>
      <trkpt lat="47.69087" lon="6.17807">
        <ele>244.19999694824</ele>
        <time>2012-07-20T08:30:08.000Z</time>
      </trkpt>
      <trkpt lat="47.69083" lon="6.17801">
        <ele>243.80000305176</ele>
        <time>2012-07-20T08:30:09.000Z</time>
      </trkpt>
      <trkpt lat="47.69079" lon="6.17796">
        <ele>243.39999389648</ele>
        <time>2012-07-20T08:30:10.000Z</time>
      </trkpt>
      <trkpt lat="47.69061" lon="6.17774">
        <ele>243.39999389648</ele>
        <time>2012-07-20T08:30:15.000Z</time>
      </trkpt>
      <trkpt lat="47.6903" lon="6.1774">
        <ele>243.39999389648</ele>
        <time>2012-07-20T08:30:23.000Z</time>
      </trkpt>
      <trkpt lat="47.69001" lon="6.17711">
        <ele>243.39999389648</ele>
        <time>2012-07-20T08:30:30.000Z</time>
      </trkpt>
      <trkpt lat="47.68982" lon="6.17692">
        <ele>243</ele>
        <time>2012-07-20T08:30:34.000Z</time>
      </trkpt>
      <trkpt lat="47.68978" lon="6.17687">
        <ele>242.60000610352</ele>
        <time>2012-07-20T08:30:35.000Z</time>
      </trkpt>
      <trkpt lat="47.68973" lon="6.17682">
        <ele>242.19999694824</ele>
        <time>2012-07-20T08:30:36.000Z</time>
      </trkpt>
      <trkpt lat="47.68968" lon="6.17678">
        <ele>241.60000610352</ele>
        <time>2012-07-20T08:30:37.000Z</time>
      </trkpt>
      <trkpt lat="47.68963" lon="6.17673">
        <ele>241.19999694824</ele>
        <time>2012-07-20T08:30:38.000Z</time>
      </trkpt>
      <trkpt lat="47.68958" lon="6.17668">
        <ele>241.19999694824</ele>
        <time>2012-07-20T08:30:39.000Z</time>
      </trkpt>
      <trkpt lat="47.68927" lon="6.17637">
        <ele>240.80000305176</ele>
        <time>2012-07-20T08:30:45.000Z</time>
      </trkpt>
      <trkpt lat="47.68922" lon="6.17631">
        <ele>240.39999389648</ele>
        <time>2012-07-20T08:30:46.000Z</time>
      </trkpt>
      <trkpt lat="47.68916" lon="6.17624">
        <ele>240</ele>
        <time>2012-07-20T08:30:47.000Z</time>
      </trkpt>
      <trkpt lat="47.68911" lon="6.17619">
        <ele>239.19999694824</ele>
        <time>2012-07-20T08:30:48.000Z</time>
      </trkpt>
      <trkpt lat="47.68888" lon="6.17597">
        <ele>239.19999694824</ele>
        <time>2012-07-20T08:30:52.000Z</time>
      </trkpt>
      <trkpt lat="47.68871" lon="6.17579">
        <ele>238.80000305176</ele>
        <time>2012-07-20T08:30:55.000Z</time>
      </trkpt>
      <trkpt lat="47.68866" lon="6.17573">
        <ele>238.39999389648</ele>
        <time>2012-07-20T08:30:56.000Z</time>
      </trkpt>
      <trkpt lat="47.6886" lon="6.17568">
        <ele>238</ele>
        <time>2012-07-20T08:30:57.000Z</time>
      </trkpt>
      <trkpt lat="47.68855" lon="6.17562">
        <ele>237.60000610352</ele>
        <time>2012-07-20T08:30:58.000Z</time>
      </trkpt>
      <trkpt lat="47.68849" lon="6.17557">
        <ele>237.19999694824</ele>
        <time>2012-07-20T08:30:59.000Z</time>
      </trkpt>
      <trkpt lat="47.68844" lon="6.17552">
        <ele>237.19999694824</ele>
        <time>2012-07-20T08:31:00.000Z</time>
      </trkpt>
      <trkpt lat="47.68805" lon="6.17511">
        <ele>237.19999694824</ele>
        <time>2012-07-20T08:31:08.000Z</time>
      </trkpt>
      <trkpt lat="47.68775" lon="6.17476">
        <ele>237.19999694824</ele>
        <time>2012-07-20T08:31:16.000Z</time>
      </trkpt>
      <trkpt lat="47.68747" lon="6.17436">
        <ele>237.19999694824</ele>
        <time>2012-07-20T08:31:24.000Z</time>
      </trkpt>
      <trkpt lat="47.68744" lon="6.1743">
        <ele>237.19999694824</ele>
        <time>2012-07-20T08:31:25.000Z</time>
      </trkpt>
      <trkpt lat="47.68723" lon="6.1739">
        <ele>237.19999694824</ele>
        <time>2012-07-20T08:31:32.000Z</time>
      </trkpt>
      <trkpt lat="47.68721" lon="6.17385">
        <ele>236.60000610352</ele>
        <time>2012-07-20T08:31:33.000Z</time>
      </trkpt>
      <trkpt lat="47.68719" lon="6.17379">
        <ele>236.19999694824</ele>
        <time>2012-07-20T08:31:34.000Z</time>
      </trkpt>
      <trkpt lat="47.68716" lon="6.17374">
        <ele>235.80000305176</ele>
        <time>2012-07-20T08:31:35.000Z</time>
      </trkpt>
      <trkpt lat="47.68714" lon="6.17369">
        <ele>235.39999389648</ele>
        <time>2012-07-20T08:31:36.000Z</time>
      </trkpt>
      <trkpt lat="47.68711" lon="6.17364">
        <ele>235</ele>
        <time>2012-07-20T08:31:37.000Z</time>
      </trkpt>
      <trkpt lat="47.68709" lon="6.17359">
        <ele>235</ele>
        <time>2012-07-20T08:31:38.000Z</time>
      </trkpt>
      <trkpt lat="47.68707" lon="6.17354">
        <ele>235</ele>
        <time>2012-07-20T08:31:39.000Z</time>
      </trkpt>
      <trkpt lat="47.68687" lon="6.1731">
        <ele>235</ele>
        <time>2012-07-20T08:31:48.000Z</time>
      </trkpt>
      <trkpt lat="47.68671" lon="6.17273">
        <ele>235</ele>
        <time>2012-07-20T08:31:56.000Z</time>
      </trkpt>
      <trkpt lat="47.68655" lon="6.17235">
        <ele>235</ele>
        <time>2012-07-20T08:32:04.000Z</time>
      </trkpt>
      <trkpt lat="47.68631" lon="6.1718">
        <ele>235</ele>
        <time>2012-07-20T08:32:15.000Z</time>
      </trkpt>
      <trkpt lat="47.68616" lon="6.17148">
        <ele>235</ele>
        <time>2012-07-20T08:32:22.000Z</time>
      </trkpt>
      <trkpt lat="47.68599" lon="6.1711">
        <ele>235</ele>
        <time>2012-07-20T08:32:30.000Z</time>
      </trkpt>
      <trkpt lat="47.68576" lon="6.17057">
        <ele>235</ele>
        <time>2012-07-20T08:32:40.000Z</time>
      </trkpt>
      <trkpt lat="47.68572" lon="6.17046">
        <ele>235</ele>
        <time>2012-07-20T08:32:42.000Z</time>
      </trkpt>
      <trkpt lat="47.6856" lon="6.17018">
        <ele>235</ele>
        <time>2012-07-20T08:32:47.000Z</time>
      </trkpt>
      <trkpt lat="47.68543" lon="6.16978">
        <ele>235</ele>
        <time>2012-07-20T08:32:54.000Z</time>
      </trkpt>
      <trkpt lat="47.68518" lon="6.16921">
        <ele>235</ele>
        <time>2012-07-20T08:33:03.000Z</time>
      </trkpt>
      <trkpt lat="47.68508" lon="6.16897">
        <ele>234.60000610352</ele>
        <time>2012-07-20T08:33:07.000Z</time>
      </trkpt>
      <trkpt lat="47.68505" lon="6.16891">
        <ele>234.19999694824</ele>
        <time>2012-07-20T08:33:08.000Z</time>
      </trkpt>
      <trkpt lat="47.68503" lon="6.16885">
        <ele>233.80000305176</ele>
        <time>2012-07-20T08:33:09.000Z</time>
      </trkpt>
      <trkpt lat="47.68501" lon="6.1688">
        <ele>233.39999389648</ele>
        <time>2012-07-20T08:33:10.000Z</time>
      </trkpt>
      <trkpt lat="47.68498" lon="6.16874">
        <ele>233</ele>
        <time>2012-07-20T08:33:11.000Z</time>
      </trkpt>
      <trkpt lat="47.68487" lon="6.16845">
        <ele>233</ele>
        <time>2012-07-20T08:33:16.000Z</time>
      </trkpt>
      <trkpt lat="47.68482" lon="6.16836">
        <ele>233</ele>
        <time>2012-07-20T08:33:18.000Z</time>
      </trkpt>
      <trkpt lat="47.68471" lon="6.16816">
        <ele>233</ele>
        <time>2012-07-20T08:33:22.000Z</time>
      </trkpt>
      <trkpt lat="47.68454" lon="6.16787">
        <ele>233</ele>
        <time>2012-07-20T08:33:28.000Z</time>
      </trkpt>
      <trkpt lat="47.6843" lon="6.16743">
        <ele>233</ele>
        <time>2012-07-20T08:33:37.000Z</time>
      </trkpt>
      <trkpt lat="47.6842" lon="6.16718">
        <ele>233</ele>
        <time>2012-07-20T08:33:42.000Z</time>
      </trkpt>
      <trkpt lat="47.68402" lon="6.16684">
        <ele>233</ele>
        <time>2012-07-20T08:33:50.000Z</time>
      </trkpt>
      <trkpt lat="47.68382" lon="6.1664">
        <ele>233</ele>
        <time>2012-07-20T08:33:59.000Z</time>
      </trkpt>
      <trkpt lat="47.68363" lon="6.16601">
        <ele>233</ele>
        <time>2012-07-20T08:34:07.000Z</time>
      </trkpt>
      <trkpt lat="47.68356" lon="6.16586">
        <ele>233</ele>
        <time>2012-07-20T08:34:10.000Z</time>
      </trkpt>
      <trkpt lat="47.68353" lon="6.16575">
        <ele>233</ele>
        <time>2012-07-20T08:34:12.000Z</time>
      </trkpt>
      <trkpt lat="47.68348" lon="6.16562">
        <ele>233</ele>
        <time>2012-07-20T08:34:14.000Z</time>
      </trkpt>
      <trkpt lat="47.68342" lon="6.16547">
        <ele>233</ele>
        <time>2012-07-20T08:34:17.000Z</time>
      </trkpt>
      <trkpt lat="47.68331" lon="6.16516">
        <ele>233</ele>
        <time>2012-07-20T08:34:23.000Z</time>
      </trkpt>
      <trkpt lat="47.68311" lon="6.16463">
        <ele>233</ele>
        <time>2012-07-20T08:34:32.000Z</time>
      </trkpt>
      <trkpt lat="47.68305" lon="6.16445">
        <ele>232.60000610352</ele>
        <time>2012-07-20T08:34:35.000Z</time>
      </trkpt>
      <trkpt lat="47.68303" lon="6.1644">
        <ele>232.19999694824</ele>
        <time>2012-07-20T08:34:36.000Z</time>
      </trkpt>
      <trkpt lat="47.68301" lon="6.16435">
        <ele>231.60000610352</ele>
        <time>2012-07-20T08:34:37.000Z</time>
      </trkpt>
      <trkpt lat="47.68299" lon="6.16431">
        <ele>232</ele>
        <time>2012-07-20T08:34:38.000Z</time>
      </trkpt>
      <trkpt lat="47.68297" lon="6.16426">
        <ele>232.39999389648</ele>
        <time>2012-07-20T08:34:39.000Z</time>
      </trkpt>
      <trkpt lat="47.68295" lon="6.16421">
        <ele>232.80000305176</ele>
        <time>2012-07-20T08:34:40.000Z</time>
      </trkpt>
      <trkpt lat="47.68294" lon="6.16415">
        <ele>233.19999694824</ele>
        <time>2012-07-20T08:34:41.000Z</time>
      </trkpt>
      <trkpt lat="47.68293" lon="6.1641">
        <ele>233.60000610352</ele>
        <time>2012-07-20T08:34:42.000Z</time>
      </trkpt>
      <trkpt lat="47.68288" lon="6.16388">
        <ele>233.60000610352</ele>
        <time>2012-07-20T08:34:46.000Z</time>
      </trkpt>
      <trkpt lat="47.68287" lon="6.16376">
        <ele>233.60000610352</ele>
        <time>2012-07-20T08:34:48.000Z</time>
      </trkpt>
      <trkpt lat="47.68287" lon="6.16361">
        <ele>233.19999694824</ele>
        <time>2012-07-20T08:34:50.000Z</time>
      </trkpt>
      <trkpt lat="47.68288" lon="6.16354">
        <ele>232.80000305176</ele>
        <time>2012-07-20T08:34:51.000Z</time>
      </trkpt>
      <trkpt lat="47.68291" lon="6.16347">
        <ele>232.39999389648</ele>
        <time>2012-07-20T08:34:52.000Z</time>
      </trkpt>
      <trkpt lat="47.68294" lon="6.16341">
        <ele>232</ele>
        <time>2012-07-20T08:34:53.000Z</time>
      </trkpt>
      <trkpt lat="47.68297" lon="6.16335">
        <ele>231.60000610352</ele>
        <time>2012-07-20T08:34:54.000Z</time>
      </trkpt>
      <trkpt lat="47.68308" lon="6.16319">
        <ele>231.60000610352</ele>
        <time>2012-07-20T08:34:57.000Z</time>
      </trkpt>
      <trkpt lat="47.68317" lon="6.16302">
        <ele>231.60000610352</ele>
        <time>2012-07-20T08:35:00.000Z</time>
      </trkpt>
      <trkpt lat="47.68323" lon="6.16292">
        <ele>231.60000610352</ele>
        <time>2012-07-20T08:35:02.000Z</time>
      </trkpt>
      <trkpt lat="47.68334" lon="6.16272">
        <ele>231.60000610352</ele>
        <time>2012-07-20T08:35:06.000Z</time>
      </trkpt>
      <trkpt lat="47.6835" lon="6.16241">
        <ele>231.60000610352</ele>
        <time>2012-07-20T08:35:13.000Z</time>
      </trkpt>
      <trkpt lat="47.68368" lon="6.16219">
        <ele>231.60000610352</ele>
        <time>2012-07-20T08:35:20.000Z</time>
      </trkpt>
      <trkpt lat="47.68368" lon="6.16216">
        <ele>231.60000610352</ele>
        <time>2012-07-20T08:35:21.000Z</time>
      </trkpt>
      <trkpt lat="47.68364" lon="6.16217">
        <ele>231.60000610352</ele>
        <time>2012-07-20T08:35:23.000Z</time>
      </trkpt>
      <trkpt lat="47.6836" lon="6.16225">
        <ele>231.60000610352</ele>
        <time>2012-07-20T08:35:27.000Z</time>
      </trkpt>
      <trkpt lat="47.68358" lon="6.16228">
        <ele>231.60000610352</ele>
        <time>2012-07-20T08:35:28.000Z</time>
      </trkpt>
      <trkpt lat="47.6835" lon="6.16241">
        <ele>231.60000610352</ele>
        <time>2012-07-20T08:35:34.000Z</time>
      </trkpt>
      <trkpt lat="47.6834" lon="6.16257">
        <ele>231.60000610352</ele>
        <time>2012-07-20T08:35:40.000Z</time>
      </trkpt>
      <trkpt lat="47.6833" lon="6.16281">
        <ele>231.60000610352</ele>
        <time>2012-07-20T08:35:46.000Z</time>
      </trkpt>
      <trkpt lat="47.68314" lon="6.16311">
        <ele>231.60000610352</ele>
        <time>2012-07-20T08:35:53.000Z</time>
      </trkpt>
      <trkpt lat="47.68298" lon="6.16334">
        <ele>231.60000610352</ele>
        <time>2012-07-20T08:36:00.000Z</time>
      </trkpt>
      <trkpt lat="47.68286" lon="6.16327">
        <ele>231.60000610352</ele>
        <time>2012-07-20T08:36:03.000Z</time>
      </trkpt>
      <trkpt lat="47.68282" lon="6.16324">
        <ele>231.60000610352</ele>
        <time>2012-07-20T08:36:04.000Z</time>
      </trkpt>
      <trkpt lat="47.68258" lon="6.16304">
        <ele>231.60000610352</ele>
        <time>2012-07-20T08:36:11.000Z</time>
      </trkpt>
      <trkpt lat="47.68244" lon="6.16294">
        <ele>231.60000610352</ele>
        <time>2012-07-20T08:36:16.000Z</time>
      </trkpt>
      <trkpt lat="47.68227" lon="6.16278">
        <ele>231.60000610352</ele>
        <time>2012-07-20T08:36:23.000Z</time>
      </trkpt>
      <trkpt lat="47.68206" lon="6.16257">
        <ele>231.60000610352</ele>
        <time>2012-07-20T08:36:30.000Z</time>
      </trkpt>
      <trkpt lat="47.68194" lon="6.16244">
        <ele>231.60000610352</ele>
        <time>2012-07-20T08:36:35.000Z</time>
      </trkpt>
      <trkpt lat="47.68194" lon="6.16241">
        <ele>231.60000610352</ele>
        <time>2012-07-20T08:36:36.000Z</time>
      </trkpt>
      <trkpt lat="47.68202" lon="6.16231">
        <ele>231.60000610352</ele>
        <time>2012-07-20T08:36:40.000Z</time>
      </trkpt>
      <trkpt lat="47.68205" lon="6.16229">
        <ele>231.60000610352</ele>
        <time>2012-07-20T08:36:41.000Z</time>
      </trkpt>
      <trkpt lat="47.68208" lon="6.1622">
        <ele>231.60000610352</ele>
        <time>2012-07-20T08:36:44.000Z</time>
      </trkpt>
      <trkpt lat="47.68207" lon="6.16218">
        <ele>231.60000610352</ele>
        <time>2012-07-20T08:36:45.000Z</time>
      </trkpt>
      <trkpt lat="47.68202" lon="6.1622">
        <ele>231.60000610352</ele>
        <time>2012-07-20T08:36:49.000Z</time>
      </trkpt>
      <trkpt lat="47.68199" lon="6.16226">
        <ele>231.60000610352</ele>
        <time>2012-07-20T08:36:51.000Z</time>
      </trkpt>
      <trkpt lat="47.68195" lon="6.16241">
        <ele>231.60000610352</ele>
        <time>2012-07-20T08:36:55.000Z</time>
      </trkpt>
      <trkpt lat="47.68196" lon="6.16248">
        <ele>231.60000610352</ele>
        <time>2012-07-20T08:36:57.000Z</time>
      </trkpt>
      <trkpt lat="47.68201" lon="6.16254">
        <ele>231.60000610352</ele>
        <time>2012-07-20T08:36:59.000Z</time>
      </trkpt>
      <trkpt lat="47.68223" lon="6.16278">
        <ele>231.60000610352</ele>
        <time>2012-07-20T08:37:07.000Z</time>
      </trkpt>
      <trkpt lat="47.68238" lon="6.16293">
        <ele>231.60000610352</ele>
        <time>2012-07-20T08:37:13.000Z</time>
      </trkpt>
      <trkpt lat="47.68257" lon="6.16309">
        <ele>231.60000610352</ele>
        <time>2012-07-20T08:37:20.000Z</time>
      </trkpt>
      <trkpt lat="47.68278" lon="6.16324">
        <ele>231.60000610352</ele>
        <time>2012-07-20T08:37:27.000Z</time>
      </trkpt>
      <trkpt lat="47.68293" lon="6.16337">
        <ele>231.60000610352</ele>
        <time>2012-07-20T08:37:34.000Z</time>
      </trkpt>
      <trkpt lat="47.68293" lon="6.16337">
        <ele>231.60000610352</ele>
        <time>2012-07-20T08:37:36.000Z</time>
      </trkpt>
      <trkpt lat="47.68295" lon="6.16339">
        <ele>231.60000610352</ele>
        <time>2012-07-20T08:37:39.000Z</time>
      </trkpt>
      <trkpt lat="47.68296" lon="6.16339">
        <ele>231.60000610352</ele>
        <time>2012-07-20T08:37:40.000Z</time>
      </trkpt>
      <trkpt lat="47.68298" lon="6.16338">
        <ele>231.60000610352</ele>
        <time>2012-07-20T08:37:41.000Z</time>
      </trkpt>
      <trkpt lat="47.68305" lon="6.16331">
        <ele>231.60000610352</ele>
        <time>2012-07-20T08:37:44.000Z</time>
      </trkpt>
      <trkpt lat="47.6831" lon="6.1632">
        <ele>231.60000610352</ele>
        <time>2012-07-20T08:37:47.000Z</time>
      </trkpt>
      <trkpt lat="47.68317" lon="6.16307">
        <ele>231.60000610352</ele>
        <time>2012-07-20T08:37:50.000Z</time>
      </trkpt>
      <trkpt lat="47.68332" lon="6.16276">
        <ele>231.60000610352</ele>
        <time>2012-07-20T08:37:57.000Z</time>
      </trkpt>
      <trkpt lat="47.68345" lon="6.16249">
        <ele>231.60000610352</ele>
        <time>2012-07-20T08:38:04.000Z</time>
      </trkpt>
      <trkpt lat="47.68362" lon="6.16224">
        <ele>231.60000610352</ele>
        <time>2012-07-20T08:38:11.000Z</time>
      </trkpt>
      <trkpt lat="47.68385" lon="6.16196">
        <ele>231.60000610352</ele>
        <time>2012-07-20T08:38:19.000Z</time>
      </trkpt>
      <trkpt lat="47.68403" lon="6.16163">
        <ele>231.60000610352</ele>
        <time>2012-07-20T08:38:27.000Z</time>
      </trkpt>
      <trkpt lat="47.68417" lon="6.16135">
        <ele>231.60000610352</ele>
        <time>2012-07-20T08:38:35.000Z</time>
      </trkpt>
      <trkpt lat="47.68432" lon="6.16111">
        <ele>231.60000610352</ele>
        <time>2012-07-20T08:38:42.000Z</time>
      </trkpt>
      <trkpt lat="47.68459" lon="6.16083">
        <ele>231.60000610352</ele>
        <time>2012-07-20T08:38:50.000Z</time>
      </trkpt>
      <trkpt lat="47.68483" lon="6.16058">
        <ele>231.60000610352</ele>
        <time>2012-07-20T08:38:57.000Z</time>
      </trkpt>
      <trkpt lat="47.68506" lon="6.16035">
        <ele>231.60000610352</ele>
        <time>2012-07-20T08:39:05.000Z</time>
      </trkpt>
      <trkpt lat="47.68525" lon="6.16013">
        <ele>231.60000610352</ele>
        <time>2012-07-20T08:39:12.000Z</time>
      </trkpt>
      <trkpt lat="47.68542" lon="6.15994">
        <ele>231.60000610352</ele>
        <time>2012-07-20T08:39:20.000Z</time>
      </trkpt>
      <trkpt lat="47.68551" lon="6.15985">
        <ele>232.39999389648</ele>
        <time>2012-07-20T08:39:25.000Z</time>
      </trkpt>
      <trkpt lat="47.68553" lon="6.15983">
        <ele>232.80000305176</ele>
        <time>2012-07-20T08:39:26.000Z</time>
      </trkpt>
      <trkpt lat="47.68555" lon="6.15982">
        <ele>233.19999694824</ele>
        <time>2012-07-20T08:39:27.000Z</time>
      </trkpt>
      <trkpt lat="47.68556" lon="6.1598">
        <ele>233.60000610352</ele>
        <time>2012-07-20T08:39:28.000Z</time>
      </trkpt>
      <trkpt lat="47.68573" lon="6.15967">
        <ele>233.60000610352</ele>
        <time>2012-07-20T08:39:37.000Z</time>
      </trkpt>
      <trkpt lat="47.68587" lon="6.15962">
        <ele>234</ele>
        <time>2012-07-20T08:39:44.000Z</time>
      </trkpt>
      <trkpt lat="47.68589" lon="6.15962">
        <ele>234.39999389648</ele>
        <time>2012-07-20T08:39:45.000Z</time>
      </trkpt>
      <trkpt lat="47.68591" lon="6.15961">
        <ele>235</ele>
        <time>2012-07-20T08:39:46.000Z</time>
      </trkpt>
      <trkpt lat="47.68593" lon="6.1596">
        <ele>235.39999389648</ele>
        <time>2012-07-20T08:39:47.000Z</time>
      </trkpt>
      <trkpt lat="47.68595" lon="6.1596">
        <ele>235.80000305176</ele>
        <time>2012-07-20T08:39:48.000Z</time>
      </trkpt>
      <trkpt lat="47.68603" lon="6.15959">
        <ele>235.80000305176</ele>
        <time>2012-07-20T08:39:52.000Z</time>
      </trkpt>
      <trkpt lat="47.68614" lon="6.15956">
        <ele>235.80000305176</ele>
        <time>2012-07-20T08:39:58.000Z</time>
      </trkpt>
      <trkpt lat="47.68618" lon="6.15954">
        <ele>236.19999694824</ele>
        <time>2012-07-20T08:40:00.000Z</time>
      </trkpt>
      <trkpt lat="47.68619" lon="6.15954">
        <ele>236.60000610352</ele>
        <time>2012-07-20T08:40:01.000Z</time>
      </trkpt>
      <trkpt lat="47.68621" lon="6.15954">
        <ele>237</ele>
        <time>2012-07-20T08:40:02.000Z</time>
      </trkpt>
      <trkpt lat="47.68623" lon="6.15954">
        <ele>237.39999389648</ele>
        <time>2012-07-20T08:40:03.000Z</time>
      </trkpt>
      <trkpt lat="47.68625" lon="6.15953">
        <ele>237.80000305176</ele>
        <time>2012-07-20T08:40:04.000Z</time>
      </trkpt>
      <trkpt lat="47.68627" lon="6.15952">
        <ele>237.80000305176</ele>
        <time>2012-07-20T08:40:05.000Z</time>
      </trkpt>
      <trkpt lat="47.68642" lon="6.15948">
        <ele>237.80000305176</ele>
        <time>2012-07-20T08:40:12.000Z</time>
      </trkpt>
      <trkpt lat="47.6865" lon="6.15946">
        <ele>238.39999389648</ele>
        <time>2012-07-20T08:40:16.000Z</time>
      </trkpt>
      <trkpt lat="47.68652" lon="6.15945">
        <ele>238.80000305176</ele>
        <time>2012-07-20T08:40:17.000Z</time>
      </trkpt>
      <trkpt lat="47.68654" lon="6.15944">
        <ele>239.19999694824</ele>
        <time>2012-07-20T08:40:18.000Z</time>
      </trkpt>
      <trkpt lat="47.68655" lon="6.15943">
        <ele>239.60000610352</ele>
        <time>2012-07-20T08:40:19.000Z</time>
      </trkpt>
      <trkpt lat="47.68657" lon="6.15942">
        <ele>240</ele>
        <time>2012-07-20T08:40:20.000Z</time>
      </trkpt>
      <trkpt lat="47.6867" lon="6.15937">
        <ele>240</ele>
        <time>2012-07-20T08:40:27.000Z</time>
      </trkpt>
      <trkpt lat="47.68684" lon="6.15927">
        <ele>240.39999389648</ele>
        <time>2012-07-20T08:40:35.000Z</time>
      </trkpt>
      <trkpt lat="47.68686" lon="6.15926">
        <ele>240.80000305176</ele>
        <time>2012-07-20T08:40:36.000Z</time>
      </trkpt>
      <trkpt lat="47.68688" lon="6.15925">
        <ele>241.19999694824</ele>
        <time>2012-07-20T08:40:37.000Z</time>
      </trkpt>
      <trkpt lat="47.6869" lon="6.15925">
        <ele>241.60000610352</ele>
        <time>2012-07-20T08:40:38.000Z</time>
      </trkpt>
      <trkpt lat="47.68691" lon="6.15924">
        <ele>242</ele>
        <time>2012-07-20T08:40:39.000Z</time>
      </trkpt>
      <trkpt lat="47.68696" lon="6.1592">
        <ele>242</ele>
        <time>2012-07-20T08:40:42.000Z</time>
      </trkpt>
      <trkpt lat="47.6871" lon="6.15911">
        <ele>242</ele>
        <time>2012-07-20T08:40:50.000Z</time>
      </trkpt>
      <trkpt lat="47.68715" lon="6.15906">
        <ele>242.39999389648</ele>
        <time>2012-07-20T08:40:53.000Z</time>
      </trkpt>
      <trkpt lat="47.68717" lon="6.15905">
        <ele>242.80000305176</ele>
        <time>2012-07-20T08:40:54.000Z</time>
      </trkpt>
      <trkpt lat="47.68719" lon="6.15904">
        <ele>243.19999694824</ele>
        <time>2012-07-20T08:40:55.000Z</time>
      </trkpt>
      <trkpt lat="47.68721" lon="6.15902">
        <ele>243.60000610352</ele>
        <time>2012-07-20T08:40:56.000Z</time>
      </trkpt>
      <trkpt lat="47.68723" lon="6.15901">
        <ele>244</ele>
        <time>2012-07-20T08:40:57.000Z</time>
      </trkpt>
      <trkpt lat="47.68735" lon="6.15891">
        <ele>244</ele>
        <time>2012-07-20T08:41:04.000Z</time>
      </trkpt>
      <trkpt lat="47.68746" lon="6.1588">
        <ele>244</ele>
        <time>2012-07-20T08:41:11.000Z</time>
      </trkpt>
      <trkpt lat="47.68757" lon="6.1587">
        <ele>244</ele>
        <time>2012-07-20T08:41:18.000Z</time>
      </trkpt>
      <trkpt lat="47.68758" lon="6.15869">
        <ele>244.39999389648</ele>
        <time>2012-07-20T08:41:19.000Z</time>
      </trkpt>
      <trkpt lat="47.68759" lon="6.15868">
        <ele>244.80000305176</ele>
        <time>2012-07-20T08:41:20.000Z</time>
      </trkpt>
      <trkpt lat="47.68761" lon="6.15866">
        <ele>245.19999694824</ele>
        <time>2012-07-20T08:41:21.000Z</time>
      </trkpt>
      <trkpt lat="47.68761" lon="6.15865">
        <ele>245.60000610352</ele>
        <time>2012-07-20T08:41:22.000Z</time>
      </trkpt>
      <trkpt lat="47.6876" lon="6.15864">
        <ele>246.19999694824</ele>
        <time>2012-07-20T08:41:23.000Z</time>
      </trkpt>
      <trkpt lat="47.68759" lon="6.15863">
        <ele>246.19999694824</ele>
        <time>2012-07-20T08:41:24.000Z</time>
      </trkpt>
      <trkpt lat="47.68752" lon="6.1587">
        <ele>246.19999694824</ele>
        <time>2012-07-20T08:41:29.000Z</time>
      </trkpt>
      <trkpt lat="47.68749" lon="6.15875">
        <ele>246.19999694824</ele>
        <time>2012-07-20T08:41:31.000Z</time>
      </trkpt>
      <trkpt lat="47.68738" lon="6.15887">
        <ele>246.19999694824</ele>
        <time>2012-07-20T08:41:36.000Z</time>
      </trkpt>
      <trkpt lat="47.68734" lon="6.15893">
        <ele>246.19999694824</ele>
        <time>2012-07-20T08:41:41.000Z</time>
      </trkpt>
      <trkpt lat="47.68734" lon="6.15893">
        <ele>246.19999694824</ele>
        <time>2012-07-20T08:41:42.000Z</time>
      </trkpt>
      <trkpt lat="47.68736" lon="6.15885">
        <ele>244</ele>
        <time>2012-07-20T08:47:01.000Z</time>
      </trkpt>
      <trkpt lat="47.68738" lon="6.15885">
        <ele>244</ele>
        <time>2012-07-20T08:47:03.000Z</time>
      </trkpt>
      <trkpt lat="47.68748" lon="6.15879">
        <ele>244</ele>
        <time>2012-07-20T08:47:09.000Z</time>
      </trkpt>
      <trkpt lat="47.68759" lon="6.15868">
        <ele>244</ele>
        <time>2012-07-20T08:47:16.000Z</time>
      </trkpt>
      <trkpt lat="47.68768" lon="6.15858">
        <ele>244.39999389648</ele>
        <time>2012-07-20T08:47:21.000Z</time>
      </trkpt>
      <trkpt lat="47.68771" lon="6.15857">
        <ele>244.80000305176</ele>
        <time>2012-07-20T08:47:22.000Z</time>
      </trkpt>
      <trkpt lat="47.68773" lon="6.15855">
        <ele>245.19999694824</ele>
        <time>2012-07-20T08:47:23.000Z</time>
      </trkpt>
      <trkpt lat="47.68774" lon="6.15853">
        <ele>245.80000305176</ele>
        <time>2012-07-20T08:47:24.000Z</time>
      </trkpt>
      <trkpt lat="47.68777" lon="6.15851">
        <ele>246.19999694824</ele>
        <time>2012-07-20T08:47:25.000Z</time>
      </trkpt>
      <trkpt lat="47.68781" lon="6.15847">
        <ele>246.19999694824</ele>
        <time>2012-07-20T08:47:27.000Z</time>
      </trkpt>
      <trkpt lat="47.68796" lon="6.15834">
        <ele>246.19999694824</ele>
        <time>2012-07-20T08:47:34.000Z</time>
      </trkpt>
      <trkpt lat="47.68802" lon="6.15827">
        <ele>246.60000610352</ele>
        <time>2012-07-20T08:47:38.000Z</time>
      </trkpt>
      <trkpt lat="47.68804" lon="6.15825">
        <ele>247</ele>
        <time>2012-07-20T08:47:39.000Z</time>
      </trkpt>
      <trkpt lat="47.68805" lon="6.15823">
        <ele>247.39999389648</ele>
        <time>2012-07-20T08:47:40.000Z</time>
      </trkpt>
      <trkpt lat="47.68807" lon="6.15821">
        <ele>247.80000305176</ele>
        <time>2012-07-20T08:47:41.000Z</time>
      </trkpt>
      <trkpt lat="47.68808" lon="6.15818">
        <ele>248.19999694824</ele>
        <time>2012-07-20T08:47:42.000Z</time>
      </trkpt>
      <trkpt lat="47.68819" lon="6.15804">
        <ele>248.19999694824</ele>
        <time>2012-07-20T08:47:49.000Z</time>
      </trkpt>
      <trkpt lat="47.68826" lon="6.15788">
        <ele>248.19999694824</ele>
        <time>2012-07-20T08:47:56.000Z</time>
      </trkpt>
      <trkpt lat="47.68831" lon="6.1578">
        <ele>248.60000610352</ele>
        <time>2012-07-20T08:48:00.000Z</time>
      </trkpt>
      <trkpt lat="47.68832" lon="6.15777">
        <ele>249</ele>
        <time>2012-07-20T08:48:01.000Z</time>
      </trkpt>
      <trkpt lat="47.68833" lon="6.15775">
        <ele>249.39999389648</ele>
        <time>2012-07-20T08:48:02.000Z</time>
      </trkpt>
      <trkpt lat="47.68833" lon="6.15773">
        <ele>250.19999694824</ele>
        <time>2012-07-20T08:48:03.000Z</time>
      </trkpt>
      <trkpt lat="47.68834" lon="6.1577">
        <ele>250.19999694824</ele>
        <time>2012-07-20T08:48:04.000Z</time>
      </trkpt>
      <trkpt lat="47.68843" lon="6.15747">
        <ele>250.19999694824</ele>
        <time>2012-07-20T08:48:14.000Z</time>
      </trkpt>
      <trkpt lat="47.68849" lon="6.15723">
        <ele>250.19999694824</ele>
        <time>2012-07-20T08:48:23.000Z</time>
      </trkpt>
      <trkpt lat="47.68853" lon="6.157">
        <ele>250.19999694824</ele>
        <time>2012-07-20T08:48:30.000Z</time>
      </trkpt>
      <trkpt lat="47.68859" lon="6.15676">
        <ele>250.19999694824</ele>
        <time>2012-07-20T08:48:37.000Z</time>
      </trkpt>
      <trkpt lat="47.6886" lon="6.15666">
        <ele>250.60000610352</ele>
        <time>2012-07-20T08:48:40.000Z</time>
      </trkpt>
      <trkpt lat="47.6886" lon="6.15663">
        <ele>251</ele>
        <time>2012-07-20T08:48:41.000Z</time>
      </trkpt>
      <trkpt lat="47.68861" lon="6.1566">
        <ele>251.39999389648</ele>
        <time>2012-07-20T08:48:42.000Z</time>
      </trkpt>
      <trkpt lat="47.68862" lon="6.15657">
        <ele>251.80000305176</ele>
        <time>2012-07-20T08:48:43.000Z</time>
      </trkpt>
      <trkpt lat="47.68862" lon="6.15654">
        <ele>252.19999694824</ele>
        <time>2012-07-20T08:48:44.000Z</time>
      </trkpt>
      <trkpt lat="47.68866" lon="6.1563">
        <ele>252.19999694824</ele>
        <time>2012-07-20T08:48:51.000Z</time>
      </trkpt>
      <trkpt lat="47.6887" lon="6.15611">
        <ele>252.19999694824</ele>
        <time>2012-07-20T08:48:57.000Z</time>
      </trkpt>
      <trkpt lat="47.68872" lon="6.15593">
        <ele>252.19999694824</ele>
        <time>2012-07-20T08:49:03.000Z</time>
      </trkpt>
      <trkpt lat="47.68872" lon="6.15587">
        <ele>252.60000610352</ele>
        <time>2012-07-20T08:49:05.000Z</time>
      </trkpt>
      <trkpt lat="47.68872" lon="6.15584">
        <ele>253</ele>
        <time>2012-07-20T08:49:06.000Z</time>
      </trkpt>
      <trkpt lat="47.68872" lon="6.15582">
        <ele>253.39999389648</ele>
        <time>2012-07-20T08:49:07.000Z</time>
      </trkpt>
      <trkpt lat="47.68872" lon="6.15579">
        <ele>253.80000305176</ele>
        <time>2012-07-20T08:49:08.000Z</time>
      </trkpt>
      <trkpt lat="47.68873" lon="6.15576">
        <ele>254.19999694824</ele>
        <time>2012-07-20T08:49:09.000Z</time>
      </trkpt>
      <trkpt lat="47.68873" lon="6.15574">
        <ele>254.19999694824</ele>
        <time>2012-07-20T08:49:10.000Z</time>
      </trkpt>
      <trkpt lat="47.68875" lon="6.15558">
        <ele>254.19999694824</ele>
        <time>2012-07-20T08:49:16.000Z</time>
      </trkpt>
      <trkpt lat="47.68875" lon="6.15543">
        <ele>254.60000610352</ele>
        <time>2012-07-20T08:49:22.000Z</time>
      </trkpt>
      <trkpt lat="47.68875" lon="6.1554">
        <ele>255</ele>
        <time>2012-07-20T08:49:23.000Z</time>
      </trkpt>
      <trkpt lat="47.68875" lon="6.15538">
        <ele>255.39999389648</ele>
        <time>2012-07-20T08:49:24.000Z</time>
      </trkpt>
      <trkpt lat="47.68875" lon="6.15535">
        <ele>255.80000305176</ele>
        <time>2012-07-20T08:49:25.000Z</time>
      </trkpt>
      <trkpt lat="47.68876" lon="6.15533">
        <ele>256.20001220703</ele>
        <time>2012-07-20T08:49:26.000Z</time>
      </trkpt>
      <trkpt lat="47.68876" lon="6.15526">
        <ele>256.20001220703</ele>
        <time>2012-07-20T08:49:29.000Z</time>
      </trkpt>
      <trkpt lat="47.68877" lon="6.15506">
        <ele>256.20001220703</ele>
        <time>2012-07-20T08:49:37.000Z</time>
      </trkpt>
      <trkpt lat="47.68878" lon="6.15498">
        <ele>256.79998779297</ele>
        <time>2012-07-20T08:49:40.000Z</time>
      </trkpt>
      <trkpt lat="47.68878" lon="6.15496">
        <ele>257.20001220703</ele>
        <time>2012-07-20T08:49:41.000Z</time>
      </trkpt>
      <trkpt lat="47.68878" lon="6.15493">
        <ele>258</ele>
        <time>2012-07-20T08:49:42.000Z</time>
      </trkpt>
      <trkpt lat="47.68878" lon="6.1549">
        <ele>258.39999389648</ele>
        <time>2012-07-20T08:49:43.000Z</time>
      </trkpt>
      <trkpt lat="47.68878" lon="6.15488">
        <ele>258.39999389648</ele>
        <time>2012-07-20T08:49:44.000Z</time>
      </trkpt>
      <trkpt lat="47.68879" lon="6.15464">
        <ele>258.39999389648</ele>
        <time>2012-07-20T08:49:53.000Z</time>
      </trkpt>
      <trkpt lat="47.6888" lon="6.1545">
        <ele>258.79998779297</ele>
        <time>2012-07-20T08:49:58.000Z</time>
      </trkpt>
      <trkpt lat="47.68881" lon="6.15448">
        <ele>259.39999389648</ele>
        <time>2012-07-20T08:49:59.000Z</time>
      </trkpt>
      <trkpt lat="47.68881" lon="6.15445">
        <ele>259.79998779297</ele>
        <time>2012-07-20T08:50:00.000Z</time>
      </trkpt>
      <trkpt lat="47.68881" lon="6.15442">
        <ele>260.20001220703</ele>
        <time>2012-07-20T08:50:01.000Z</time>
      </trkpt>
      <trkpt lat="47.6888" lon="6.15439">
        <ele>260.60000610352</ele>
        <time>2012-07-20T08:50:02.000Z</time>
      </trkpt>
      <trkpt lat="47.68878" lon="6.15423">
        <ele>260.60000610352</ele>
        <time>2012-07-20T08:50:08.000Z</time>
      </trkpt>
      <trkpt lat="47.68873" lon="6.15403">
        <ele>261</ele>
        <time>2012-07-20T08:50:16.000Z</time>
      </trkpt>
      <trkpt lat="47.68873" lon="6.15401">
        <ele>261.39999389648</ele>
        <time>2012-07-20T08:50:17.000Z</time>
      </trkpt>
      <trkpt lat="47.68872" lon="6.15398">
        <ele>261.79998779297</ele>
        <time>2012-07-20T08:50:18.000Z</time>
      </trkpt>
      <trkpt lat="47.68872" lon="6.15396">
        <ele>262.39999389648</ele>
        <time>2012-07-20T08:50:19.000Z</time>
      </trkpt>
      <trkpt lat="47.68871" lon="6.15394">
        <ele>262.79998779297</ele>
        <time>2012-07-20T08:50:20.000Z</time>
      </trkpt>
      <trkpt lat="47.68867" lon="6.15385">
        <ele>262.79998779297</ele>
        <time>2012-07-20T08:50:24.000Z</time>
      </trkpt>
      <trkpt lat="47.68864" lon="6.15367">
        <ele>262.79998779297</ele>
        <time>2012-07-20T08:50:30.000Z</time>
      </trkpt>
      <trkpt lat="47.68862" lon="6.15363">
        <ele>263.20001220703</ele>
        <time>2012-07-20T08:50:31.000Z</time>
      </trkpt>
      <trkpt lat="47.68861" lon="6.1536">
        <ele>264</ele>
        <time>2012-07-20T08:50:32.000Z</time>
      </trkpt>
      <trkpt lat="47.6886" lon="6.15357">
        <ele>264.39999389648</ele>
        <time>2012-07-20T08:50:33.000Z</time>
      </trkpt>
      <trkpt lat="47.68859" lon="6.15354">
        <ele>265</ele>
        <time>2012-07-20T08:50:34.000Z</time>
      </trkpt>
      <trkpt lat="47.68857" lon="6.15351">
        <ele>265</ele>
        <time>2012-07-20T08:50:36.000Z</time>
      </trkpt>
      <trkpt lat="47.68854" lon="6.15338">
        <ele>265.39999389648</ele>
        <time>2012-07-20T08:50:42.000Z</time>
      </trkpt>
      <trkpt lat="47.68854" lon="6.15336">
        <ele>265.79998779297</ele>
        <time>2012-07-20T08:50:43.000Z</time>
      </trkpt>
      <trkpt lat="47.68853" lon="6.15334">
        <ele>266.20001220703</ele>
        <time>2012-07-20T08:50:44.000Z</time>
      </trkpt>
      <trkpt lat="47.68853" lon="6.15332">
        <ele>266.60000610352</ele>
        <time>2012-07-20T08:50:45.000Z</time>
      </trkpt>
      <trkpt lat="47.68852" lon="6.15329">
        <ele>267</ele>
        <time>2012-07-20T08:50:46.000Z</time>
      </trkpt>
      <trkpt lat="47.68851" lon="6.15315">
        <ele>267</ele>
        <time>2012-07-20T08:50:53.000Z</time>
      </trkpt>
      <trkpt lat="47.68849" lon="6.15299">
        <ele>267</ele>
        <time>2012-07-20T08:51:00.000Z</time>
      </trkpt>
      <trkpt lat="47.68847" lon="6.15281">
        <ele>267</ele>
        <time>2012-07-20T08:51:08.000Z</time>
      </trkpt>
      <trkpt lat="47.68847" lon="6.15276">
        <ele>267.39999389648</ele>
        <time>2012-07-20T08:51:10.000Z</time>
      </trkpt>
      <trkpt lat="47.68846" lon="6.15275">
        <ele>267.79998779297</ele>
        <time>2012-07-20T08:51:11.000Z</time>
      </trkpt>
      <trkpt lat="47.68846" lon="6.15273">
        <ele>268.20001220703</ele>
        <time>2012-07-20T08:51:12.000Z</time>
      </trkpt>
      <trkpt lat="47.68844" lon="6.15271">
        <ele>268.60000610352</ele>
        <time>2012-07-20T08:51:13.000Z</time>
      </trkpt>
      <trkpt lat="47.68843" lon="6.15269">
        <ele>269</ele>
        <time>2012-07-20T08:51:14.000Z</time>
      </trkpt>
      <trkpt lat="47.68841" lon="6.1526">
        <ele>269</ele>
        <time>2012-07-20T08:51:19.000Z</time>
      </trkpt>
      <trkpt lat="47.68839" lon="6.15246">
        <ele>269</ele>
        <time>2012-07-20T08:51:25.000Z</time>
      </trkpt>
      <trkpt lat="47.68837" lon="6.15243">
        <ele>269.60000610352</ele>
        <time>2012-07-20T08:51:27.000Z</time>
      </trkpt>
      <trkpt lat="47.68836" lon="6.15241">
        <ele>270</ele>
        <time>2012-07-20T08:51:28.000Z</time>
      </trkpt>
      <trkpt lat="47.68836" lon="6.1524">
        <ele>270.39999389648</ele>
        <time>2012-07-20T08:51:29.000Z</time>
      </trkpt>
      <trkpt lat="47.68835" lon="6.15238">
        <ele>270.79998779297</ele>
        <time>2012-07-20T08:51:30.000Z</time>
      </trkpt>
      <trkpt lat="47.68835" lon="6.15236">
        <ele>271.20001220703</ele>
        <time>2012-07-20T08:51:31.000Z</time>
      </trkpt>
      <trkpt lat="47.68835" lon="6.15224">
        <ele>271.20001220703</ele>
        <time>2012-07-20T08:51:37.000Z</time>
      </trkpt>
      <trkpt lat="47.68835" lon="6.15219">
        <ele>271.20001220703</ele>
        <time>2012-07-20T08:54:08.000Z</time>
      </trkpt>
      <trkpt lat="47.68834" lon="6.15213">
        <ele>271.20001220703</ele>
        <time>2012-07-20T08:54:10.000Z</time>
      </trkpt>
      <trkpt lat="47.68831" lon="6.15189">
        <ele>271.20001220703</ele>
        <time>2012-07-20T08:54:18.000Z</time>
      </trkpt>
      <trkpt lat="47.68827" lon="6.15158">
        <ele>271.20001220703</ele>
        <time>2012-07-20T08:54:28.000Z</time>
      </trkpt>
      <trkpt lat="47.68824" lon="6.15136">
        <ele>271.20001220703</ele>
        <time>2012-07-20T08:54:36.000Z</time>
      </trkpt>
      <trkpt lat="47.68824" lon="6.15125">
        <ele>271.60000610352</ele>
        <time>2012-07-20T08:54:40.000Z</time>
      </trkpt>
      <trkpt lat="47.68823" lon="6.15122">
        <ele>272</ele>
        <time>2012-07-20T08:54:41.000Z</time>
      </trkpt>
      <trkpt lat="47.68823" lon="6.15119">
        <ele>272.39999389648</ele>
        <time>2012-07-20T08:54:42.000Z</time>
      </trkpt>
      <trkpt lat="47.68823" lon="6.15116">
        <ele>272.79998779297</ele>
        <time>2012-07-20T08:54:43.000Z</time>
      </trkpt>
      <trkpt lat="47.68822" lon="6.15113">
        <ele>273.39999389648</ele>
        <time>2012-07-20T08:54:44.000Z</time>
      </trkpt>
      <trkpt lat="47.68819" lon="6.15084">
        <ele>273.39999389648</ele>
        <time>2012-07-20T08:54:54.000Z</time>
      </trkpt>
      <trkpt lat="47.68818" lon="6.15062">
        <ele>273.39999389648</ele>
        <time>2012-07-20T08:55:02.000Z</time>
      </trkpt>
      <trkpt lat="47.68819" lon="6.15042">
        <ele>273.39999389648</ele>
        <time>2012-07-20T08:55:09.000Z</time>
      </trkpt>
      <trkpt lat="47.68821" lon="6.15018">
        <ele>273.39999389648</ele>
        <time>2012-07-20T08:55:17.000Z</time>
      </trkpt>
      <trkpt lat="47.68824" lon="6.14991">
        <ele>273.39999389648</ele>
        <time>2012-07-20T08:55:25.000Z</time>
      </trkpt>
      <trkpt lat="47.68828" lon="6.14963">
        <ele>273.39999389648</ele>
        <time>2012-07-20T08:55:33.000Z</time>
      </trkpt>
      <trkpt lat="47.68832" lon="6.14932">
        <ele>273.39999389648</ele>
        <time>2012-07-20T08:55:41.000Z</time>
      </trkpt>
      <trkpt lat="47.68837" lon="6.14889">
        <ele>273.39999389648</ele>
        <time>2012-07-20T08:55:50.000Z</time>
      </trkpt>
      <trkpt lat="47.68832" lon="6.14861">
        <ele>273.39999389648</ele>
        <time>2012-07-20T08:55:56.000Z</time>
      </trkpt>
      <trkpt lat="47.68822" lon="6.14831">
        <ele>273.39999389648</ele>
        <time>2012-07-20T08:56:04.000Z</time>
      </trkpt>
      <trkpt lat="47.68812" lon="6.14803">
        <ele>273.39999389648</ele>
        <time>2012-07-20T08:56:12.000Z</time>
      </trkpt>
      <trkpt lat="47.68802" lon="6.14778">
        <ele>273.39999389648</ele>
        <time>2012-07-20T08:56:20.000Z</time>
      </trkpt>
      <trkpt lat="47.68796" lon="6.14762">
        <ele>273.79998779297</ele>
        <time>2012-07-20T08:56:25.000Z</time>
      </trkpt>
      <trkpt lat="47.68795" lon="6.14759">
        <ele>274.20001220703</ele>
        <time>2012-07-20T08:56:26.000Z</time>
      </trkpt>
      <trkpt lat="47.68794" lon="6.14756">
        <ele>274.60000610352</ele>
        <time>2012-07-20T08:56:27.000Z</time>
      </trkpt>
      <trkpt lat="47.68793" lon="6.14753">
        <ele>275</ele>
        <time>2012-07-20T08:56:28.000Z</time>
      </trkpt>
      <trkpt lat="47.68791" lon="6.14749">
        <ele>275.39999389648</ele>
        <time>2012-07-20T08:56:29.000Z</time>
      </trkpt>
      <trkpt lat="47.68782" lon="6.14721">
        <ele>275.39999389648</ele>
        <time>2012-07-20T08:56:38.000Z</time>
      </trkpt>
      <trkpt lat="47.68773" lon="6.14697">
        <ele>275.39999389648</ele>
        <time>2012-07-20T08:56:46.000Z</time>
      </trkpt>
      <trkpt lat="47.68764" lon="6.1467">
        <ele>275.39999389648</ele>
        <time>2012-07-20T08:56:55.000Z</time>
      </trkpt>
      <trkpt lat="47.68758" lon="6.14654">
        <ele>275.79998779297</ele>
        <time>2012-07-20T08:57:01.000Z</time>
      </trkpt>
      <trkpt lat="47.68757" lon="6.14652">
        <ele>276.20001220703</ele>
        <time>2012-07-20T08:57:02.000Z</time>
      </trkpt>
      <trkpt lat="47.68756" lon="6.14649">
        <ele>276.60000610352</ele>
        <time>2012-07-20T08:57:03.000Z</time>
      </trkpt>
      <trkpt lat="47.68755" lon="6.14646">
        <ele>277</ele>
        <time>2012-07-20T08:57:04.000Z</time>
      </trkpt>
      <trkpt lat="47.68754" lon="6.14644">
        <ele>277.39999389648</ele>
        <time>2012-07-20T08:57:05.000Z</time>
      </trkpt>
      <trkpt lat="47.68749" lon="6.14631">
        <ele>277.39999389648</ele>
        <time>2012-07-20T08:57:10.000Z</time>
      </trkpt>
      <trkpt lat="47.68743" lon="6.14614">
        <ele>277.39999389648</ele>
        <time>2012-07-20T08:57:17.000Z</time>
      </trkpt>
      <trkpt lat="47.68735" lon="6.14595">
        <ele>277.39999389648</ele>
        <time>2012-07-20T08:57:24.000Z</time>
      </trkpt>
      <trkpt lat="47.68728" lon="6.14576">
        <ele>277.79998779297</ele>
        <time>2012-07-20T08:57:31.000Z</time>
      </trkpt>
      <trkpt lat="47.68727" lon="6.14574">
        <ele>278.60000610352</ele>
        <time>2012-07-20T08:57:32.000Z</time>
      </trkpt>
      <trkpt lat="47.68726" lon="6.14571">
        <ele>279</ele>
        <time>2012-07-20T08:57:33.000Z</time>
      </trkpt>
      <trkpt lat="47.68725" lon="6.14568">
        <ele>279.39999389648</ele>
        <time>2012-07-20T08:57:34.000Z</time>
      </trkpt>
      <trkpt lat="47.68718" lon="6.14548">
        <ele>279.39999389648</ele>
        <time>2012-07-20T08:57:41.000Z</time>
      </trkpt>
      <trkpt lat="47.68711" lon="6.14529">
        <ele>279.39999389648</ele>
        <time>2012-07-20T08:57:48.000Z</time>
      </trkpt>
      <trkpt lat="47.68704" lon="6.14511">
        <ele>279.39999389648</ele>
        <time>2012-07-20T08:57:54.000Z</time>
      </trkpt>
      <trkpt lat="47.68696" lon="6.1449">
        <ele>279.39999389648</ele>
        <time>2012-07-20T08:58:01.000Z</time>
      </trkpt>
      <trkpt lat="47.68687" lon="6.14466">
        <ele>279.39999389648</ele>
        <time>2012-07-20T08:58:09.000Z</time>
      </trkpt>
      <trkpt lat="47.6868" lon="6.14444">
        <ele>279.39999389648</ele>
        <time>2012-07-20T08:58:16.000Z</time>
      </trkpt>
      <trkpt lat="47.68671" lon="6.14419">
        <ele>279.39999389648</ele>
        <time>2012-07-20T08:58:24.000Z</time>
      </trkpt>
      <trkpt lat="47.68658" lon="6.14384">
        <ele>279.39999389648</ele>
        <time>2012-07-20T08:58:34.000Z</time>
      </trkpt>
      <trkpt lat="47.68647" lon="6.14355">
        <ele>279.39999389648</ele>
        <time>2012-07-20T08:58:43.000Z</time>
      </trkpt>
      <trkpt lat="47.68639" lon="6.14334">
        <ele>279.39999389648</ele>
        <time>2012-07-20T08:58:49.000Z</time>
      </trkpt>
      <trkpt lat="47.68631" lon="6.14312">
        <ele>279.39999389648</ele>
        <time>2012-07-20T08:58:56.000Z</time>
      </trkpt>
      <trkpt lat="47.6862" lon="6.14284">
        <ele>279.39999389648</ele>
        <time>2012-07-20T08:59:05.000Z</time>
      </trkpt>
      <trkpt lat="47.68608" lon="6.1426">
        <ele>280</ele>
        <time>2012-07-20T08:59:13.000Z</time>
      </trkpt>
      <trkpt lat="47.68607" lon="6.14257">
        <ele>280.39999389648</ele>
        <time>2012-07-20T08:59:14.000Z</time>
      </trkpt>
      <trkpt lat="47.68606" lon="6.14255">
        <ele>280.79998779297</ele>
        <time>2012-07-20T08:59:15.000Z</time>
      </trkpt>
      <trkpt lat="47.68605" lon="6.14252">
        <ele>281.20001220703</ele>
        <time>2012-07-20T08:59:16.000Z</time>
      </trkpt>
      <trkpt lat="47.68603" lon="6.14249">
        <ele>281.60000610352</ele>
        <time>2012-07-20T08:59:17.000Z</time>
      </trkpt>
      <trkpt lat="47.68597" lon="6.14236">
        <ele>281.60000610352</ele>
        <time>2012-07-20T08:59:22.000Z</time>
      </trkpt>
      <trkpt lat="47.68583" lon="6.1421">
        <ele>281.60000610352</ele>
        <time>2012-07-20T08:59:32.000Z</time>
      </trkpt>
      <trkpt lat="47.68573" lon="6.14191">
        <ele>281.60000610352</ele>
        <time>2012-07-20T08:59:40.000Z</time>
      </trkpt>
      <trkpt lat="47.68563" lon="6.14173">
        <ele>282</ele>
        <time>2012-07-20T08:59:48.000Z</time>
      </trkpt>
      <trkpt lat="47.68562" lon="6.14171">
        <ele>282.39999389648</ele>
        <time>2012-07-20T08:59:49.000Z</time>
      </trkpt>
      <trkpt lat="47.68561" lon="6.14169">
        <ele>283</ele>
        <time>2012-07-20T08:59:50.000Z</time>
      </trkpt>
      <trkpt lat="47.6856" lon="6.14167">
        <ele>283.39999389648</ele>
        <time>2012-07-20T08:59:51.000Z</time>
      </trkpt>
      <trkpt lat="47.68559" lon="6.14165">
        <ele>283.79998779297</ele>
        <time>2012-07-20T08:59:52.000Z</time>
      </trkpt>
      <trkpt lat="47.68555" lon="6.14158">
        <ele>283.79998779297</ele>
        <time>2012-07-20T08:59:55.000Z</time>
      </trkpt>
      <trkpt lat="47.68546" lon="6.14141">
        <ele>283.79998779297</ele>
        <time>2012-07-20T09:00:02.000Z</time>
      </trkpt>
      <trkpt lat="47.68536" lon="6.14121">
        <ele>283.79998779297</ele>
        <time>2012-07-20T09:00:10.000Z</time>
      </trkpt>
      <trkpt lat="47.68524" lon="6.141">
        <ele>283.79998779297</ele>
        <time>2012-07-20T09:00:17.000Z</time>
      </trkpt>
      <trkpt lat="47.68516" lon="6.14081">
        <ele>283.79998779297</ele>
        <time>2012-07-20T09:00:23.000Z</time>
      </trkpt>
      <trkpt lat="47.68513" lon="6.14075">
        <ele>283.79998779297</ele>
        <time>2012-07-20T09:00:27.000Z</time>
      </trkpt>
      <trkpt lat="47.68512" lon="6.14075">
        <ele>283.79998779297</ele>
        <time>2012-07-20T09:02:28.000Z</time>
      </trkpt>
      <trkpt lat="47.68504" lon="6.14059">
        <ele>283.79998779297</ele>
        <time>2012-07-20T09:02:34.000Z</time>
      </trkpt>
      <trkpt lat="47.68491" lon="6.14033">
        <ele>283.79998779297</ele>
        <time>2012-07-20T09:02:41.000Z</time>
      </trkpt>
      <trkpt lat="47.68481" lon="6.14016">
        <ele>284.39999389648</ele>
        <time>2012-07-20T09:02:46.000Z</time>
      </trkpt>
      <trkpt lat="47.68479" lon="6.14013">
        <ele>284.79998779297</ele>
        <time>2012-07-20T09:02:47.000Z</time>
      </trkpt>
      <trkpt lat="47.68477" lon="6.1401">
        <ele>285.39999389648</ele>
        <time>2012-07-20T09:02:48.000Z</time>
      </trkpt>
      <trkpt lat="47.68476" lon="6.14007">
        <ele>286</ele>
        <time>2012-07-20T09:02:49.000Z</time>
      </trkpt>
      <trkpt lat="47.68474" lon="6.14004">
        <ele>286.60000610352</ele>
        <time>2012-07-20T09:02:50.000Z</time>
      </trkpt>
      <trkpt lat="47.68466" lon="6.1399">
        <ele>286.60000610352</ele>
        <time>2012-07-20T09:02:54.000Z</time>
      </trkpt>
      <trkpt lat="47.68452" lon="6.13963">
        <ele>286.60000610352</ele>
        <time>2012-07-20T09:03:01.000Z</time>
      </trkpt>
      <trkpt lat="47.68431" lon="6.13924">
        <ele>286.60000610352</ele>
        <time>2012-07-20T09:03:10.000Z</time>
      </trkpt>
      <trkpt lat="47.68413" lon="6.13889">
        <ele>286.60000610352</ele>
        <time>2012-07-20T09:03:17.000Z</time>
      </trkpt>
      <trkpt lat="47.68406" lon="6.13874">
        <ele>286.20001220703</ele>
        <time>2012-07-20T09:03:20.000Z</time>
      </trkpt>
      <trkpt lat="47.68404" lon="6.13869">
        <ele>285.79998779297</ele>
        <time>2012-07-20T09:03:21.000Z</time>
      </trkpt>
      <trkpt lat="47.68401" lon="6.13864">
        <ele>285.39999389648</ele>
        <time>2012-07-20T09:03:22.000Z</time>
      </trkpt>
      <trkpt lat="47.68398" lon="6.13859">
        <ele>284.79998779297</ele>
        <time>2012-07-20T09:03:23.000Z</time>
      </trkpt>
      <trkpt lat="47.68395" lon="6.13855">
        <ele>284.39999389648</ele>
        <time>2012-07-20T09:03:24.000Z</time>
      </trkpt>
      <trkpt lat="47.68384" lon="6.13834">
        <ele>284.39999389648</ele>
        <time>2012-07-20T09:03:30.000Z</time>
      </trkpt>
      <trkpt lat="47.68384" lon="6.13808">
        <ele>284.39999389648</ele>
        <time>2012-07-20T09:03:36.000Z</time>
      </trkpt>
      <trkpt lat="47.6839" lon="6.1378">
        <ele>284.39999389648</ele>
        <time>2012-07-20T09:03:43.000Z</time>
      </trkpt>
      <trkpt lat="47.68387" lon="6.13768">
        <ele>284</ele>
        <time>2012-07-20T09:03:46.000Z</time>
      </trkpt>
      <trkpt lat="47.68384" lon="6.13765">
        <ele>283.60000610352</ele>
        <time>2012-07-20T09:03:47.000Z</time>
      </trkpt>
      <trkpt lat="47.68381" lon="6.13762">
        <ele>283.20001220703</ele>
        <time>2012-07-20T09:03:48.000Z</time>
      </trkpt>
      <trkpt lat="47.68377" lon="6.13758">
        <ele>282.79998779297</ele>
        <time>2012-07-20T09:03:49.000Z</time>
      </trkpt>
      <trkpt lat="47.68374" lon="6.13754">
        <ele>282.20001220703</ele>
        <time>2012-07-20T09:03:50.000Z</time>
      </trkpt>
      <trkpt lat="47.68366" lon="6.13746">
        <ele>282.20001220703</ele>
        <time>2012-07-20T09:03:52.000Z</time>
      </trkpt>
      <trkpt lat="47.68358" lon="6.13737">
        <ele>281.79998779297</ele>
        <time>2012-07-20T09:03:54.000Z</time>
      </trkpt>
      <trkpt lat="47.68353" lon="6.13733">
        <ele>281.39999389648</ele>
        <time>2012-07-20T09:03:55.000Z</time>
      </trkpt>
      <trkpt lat="47.68349" lon="6.13728">
        <ele>281</ele>
        <time>2012-07-20T09:03:56.000Z</time>
      </trkpt>
      <trkpt lat="47.68345" lon="6.13723">
        <ele>280.60000610352</ele>
        <time>2012-07-20T09:03:57.000Z</time>
      </trkpt>
      <trkpt lat="47.68341" lon="6.13719">
        <ele>280.20001220703</ele>
        <time>2012-07-20T09:03:58.000Z</time>
      </trkpt>
      <trkpt lat="47.68333" lon="6.1371">
        <ele>280.20001220703</ele>
        <time>2012-07-20T09:04:00.000Z</time>
      </trkpt>
      <trkpt lat="47.68324" lon="6.13701">
        <ele>279.79998779297</ele>
        <time>2012-07-20T09:04:02.000Z</time>
      </trkpt>
      <trkpt lat="47.6832" lon="6.13696">
        <ele>279.39999389648</ele>
        <time>2012-07-20T09:04:03.000Z</time>
      </trkpt>
      <trkpt lat="47.68315" lon="6.13692">
        <ele>279</ele>
        <time>2012-07-20T09:04:04.000Z</time>
      </trkpt>
      <trkpt lat="47.68311" lon="6.13688">
        <ele>278.60000610352</ele>
        <time>2012-07-20T09:04:05.000Z</time>
      </trkpt>
      <trkpt lat="47.68306" lon="6.13683">
        <ele>278</ele>
        <time>2012-07-20T09:04:06.000Z</time>
      </trkpt>
      <trkpt lat="47.68277" lon="6.13652">
        <ele>277.60000610352</ele>
        <time>2012-07-20T09:04:13.000Z</time>
      </trkpt>
      <trkpt lat="47.68273" lon="6.13648">
        <ele>277.20001220703</ele>
        <time>2012-07-20T09:04:14.000Z</time>
      </trkpt>
      <trkpt lat="47.68269" lon="6.13644">
        <ele>276.79998779297</ele>
        <time>2012-07-20T09:04:15.000Z</time>
      </trkpt>
      <trkpt lat="47.68265" lon="6.1364">
        <ele>276.39999389648</ele>
        <time>2012-07-20T09:04:16.000Z</time>
      </trkpt>
      <trkpt lat="47.68261" lon="6.13635">
        <ele>276</ele>
        <time>2012-07-20T09:04:17.000Z</time>
      </trkpt>
      <trkpt lat="47.68248" lon="6.13621">
        <ele>275.60000610352</ele>
        <time>2012-07-20T09:04:20.000Z</time>
      </trkpt>
      <trkpt lat="47.68244" lon="6.13617">
        <ele>275.20001220703</ele>
        <time>2012-07-20T09:04:21.000Z</time>
      </trkpt>
      <trkpt lat="47.6824" lon="6.13612">
        <ele>274.79998779297</ele>
        <time>2012-07-20T09:04:22.000Z</time>
      </trkpt>
      <trkpt lat="47.68235" lon="6.13608">
        <ele>274.39999389648</ele>
        <time>2012-07-20T09:04:23.000Z</time>
      </trkpt>
      <trkpt lat="47.6823" lon="6.13603">
        <ele>273.79998779297</ele>
        <time>2012-07-20T09:04:24.000Z</time>
      </trkpt>
      <trkpt lat="47.68225" lon="6.13598">
        <ele>273.39999389648</ele>
        <time>2012-07-20T09:04:25.000Z</time>
      </trkpt>
      <trkpt lat="47.68219" lon="6.13592">
        <ele>273</ele>
        <time>2012-07-20T09:04:26.000Z</time>
      </trkpt>
      <trkpt lat="47.68213" lon="6.13587">
        <ele>272.60000610352</ele>
        <time>2012-07-20T09:04:27.000Z</time>
      </trkpt>
      <trkpt lat="47.68207" lon="6.1358">
        <ele>272.20001220703</ele>
        <time>2012-07-20T09:04:28.000Z</time>
      </trkpt>
      <trkpt lat="47.68201" lon="6.13573">
        <ele>271.60000610352</ele>
        <time>2012-07-20T09:04:29.000Z</time>
      </trkpt>
      <trkpt lat="47.68194" lon="6.13565">
        <ele>271</ele>
        <time>2012-07-20T09:04:30.000Z</time>
      </trkpt>
      <trkpt lat="47.68187" lon="6.13557">
        <ele>270.39999389648</ele>
        <time>2012-07-20T09:04:31.000Z</time>
      </trkpt>
      <trkpt lat="47.6818" lon="6.13548">
        <ele>269</ele>
        <time>2012-07-20T09:04:32.000Z</time>
      </trkpt>
      <trkpt lat="47.68172" lon="6.1354">
        <ele>268.20001220703</ele>
        <time>2012-07-20T09:04:33.000Z</time>
      </trkpt>
      <trkpt lat="47.68164" lon="6.13531">
        <ele>267.39999389648</ele>
        <time>2012-07-20T09:04:34.000Z</time>
      </trkpt>
      <trkpt lat="47.68156" lon="6.13523">
        <ele>266.39999389648</ele>
        <time>2012-07-20T09:04:35.000Z</time>
      </trkpt>
      <trkpt lat="47.68147" lon="6.13514">
        <ele>265.60000610352</ele>
        <time>2012-07-20T09:04:36.000Z</time>
      </trkpt>
      <trkpt lat="47.68138" lon="6.13505">
        <ele>264.79998779297</ele>
        <time>2012-07-20T09:04:37.000Z</time>
      </trkpt>
      <trkpt lat="47.68129" lon="6.13495">
        <ele>264</ele>
        <time>2012-07-20T09:04:38.000Z</time>
      </trkpt>
      <trkpt lat="47.6812" lon="6.13486">
        <ele>263.39999389648</ele>
        <time>2012-07-20T09:04:39.000Z</time>
      </trkpt>
      <trkpt lat="47.6811" lon="6.13476">
        <ele>262.79998779297</ele>
        <time>2012-07-20T09:04:40.000Z</time>
      </trkpt>
      <trkpt lat="47.68101" lon="6.13467">
        <ele>262.20001220703</ele>
        <time>2012-07-20T09:04:41.000Z</time>
      </trkpt>
      <trkpt lat="47.68092" lon="6.13457">
        <ele>261.39999389648</ele>
        <time>2012-07-20T09:04:42.000Z</time>
      </trkpt>
      <trkpt lat="47.68083" lon="6.13448">
        <ele>260.79998779297</ele>
        <time>2012-07-20T09:04:43.000Z</time>
      </trkpt>
      <trkpt lat="47.68074" lon="6.13439">
        <ele>260</ele>
        <time>2012-07-20T09:04:44.000Z</time>
      </trkpt>
      <trkpt lat="47.68066" lon="6.1343">
        <ele>259.39999389648</ele>
        <time>2012-07-20T09:04:45.000Z</time>
      </trkpt>
      <trkpt lat="47.68057" lon="6.13421">
        <ele>258.79998779297</ele>
        <time>2012-07-20T09:04:46.000Z</time>
      </trkpt>
      <trkpt lat="47.68049" lon="6.13413">
        <ele>258.20001220703</ele>
        <time>2012-07-20T09:04:47.000Z</time>
      </trkpt>
      <trkpt lat="47.68042" lon="6.13405">
        <ele>257.60000610352</ele>
        <time>2012-07-20T09:04:48.000Z</time>
      </trkpt>
      <trkpt lat="47.68034" lon="6.13397">
        <ele>257</ele>
        <time>2012-07-20T09:04:49.000Z</time>
      </trkpt>
      <trkpt lat="47.68027" lon="6.1339">
        <ele>257</ele>
        <time>2012-07-20T09:04:50.000Z</time>
      </trkpt>
      <trkpt lat="47.67989" lon="6.13351">
        <ele>257</ele>
        <time>2012-07-20T09:04:56.000Z</time>
      </trkpt>
      <trkpt lat="47.67967" lon="6.1333">
        <ele>257</ele>
        <time>2012-07-20T09:05:01.000Z</time>
      </trkpt>
      <trkpt lat="47.67958" lon="6.1332">
        <ele>257</ele>
        <time>2012-07-20T09:05:05.000Z</time>
      </trkpt>
      <trkpt lat="47.67956" lon="6.13316">
        <ele>257.39999389648</ele>
        <time>2012-07-20T09:05:07.000Z</time>
      </trkpt>
      <trkpt lat="47.67954" lon="6.13315">
        <ele>257.79998779297</ele>
        <time>2012-07-20T09:05:08.000Z</time>
      </trkpt>
      <trkpt lat="47.67953" lon="6.13314">
        <ele>258.20001220703</ele>
        <time>2012-07-20T09:05:09.000Z</time>
      </trkpt>
      <trkpt lat="47.67952" lon="6.13313">
        <ele>258.60000610352</ele>
        <time>2012-07-20T09:05:10.000Z</time>
      </trkpt>
      <trkpt lat="47.6795" lon="6.13311">
        <ele>259.20001220703</ele>
        <time>2012-07-20T09:05:11.000Z</time>
      </trkpt>
      <trkpt lat="47.67943" lon="6.13304">
        <ele>259.20001220703</ele>
        <time>2012-07-20T09:05:16.000Z</time>
      </trkpt>
      <trkpt lat="47.67933" lon="6.13295">
        <ele>259.20001220703</ele>
        <time>2012-07-20T09:05:21.000Z</time>
      </trkpt>
      <trkpt lat="47.6792" lon="6.1328">
        <ele>259.20001220703</ele>
        <time>2012-07-20T09:05:27.000Z</time>
      </trkpt>
      <trkpt lat="47.67917" lon="6.13277">
        <ele>259.60000610352</ele>
        <time>2012-07-20T09:05:28.000Z</time>
      </trkpt>
      <trkpt lat="47.67915" lon="6.13275">
        <ele>260</ele>
        <time>2012-07-20T09:05:29.000Z</time>
      </trkpt>
      <trkpt lat="47.67912" lon="6.13271">
        <ele>260.39999389648</ele>
        <time>2012-07-20T09:05:30.000Z</time>
      </trkpt>
      <trkpt lat="47.67909" lon="6.13269">
        <ele>260.79998779297</ele>
        <time>2012-07-20T09:05:31.000Z</time>
      </trkpt>
      <trkpt lat="47.67906" lon="6.13266">
        <ele>261.20001220703</ele>
        <time>2012-07-20T09:05:32.000Z</time>
      </trkpt>
      <trkpt lat="47.67903" lon="6.13262">
        <ele>261.20001220703</ele>
        <time>2012-07-20T09:05:33.000Z</time>
      </trkpt>
      <trkpt lat="47.67883" lon="6.13239">
        <ele>261.20001220703</ele>
        <time>2012-07-20T09:05:40.000Z</time>
      </trkpt>
      <trkpt lat="47.67867" lon="6.13214">
        <ele>261.20001220703</ele>
        <time>2012-07-20T09:05:45.000Z</time>
      </trkpt>
      <trkpt lat="47.67857" lon="6.13196">
        <ele>260.79998779297</ele>
        <time>2012-07-20T09:05:48.000Z</time>
      </trkpt>
      <trkpt lat="47.67853" lon="6.1319">
        <ele>260.20001220703</ele>
        <time>2012-07-20T09:05:49.000Z</time>
      </trkpt>
      <trkpt lat="47.6785" lon="6.13183">
        <ele>259.79998779297</ele>
        <time>2012-07-20T09:05:50.000Z</time>
      </trkpt>
      <trkpt lat="47.67847" lon="6.13177">
        <ele>259.39999389648</ele>
        <time>2012-07-20T09:05:51.000Z</time>
      </trkpt>
      <trkpt lat="47.67843" lon="6.13169">
        <ele>259</ele>
        <time>2012-07-20T09:05:52.000Z</time>
      </trkpt>
      <trkpt lat="47.6784" lon="6.13162">
        <ele>259</ele>
        <time>2012-07-20T09:05:53.000Z</time>
      </trkpt>
      <trkpt lat="47.67828" lon="6.1314">
        <ele>258.60000610352</ele>
        <time>2012-07-20T09:05:56.000Z</time>
      </trkpt>
      <trkpt lat="47.67825" lon="6.13133">
        <ele>258.20001220703</ele>
        <time>2012-07-20T09:05:57.000Z</time>
      </trkpt>
      <trkpt lat="47.67821" lon="6.13125">
        <ele>257.60000610352</ele>
        <time>2012-07-20T09:05:58.000Z</time>
      </trkpt>
      <trkpt lat="47.67818" lon="6.13117">
        <ele>257.20001220703</ele>
        <time>2012-07-20T09:05:59.000Z</time>
      </trkpt>
      <trkpt lat="47.67815" lon="6.1311">
        <ele>256.79998779297</ele>
        <time>2012-07-20T09:06:00.000Z</time>
      </trkpt>
      <trkpt lat="47.67812" lon="6.13103">
        <ele>256.79998779297</ele>
        <time>2012-07-20T09:06:01.000Z</time>
      </trkpt>
      <trkpt lat="47.67799" lon="6.13077">
        <ele>256.79998779297</ele>
        <time>2012-07-20T09:06:05.000Z</time>
      </trkpt>
      <trkpt lat="47.67785" lon="6.13045">
        <ele>256.79998779297</ele>
        <time>2012-07-20T09:06:10.000Z</time>
      </trkpt>
      <trkpt lat="47.67781" lon="6.13038">
        <ele>256.79998779297</ele>
        <time>2012-07-20T09:06:11.000Z</time>
      </trkpt>
      <trkpt lat="47.67778" lon="6.13032">
        <ele>256.39999389648</ele>
        <time>2012-07-20T09:06:12.000Z</time>
      </trkpt>
      <trkpt lat="47.67775" lon="6.13025">
        <ele>256</ele>
        <time>2012-07-20T09:06:13.000Z</time>
      </trkpt>
      <trkpt lat="47.67772" lon="6.13019">
        <ele>255.60000610352</ele>
        <time>2012-07-20T09:06:14.000Z</time>
      </trkpt>
      <trkpt lat="47.67769" lon="6.13013">
        <ele>255.19999694824</ele>
        <time>2012-07-20T09:06:15.000Z</time>
      </trkpt>
      <trkpt lat="47.67766" lon="6.13007">
        <ele>254.80000305176</ele>
        <time>2012-07-20T09:06:16.000Z</time>
      </trkpt>
      <trkpt lat="47.67762" lon="6.13001">
        <ele>254.80000305176</ele>
        <time>2012-07-20T09:06:17.000Z</time>
      </trkpt>
      <trkpt lat="47.67758" lon="6.12996">
        <ele>254.80000305176</ele>
        <time>2012-07-20T09:06:18.000Z</time>
      </trkpt>
      <trkpt lat="47.67754" lon="6.12991">
        <ele>254.80000305176</ele>
        <time>2012-07-20T09:06:19.000Z</time>
      </trkpt>
      <trkpt lat="47.67744" lon="6.12982">
        <ele>254.80000305176</ele>
        <time>2012-07-20T09:06:21.000Z</time>
      </trkpt>
      <trkpt lat="47.67735" lon="6.12972">
        <ele>254.80000305176</ele>
        <time>2012-07-20T09:06:23.000Z</time>
      </trkpt>
      <trkpt lat="47.6773" lon="6.12967">
        <ele>254.39999389648</ele>
        <time>2012-07-20T09:06:24.000Z</time>
      </trkpt>
      <trkpt lat="47.67726" lon="6.12961">
        <ele>254</ele>
        <time>2012-07-20T09:06:25.000Z</time>
      </trkpt>
      <trkpt lat="47.67721" lon="6.12956">
        <ele>253.60000610352</ele>
        <time>2012-07-20T09:06:26.000Z</time>
      </trkpt>
      <trkpt lat="47.67717" lon="6.1295">
        <ele>253.19999694824</ele>
        <time>2012-07-20T09:06:27.000Z</time>
      </trkpt>
      <trkpt lat="47.67712" lon="6.12945">
        <ele>252.80000305176</ele>
        <time>2012-07-20T09:06:28.000Z</time>
      </trkpt>
      <trkpt lat="47.67697" lon="6.12928">
        <ele>252.80000305176</ele>
        <time>2012-07-20T09:06:31.000Z</time>
      </trkpt>
      <trkpt lat="47.67687" lon="6.12917">
        <ele>252.39999389648</ele>
        <time>2012-07-20T09:06:33.000Z</time>
      </trkpt>
      <trkpt lat="47.67682" lon="6.12911">
        <ele>251.80000305176</ele>
        <time>2012-07-20T09:06:34.000Z</time>
      </trkpt>
      <trkpt lat="47.67677" lon="6.12905">
        <ele>251</ele>
        <time>2012-07-20T09:06:35.000Z</time>
      </trkpt>
      <trkpt lat="47.67671" lon="6.12899">
        <ele>250.60000610352</ele>
        <time>2012-07-20T09:06:36.000Z</time>
      </trkpt>
      <trkpt lat="47.67666" lon="6.12893">
        <ele>250.60000610352</ele>
        <time>2012-07-20T09:06:37.000Z</time>
      </trkpt>
      <trkpt lat="47.67635" lon="6.12859">
        <ele>250.19999694824</ele>
        <time>2012-07-20T09:06:43.000Z</time>
      </trkpt>
      <trkpt lat="47.6763" lon="6.12854">
        <ele>249.80000305176</ele>
        <time>2012-07-20T09:06:44.000Z</time>
      </trkpt>
      <trkpt lat="47.67624" lon="6.12849">
        <ele>249.39999389648</ele>
        <time>2012-07-20T09:06:45.000Z</time>
      </trkpt>
      <trkpt lat="47.67619" lon="6.12845">
        <ele>249</ele>
        <time>2012-07-20T09:06:46.000Z</time>
      </trkpt>
      <trkpt lat="47.67615" lon="6.1284">
        <ele>248.60000610352</ele>
        <time>2012-07-20T09:06:47.000Z</time>
      </trkpt>
      <trkpt lat="47.67612" lon="6.12836">
        <ele>248.60000610352</ele>
        <time>2012-07-20T09:06:48.000Z</time>
      </trkpt>
      <trkpt lat="47.67609" lon="6.12833">
        <ele>248.60000610352</ele>
        <time>2012-07-20T09:06:49.000Z</time>
      </trkpt>
      <trkpt lat="47.67592" lon="6.12804">
        <ele>248.60000610352</ele>
        <time>2012-07-20T09:06:56.000Z</time>
      </trkpt>
      <trkpt lat="47.67582" lon="6.12783">
        <ele>248.19999694824</ele>
        <time>2012-07-20T09:07:00.000Z</time>
      </trkpt>
      <trkpt lat="47.6758" lon="6.12776">
        <ele>247.80000305176</ele>
        <time>2012-07-20T09:07:01.000Z</time>
      </trkpt>
      <trkpt lat="47.67577" lon="6.1277">
        <ele>247.39999389648</ele>
        <time>2012-07-20T09:07:02.000Z</time>
      </trkpt>
      <trkpt lat="47.67575" lon="6.12763">
        <ele>247</ele>
        <time>2012-07-20T09:07:03.000Z</time>
      </trkpt>
      <trkpt lat="47.67573" lon="6.12757">
        <ele>246.60000610352</ele>
        <time>2012-07-20T09:07:04.000Z</time>
      </trkpt>
      <trkpt lat="47.67561" lon="6.12723">
        <ele>246.60000610352</ele>
        <time>2012-07-20T09:07:09.000Z</time>
      </trkpt>
      <trkpt lat="47.67554" lon="6.12709">
        <ele>246.19999694824</ele>
        <time>2012-07-20T09:07:11.000Z</time>
      </trkpt>
      <trkpt lat="47.67551" lon="6.12701">
        <ele>245.80000305176</ele>
        <time>2012-07-20T09:07:12.000Z</time>
      </trkpt>
      <trkpt lat="47.67547" lon="6.12694">
        <ele>245.39999389648</ele>
        <time>2012-07-20T09:07:13.000Z</time>
      </trkpt>
      <trkpt lat="47.67544" lon="6.12685">
        <ele>245</ele>
        <time>2012-07-20T09:07:14.000Z</time>
      </trkpt>
      <trkpt lat="47.67541" lon="6.12677">
        <ele>244.60000610352</ele>
        <time>2012-07-20T09:07:15.000Z</time>
      </trkpt>
      <trkpt lat="47.67532" lon="6.12655">
        <ele>244</ele>
        <time>2012-07-20T09:07:18.000Z</time>
      </trkpt>
      <trkpt lat="47.67529" lon="6.12649">
        <ele>243.60000610352</ele>
        <time>2012-07-20T09:07:19.000Z</time>
      </trkpt>
      <trkpt lat="47.67527" lon="6.12642">
        <ele>243</ele>
        <time>2012-07-20T09:07:20.000Z</time>
      </trkpt>
      <trkpt lat="47.67524" lon="6.12636">
        <ele>242.60000610352</ele>
        <time>2012-07-20T09:07:21.000Z</time>
      </trkpt>
      <trkpt lat="47.67522" lon="6.12631">
        <ele>242.19999694824</ele>
        <time>2012-07-20T09:07:22.000Z</time>
      </trkpt>
      <trkpt lat="47.67513" lon="6.12612">
        <ele>241.60000610352</ele>
        <time>2012-07-20T09:07:26.000Z</time>
      </trkpt>
      <trkpt lat="47.6751" lon="6.12609">
        <ele>241.19999694824</ele>
        <time>2012-07-20T09:07:27.000Z</time>
      </trkpt>
      <trkpt lat="47.67506" lon="6.1261">
        <ele>240.80000305176</ele>
        <time>2012-07-20T09:07:28.000Z</time>
      </trkpt>
      <trkpt lat="47.67502" lon="6.12612">
        <ele>240.39999389648</ele>
        <time>2012-07-20T09:07:29.000Z</time>
      </trkpt>
      <trkpt lat="47.67499" lon="6.12616">
        <ele>240</ele>
        <time>2012-07-20T09:07:30.000Z</time>
      </trkpt>
      <trkpt lat="47.67481" lon="6.12636">
        <ele>240</ele>
        <time>2012-07-20T09:07:36.000Z</time>
      </trkpt>
      <trkpt lat="47.67453" lon="6.12667">
        <ele>240</ele>
        <time>2012-07-20T09:07:46.000Z</time>
      </trkpt>
      <trkpt lat="47.67426" lon="6.12698">
        <ele>240</ele>
        <time>2012-07-20T09:07:55.000Z</time>
      </trkpt>
      <trkpt lat="47.67397" lon="6.12729">
        <ele>240</ele>
        <time>2012-07-20T09:08:04.000Z</time>
      </trkpt>
      <trkpt lat="47.67363" lon="6.12761">
        <ele>240</ele>
        <time>2012-07-20T09:08:14.000Z</time>
      </trkpt>
      <trkpt lat="47.6733" lon="6.12781">
        <ele>240</ele>
        <time>2012-07-20T09:08:22.000Z</time>
      </trkpt>
      <trkpt lat="47.67304" lon="6.12791">
        <ele>239.60000610352</ele>
        <time>2012-07-20T09:08:28.000Z</time>
      </trkpt>
      <trkpt lat="47.67298" lon="6.12793">
        <ele>239.19999694824</ele>
        <time>2012-07-20T09:08:29.000Z</time>
      </trkpt>
      <trkpt lat="47.67294" lon="6.12794">
        <ele>238.80000305176</ele>
        <time>2012-07-20T09:08:30.000Z</time>
      </trkpt>
      <trkpt lat="47.67289" lon="6.12796">
        <ele>238.39999389648</ele>
        <time>2012-07-20T09:08:31.000Z</time>
      </trkpt>
      <trkpt lat="47.67284" lon="6.12797">
        <ele>238</ele>
        <time>2012-07-20T09:08:32.000Z</time>
      </trkpt>
      <trkpt lat="47.67271" lon="6.12801">
        <ele>238</ele>
        <time>2012-07-20T09:08:35.000Z</time>
      </trkpt>
      <trkpt lat="47.67262" lon="6.12804">
        <ele>238</ele>
        <time>2012-07-20T09:08:37.000Z</time>
      </trkpt>
      <trkpt lat="47.67214" lon="6.12819">
        <ele>238</ele>
        <time>2012-07-20T09:08:47.000Z</time>
      </trkpt>
      <trkpt lat="47.6718" lon="6.1283">
        <ele>238</ele>
        <time>2012-07-20T09:08:55.000Z</time>
      </trkpt>
      <trkpt lat="47.67143" lon="6.12842">
        <ele>238</ele>
        <time>2012-07-20T09:09:05.000Z</time>
      </trkpt>
      <trkpt lat="47.67107" lon="6.12853">
        <ele>238</ele>
        <time>2012-07-20T09:09:15.000Z</time>
      </trkpt>
      <trkpt lat="47.67076" lon="6.12873">
        <ele>238</ele>
        <time>2012-07-20T09:09:24.000Z</time>
      </trkpt>
      <trkpt lat="47.67054" lon="6.129">
        <ele>238</ele>
        <time>2012-07-20T09:09:31.000Z</time>
      </trkpt>
      <trkpt lat="47.67031" lon="6.12945">
        <ele>238</ele>
        <time>2012-07-20T09:09:40.000Z</time>
      </trkpt>
      <trkpt lat="47.67014" lon="6.12991">
        <ele>238</ele>
        <time>2012-07-20T09:09:47.000Z</time>
      </trkpt>
      <trkpt lat="47.67007" lon="6.13011">
        <ele>237.60000610352</ele>
        <time>2012-07-20T09:09:50.000Z</time>
      </trkpt>
      <trkpt lat="47.67004" lon="6.13018">
        <ele>237.19999694824</ele>
        <time>2012-07-20T09:09:51.000Z</time>
      </trkpt>
      <trkpt lat="47.67002" lon="6.13024">
        <ele>236.80000305176</ele>
        <time>2012-07-20T09:09:52.000Z</time>
      </trkpt>
      <trkpt lat="47.67" lon="6.1303">
        <ele>236.39999389648</ele>
        <time>2012-07-20T09:09:53.000Z</time>
      </trkpt>
      <trkpt lat="47.66998" lon="6.13036">
        <ele>236</ele>
        <time>2012-07-20T09:09:54.000Z</time>
      </trkpt>
      <trkpt lat="47.66987" lon="6.13065">
        <ele>236</ele>
        <time>2012-07-20T09:09:59.000Z</time>
      </trkpt>
      <trkpt lat="47.66985" lon="6.13071">
        <ele>236</ele>
        <time>2012-07-20T09:10:00.000Z</time>
      </trkpt>
      <trkpt lat="47.66974" lon="6.13101">
        <ele>236</ele>
        <time>2012-07-20T09:10:06.000Z</time>
      </trkpt>
      <trkpt lat="47.66961" lon="6.13137">
        <ele>236</ele>
        <time>2012-07-20T09:10:14.000Z</time>
      </trkpt>
      <trkpt lat="47.66952" lon="6.13158">
        <ele>236</ele>
        <time>2012-07-20T09:10:20.000Z</time>
      </trkpt>
      <trkpt lat="47.6695" lon="6.13165">
        <ele>236.39999389648</ele>
        <time>2012-07-20T09:10:22.000Z</time>
      </trkpt>
      <trkpt lat="47.66949" lon="6.13168">
        <ele>236.80000305176</ele>
        <time>2012-07-20T09:10:23.000Z</time>
      </trkpt>
      <trkpt lat="47.66948" lon="6.13171">
        <ele>237.19999694824</ele>
        <time>2012-07-20T09:10:24.000Z</time>
      </trkpt>
      <trkpt lat="47.66947" lon="6.13174">
        <ele>237.60000610352</ele>
        <time>2012-07-20T09:10:25.000Z</time>
      </trkpt>
      <trkpt lat="47.66945" lon="6.13177">
        <ele>238</ele>
        <time>2012-07-20T09:10:26.000Z</time>
      </trkpt>
      <trkpt lat="47.66944" lon="6.13181">
        <ele>238</ele>
        <time>2012-07-20T09:10:27.000Z</time>
      </trkpt>
      <trkpt lat="47.66936" lon="6.13203">
        <ele>238</ele>
        <time>2012-07-20T09:10:33.000Z</time>
      </trkpt>
      <trkpt lat="47.6693" lon="6.13221">
        <ele>238.39999389648</ele>
        <time>2012-07-20T09:10:37.000Z</time>
      </trkpt>
      <trkpt lat="47.66929" lon="6.13225">
        <ele>238.80000305176</ele>
        <time>2012-07-20T09:10:38.000Z</time>
      </trkpt>
      <trkpt lat="47.66928" lon="6.13229">
        <ele>239.39999389648</ele>
        <time>2012-07-20T09:10:39.000Z</time>
      </trkpt>
      <trkpt lat="47.66926" lon="6.13232">
        <ele>239.80000305176</ele>
        <time>2012-07-20T09:10:40.000Z</time>
      </trkpt>
      <trkpt lat="47.66925" lon="6.13236">
        <ele>240.19999694824</ele>
        <time>2012-07-20T09:10:41.000Z</time>
      </trkpt>
      <trkpt lat="47.6692" lon="6.13262">
        <ele>240.19999694824</ele>
        <time>2012-07-20T09:10:47.000Z</time>
      </trkpt>
      <trkpt lat="47.66916" lon="6.13287">
        <ele>240.19999694824</ele>
        <time>2012-07-20T09:10:54.000Z</time>
      </trkpt>
      <trkpt lat="47.66909" lon="6.13313">
        <ele>240.19999694824</ele>
        <time>2012-07-20T09:11:02.000Z</time>
      </trkpt>
      <trkpt lat="47.66906" lon="6.13323">
        <ele>240.60000610352</ele>
        <time>2012-07-20T09:11:05.000Z</time>
      </trkpt>
      <trkpt lat="47.66905" lon="6.13327">
        <ele>241</ele>
        <time>2012-07-20T09:11:06.000Z</time>
      </trkpt>
      <trkpt lat="47.66905" lon="6.13331">
        <ele>241.80000305176</ele>
        <time>2012-07-20T09:11:07.000Z</time>
      </trkpt>
      <trkpt lat="47.66904" lon="6.13335">
        <ele>242.19999694824</ele>
        <time>2012-07-20T09:11:08.000Z</time>
      </trkpt>
      <trkpt lat="47.66903" lon="6.13338">
        <ele>242.19999694824</ele>
        <time>2012-07-20T09:11:09.000Z</time>
      </trkpt>
      <trkpt lat="47.66897" lon="6.13362">
        <ele>242.19999694824</ele>
        <time>2012-07-20T09:11:15.000Z</time>
      </trkpt>
      <trkpt lat="47.66887" lon="6.13391">
        <ele>242.19999694824</ele>
        <time>2012-07-20T09:11:22.000Z</time>
      </trkpt>
      <trkpt lat="47.66872" lon="6.13423">
        <ele>242.19999694824</ele>
        <time>2012-07-20T09:11:29.000Z</time>
      </trkpt>
      <trkpt lat="47.6685" lon="6.13462">
        <ele>241.80000305176</ele>
        <time>2012-07-20T09:11:36.000Z</time>
      </trkpt>
      <trkpt lat="47.66846" lon="6.13468">
        <ele>241.39999389648</ele>
        <time>2012-07-20T09:11:37.000Z</time>
      </trkpt>
      <trkpt lat="47.66842" lon="6.13474">
        <ele>240.80000305176</ele>
        <time>2012-07-20T09:11:38.000Z</time>
      </trkpt>
      <trkpt lat="47.66838" lon="6.1348">
        <ele>240.39999389648</ele>
        <time>2012-07-20T09:11:39.000Z</time>
      </trkpt>
      <trkpt lat="47.66834" lon="6.13487">
        <ele>240</ele>
        <time>2012-07-20T09:11:40.000Z</time>
      </trkpt>
      <trkpt lat="47.66822" lon="6.13508">
        <ele>240</ele>
        <time>2012-07-20T09:11:43.000Z</time>
      </trkpt>
      <trkpt lat="47.66806" lon="6.13563">
        <ele>240</ele>
        <time>2012-07-20T09:11:50.000Z</time>
      </trkpt>
      <trkpt lat="47.66801" lon="6.13612">
        <ele>240</ele>
        <time>2012-07-20T09:11:56.000Z</time>
      </trkpt>
      <trkpt lat="47.66801" lon="6.1362">
        <ele>239.60000610352</ele>
        <time>2012-07-20T09:11:57.000Z</time>
      </trkpt>
      <trkpt lat="47.66801" lon="6.13627">
        <ele>239</ele>
        <time>2012-07-20T09:11:58.000Z</time>
      </trkpt>
      <trkpt lat="47.66801" lon="6.13634">
        <ele>238.60000610352</ele>
        <time>2012-07-20T09:11:59.000Z</time>
      </trkpt>
      <trkpt lat="47.66802" lon="6.13641">
        <ele>238.19999694824</ele>
        <time>2012-07-20T09:12:00.000Z</time>
      </trkpt>
      <trkpt lat="47.66802" lon="6.13648">
        <ele>237.80000305176</ele>
        <time>2012-07-20T09:12:01.000Z</time>
      </trkpt>
      <trkpt lat="47.66804" lon="6.13662">
        <ele>237.80000305176</ele>
        <time>2012-07-20T09:12:03.000Z</time>
      </trkpt>
      <trkpt lat="47.66805" lon="6.13676">
        <ele>237.80000305176</ele>
        <time>2012-07-20T09:12:05.000Z</time>
      </trkpt>
      <trkpt lat="47.6681" lon="6.13701">
        <ele>237.80000305176</ele>
        <time>2012-07-20T09:12:09.000Z</time>
      </trkpt>
      <trkpt lat="47.66816" lon="6.13736">
        <ele>237.80000305176</ele>
        <time>2012-07-20T09:12:15.000Z</time>
      </trkpt>
      <trkpt lat="47.66819" lon="6.13772">
        <ele>237.80000305176</ele>
        <time>2012-07-20T09:12:21.000Z</time>
      </trkpt>
      <trkpt lat="47.66819" lon="6.13777">
        <ele>237.80000305176</ele>
        <time>2012-07-20T09:12:22.000Z</time>
      </trkpt>
      <trkpt lat="47.66815" lon="6.13824">
        <ele>237.80000305176</ele>
        <time>2012-07-20T09:12:30.000Z</time>
      </trkpt>
      <trkpt lat="47.66802" lon="6.1387">
        <ele>237.80000305176</ele>
        <time>2012-07-20T09:12:38.000Z</time>
      </trkpt>
      <trkpt lat="47.66794" lon="6.13913">
        <ele>237.80000305176</ele>
        <time>2012-07-20T09:12:46.000Z</time>
      </trkpt>
      <trkpt lat="47.66788" lon="6.13956">
        <ele>237.80000305176</ele>
        <time>2012-07-20T09:12:54.000Z</time>
      </trkpt>
      <trkpt lat="47.6678" lon="6.14009">
        <ele>237.80000305176</ele>
        <time>2012-07-20T09:13:03.000Z</time>
      </trkpt>
      <trkpt lat="47.66772" lon="6.14068">
        <ele>237.80000305176</ele>
        <time>2012-07-20T09:13:12.000Z</time>
      </trkpt>
      <trkpt lat="47.66766" lon="6.14121">
        <ele>237.80000305176</ele>
        <time>2012-07-20T09:13:21.000Z</time>
      </trkpt>
      <trkpt lat="47.66763" lon="6.14158">
        <ele>237.80000305176</ele>
        <time>2012-07-20T09:13:28.000Z</time>
      </trkpt>
      <trkpt lat="47.66759" lon="6.14191">
        <ele>237.80000305176</ele>
        <time>2012-07-20T09:13:36.000Z</time>
      </trkpt>
      <trkpt lat="47.66754" lon="6.14218">
        <ele>238.19999694824</ele>
        <time>2012-07-20T09:13:44.000Z</time>
      </trkpt>
      <trkpt lat="47.66752" lon="6.14223">
        <ele>238.80000305176</ele>
        <time>2012-07-20T09:13:45.000Z</time>
      </trkpt>
      <trkpt lat="47.66751" lon="6.14228">
        <ele>239.19999694824</ele>
        <time>2012-07-20T09:13:46.000Z</time>
      </trkpt>
      <trkpt lat="47.66749" lon="6.14233">
        <ele>239.60000610352</ele>
        <time>2012-07-20T09:13:47.000Z</time>
      </trkpt>
      <trkpt lat="47.66747" lon="6.14239">
        <ele>240</ele>
        <time>2012-07-20T09:13:48.000Z</time>
      </trkpt>
      <trkpt lat="47.66747" lon="6.14243">
        <ele>240</ele>
        <time>2012-07-20T09:13:49.000Z</time>
      </trkpt>
      <trkpt lat="47.66744" lon="6.14254">
        <ele>240.39999389648</ele>
        <time>2012-07-20T09:13:52.000Z</time>
      </trkpt>
      <trkpt lat="47.66743" lon="6.14257">
        <ele>240.80000305176</ele>
        <time>2012-07-20T09:13:53.000Z</time>
      </trkpt>
      <trkpt lat="47.66742" lon="6.14261">
        <ele>241.19999694824</ele>
        <time>2012-07-20T09:13:54.000Z</time>
      </trkpt>
      <trkpt lat="47.66742" lon="6.14264">
        <ele>241.60000610352</ele>
        <time>2012-07-20T09:13:55.000Z</time>
      </trkpt>
      <trkpt lat="47.66741" lon="6.14267">
        <ele>242</ele>
        <time>2012-07-20T09:13:56.000Z</time>
      </trkpt>
      <trkpt lat="47.6674" lon="6.14284">
        <ele>242</ele>
        <time>2012-07-20T09:14:02.000Z</time>
      </trkpt>
      <trkpt lat="47.6674" lon="6.14287">
        <ele>242.39999389648</ele>
        <time>2012-07-20T09:14:03.000Z</time>
      </trkpt>
      <trkpt lat="47.66739" lon="6.14289">
        <ele>242.80000305176</ele>
        <time>2012-07-20T09:14:04.000Z</time>
      </trkpt>
      <trkpt lat="47.66738" lon="6.14292">
        <ele>243.19999694824</ele>
        <time>2012-07-20T09:14:05.000Z</time>
      </trkpt>
      <trkpt lat="47.66737" lon="6.14294">
        <ele>243.60000610352</ele>
        <time>2012-07-20T09:14:06.000Z</time>
      </trkpt>
      <trkpt lat="47.66736" lon="6.14296">
        <ele>244</ele>
        <time>2012-07-20T09:14:07.000Z</time>
      </trkpt>
      <trkpt lat="47.66735" lon="6.14299">
        <ele>244</ele>
        <time>2012-07-20T09:14:08.000Z</time>
      </trkpt>
      <trkpt lat="47.66734" lon="6.14305">
        <ele>244</ele>
        <time>2012-07-20T09:14:10.000Z</time>
      </trkpt>
      <trkpt lat="47.66731" lon="6.14322">
        <ele>244.60000610352</ele>
        <time>2012-07-20T09:14:16.000Z</time>
      </trkpt>
      <trkpt lat="47.6673" lon="6.14324">
        <ele>245</ele>
        <time>2012-07-20T09:14:17.000Z</time>
      </trkpt>
      <trkpt lat="47.6673" lon="6.14327">
        <ele>245.39999389648</ele>
        <time>2012-07-20T09:14:18.000Z</time>
      </trkpt>
      <trkpt lat="47.6673" lon="6.1433">
        <ele>245.80000305176</ele>
        <time>2012-07-20T09:14:19.000Z</time>
      </trkpt>
      <trkpt lat="47.66729" lon="6.14333">
        <ele>246.19999694824</ele>
        <time>2012-07-20T09:14:20.000Z</time>
      </trkpt>
      <trkpt lat="47.66728" lon="6.14341">
        <ele>246.19999694824</ele>
        <time>2012-07-20T09:14:23.000Z</time>
      </trkpt>
      <trkpt lat="47.66725" lon="6.14359">
        <ele>246.19999694824</ele>
        <time>2012-07-20T09:14:30.000Z</time>
      </trkpt>
      <trkpt lat="47.66724" lon="6.14363">
        <ele>246.60000610352</ele>
        <time>2012-07-20T09:14:31.000Z</time>
      </trkpt>
      <trkpt lat="47.66723" lon="6.14366">
        <ele>247</ele>
        <time>2012-07-20T09:14:32.000Z</time>
      </trkpt>
      <trkpt lat="47.66723" lon="6.14369">
        <ele>247.39999389648</ele>
        <time>2012-07-20T09:14:33.000Z</time>
      </trkpt>
      <trkpt lat="47.66723" lon="6.14373">
        <ele>247.80000305176</ele>
        <time>2012-07-20T09:14:34.000Z</time>
      </trkpt>
      <trkpt lat="47.66723" lon="6.14376">
        <ele>248.19999694824</ele>
        <time>2012-07-20T09:14:35.000Z</time>
      </trkpt>
      <trkpt lat="47.66721" lon="6.14383">
        <ele>248.19999694824</ele>
        <time>2012-07-20T09:14:37.000Z</time>
      </trkpt>
      <trkpt lat="47.66718" lon="6.14387">
        <ele>248.19999694824</ele>
        <time>2012-07-20T09:14:39.000Z</time>
      </trkpt>
      <trkpt lat="47.66715" lon="6.1439">
        <ele>248.80000305176</ele>
        <time>2012-07-20T09:14:41.000Z</time>
      </trkpt>
      <trkpt lat="47.66713" lon="6.14391">
        <ele>249.19999694824</ele>
        <time>2012-07-20T09:14:42.000Z</time>
      </trkpt>
      <trkpt lat="47.66712" lon="6.14392">
        <ele>249.60000610352</ele>
        <time>2012-07-20T09:14:43.000Z</time>
      </trkpt>
      <trkpt lat="47.66711" lon="6.14394">
        <ele>250</ele>
        <time>2012-07-20T09:14:44.000Z</time>
      </trkpt>
      <trkpt lat="47.6671" lon="6.14395">
        <ele>250.39999389648</ele>
        <time>2012-07-20T09:14:45.000Z</time>
      </trkpt>
      <trkpt lat="47.66709" lon="6.14397">
        <ele>250.39999389648</ele>
        <time>2012-07-20T09:14:46.000Z</time>
      </trkpt>
      <trkpt lat="47.66707" lon="6.1441">
        <ele>250.39999389648</ele>
        <time>2012-07-20T09:14:51.000Z</time>
      </trkpt>
      <trkpt lat="47.66707" lon="6.14413">
        <ele>250.80000305176</ele>
        <time>2012-07-20T09:14:52.000Z</time>
      </trkpt>
      <trkpt lat="47.66707" lon="6.14415">
        <ele>251.19999694824</ele>
        <time>2012-07-20T09:14:53.000Z</time>
      </trkpt>
      <trkpt lat="47.66708" lon="6.14417">
        <ele>251.60000610352</ele>
        <time>2012-07-20T09:14:54.000Z</time>
      </trkpt>
      <trkpt lat="47.66709" lon="6.14418">
        <ele>252</ele>
        <time>2012-07-20T09:14:55.000Z</time>
      </trkpt>
      <trkpt lat="47.6671" lon="6.14419">
        <ele>252.39999389648</ele>
        <time>2012-07-20T09:14:56.000Z</time>
      </trkpt>
      <trkpt lat="47.6671" lon="6.14419">
        <ele>252.39999389648</ele>
        <time>2012-07-20T09:14:57.000Z</time>
      </trkpt>
      <trkpt lat="47.66711" lon="6.14424">
        <ele>252.39999389648</ele>
        <time>2012-07-20T09:15:34.000Z</time>
      </trkpt>
      <trkpt lat="47.66712" lon="6.14432">
        <ele>252.39999389648</ele>
        <time>2012-07-20T09:15:37.000Z</time>
      </trkpt>
      <trkpt lat="47.6671" lon="6.14439">
        <ele>252.39999389648</ele>
        <time>2012-07-20T09:15:40.000Z</time>
      </trkpt>
      <trkpt lat="47.6671" lon="6.14448">
        <ele>252.39999389648</ele>
        <time>2012-07-20T09:15:43.000Z</time>
      </trkpt>
      <trkpt lat="47.6671" lon="6.14467">
        <ele>252.39999389648</ele>
        <time>2012-07-20T09:15:49.000Z</time>
      </trkpt>
      <trkpt lat="47.66709" lon="6.1449">
        <ele>252.39999389648</ele>
        <time>2012-07-20T09:15:57.000Z</time>
      </trkpt>
      <trkpt lat="47.66711" lon="6.14511">
        <ele>252.39999389648</ele>
        <time>2012-07-20T09:16:04.000Z</time>
      </trkpt>
      <trkpt lat="47.66714" lon="6.1453">
        <ele>252.39999389648</ele>
        <time>2012-07-20T09:16:11.000Z</time>
      </trkpt>
      <trkpt lat="47.66716" lon="6.14549">
        <ele>252.39999389648</ele>
        <time>2012-07-20T09:16:18.000Z</time>
      </trkpt>
      <trkpt lat="47.66716" lon="6.14552">
        <ele>252.80000305176</ele>
        <time>2012-07-20T09:16:19.000Z</time>
      </trkpt>
      <trkpt lat="47.66717" lon="6.14554">
        <ele>253.19999694824</ele>
        <time>2012-07-20T09:16:20.000Z</time>
      </trkpt>
      <trkpt lat="47.66718" lon="6.14557">
        <ele>253.60000610352</ele>
        <time>2012-07-20T09:16:21.000Z</time>
      </trkpt>
      <trkpt lat="47.66719" lon="6.1456">
        <ele>254</ele>
        <time>2012-07-20T09:16:22.000Z</time>
      </trkpt>
      <trkpt lat="47.6672" lon="6.14563">
        <ele>254.60000610352</ele>
        <time>2012-07-20T09:16:23.000Z</time>
      </trkpt>
      <trkpt lat="47.66721" lon="6.14574">
        <ele>254.60000610352</ele>
        <time>2012-07-20T09:16:26.000Z</time>
      </trkpt>
      <trkpt lat="47.66724" lon="6.14599">
        <ele>254.60000610352</ele>
        <time>2012-07-20T09:16:34.000Z</time>
      </trkpt>
      <trkpt lat="47.66727" lon="6.1462">
        <ele>254.60000610352</ele>
        <time>2012-07-20T09:16:41.000Z</time>
      </trkpt>
      <trkpt lat="47.6673" lon="6.14653">
        <ele>254.60000610352</ele>
        <time>2012-07-20T09:16:51.000Z</time>
      </trkpt>
      <trkpt lat="47.66733" lon="6.1468">
        <ele>254.60000610352</ele>
        <time>2012-07-20T09:16:58.000Z</time>
      </trkpt>
      <trkpt lat="47.66734" lon="6.14709">
        <ele>254.60000610352</ele>
        <time>2012-07-20T09:17:05.000Z</time>
      </trkpt>
      <trkpt lat="47.66731" lon="6.14739">
        <ele>254.60000610352</ele>
        <time>2012-07-20T09:17:12.000Z</time>
      </trkpt>
      <trkpt lat="47.66724" lon="6.1477">
        <ele>254.60000610352</ele>
        <time>2012-07-20T09:17:19.000Z</time>
      </trkpt>
      <trkpt lat="47.66721" lon="6.14799">
        <ele>254.60000610352</ele>
        <time>2012-07-20T09:17:24.000Z</time>
      </trkpt>
      <trkpt lat="47.66711" lon="6.14808">
        <ele>254.60000610352</ele>
        <time>2012-07-20T09:17:27.000Z</time>
      </trkpt>
      <trkpt lat="47.66701" lon="6.14799">
        <ele>254.60000610352</ele>
        <time>2012-07-20T09:17:30.000Z</time>
      </trkpt>
      <trkpt lat="47.66686" lon="6.14789">
        <ele>254.60000610352</ele>
        <time>2012-07-20T09:17:35.000Z</time>
      </trkpt>
      <trkpt lat="47.66677" lon="6.14802">
        <ele>254.60000610352</ele>
        <time>2012-07-20T09:17:39.000Z</time>
      </trkpt>
      <trkpt lat="47.66672" lon="6.14819">
        <ele>254.60000610352</ele>
        <time>2012-07-20T09:17:43.000Z</time>
      </trkpt>
      <trkpt lat="47.66671" lon="6.14823">
        <ele>254.60000610352</ele>
        <time>2012-07-20T09:17:44.000Z</time>
      </trkpt>
      <trkpt lat="47.66659" lon="6.14857">
        <ele>254.60000610352</ele>
        <time>2012-07-20T09:17:50.000Z</time>
      </trkpt>
      <trkpt lat="47.66656" lon="6.14864">
        <ele>254</ele>
        <time>2012-07-20T09:17:51.000Z</time>
      </trkpt>
      <trkpt lat="47.66654" lon="6.14871">
        <ele>253.60000610352</ele>
        <time>2012-07-20T09:17:52.000Z</time>
      </trkpt>
      <trkpt lat="47.66652" lon="6.14877">
        <ele>253.19999694824</ele>
        <time>2012-07-20T09:17:53.000Z</time>
      </trkpt>
      <trkpt lat="47.6665" lon="6.14883">
        <ele>252.80000305176</ele>
        <time>2012-07-20T09:17:54.000Z</time>
      </trkpt>
      <trkpt lat="47.66649" lon="6.14889">
        <ele>252.19999694824</ele>
        <time>2012-07-20T09:17:55.000Z</time>
      </trkpt>
      <trkpt lat="47.66648" lon="6.14895">
        <ele>252.19999694824</ele>
        <time>2012-07-20T09:17:56.000Z</time>
      </trkpt>
      <trkpt lat="47.66644" lon="6.14907">
        <ele>251.80000305176</ele>
        <time>2012-07-20T09:17:58.000Z</time>
      </trkpt>
      <trkpt lat="47.66641" lon="6.14913">
        <ele>251.39999389648</ele>
        <time>2012-07-20T09:17:59.000Z</time>
      </trkpt>
      <trkpt lat="47.66638" lon="6.14918">
        <ele>251</ele>
        <time>2012-07-20T09:18:00.000Z</time>
      </trkpt>
      <trkpt lat="47.66636" lon="6.14925">
        <ele>250.60000610352</ele>
        <time>2012-07-20T09:18:01.000Z</time>
      </trkpt>
      <trkpt lat="47.66634" lon="6.14932">
        <ele>250.19999694824</ele>
        <time>2012-07-20T09:18:02.000Z</time>
      </trkpt>
      <trkpt lat="47.66631" lon="6.14938">
        <ele>250.19999694824</ele>
        <time>2012-07-20T09:18:03.000Z</time>
      </trkpt>
      <trkpt lat="47.66622" lon="6.14949">
        <ele>249.80000305176</ele>
        <time>2012-07-20T09:18:05.000Z</time>
      </trkpt>
      <trkpt lat="47.66618" lon="6.14955">
        <ele>249.19999694824</ele>
        <time>2012-07-20T09:18:06.000Z</time>
      </trkpt>
      <trkpt lat="47.66615" lon="6.14962">
        <ele>248.19999694824</ele>
        <time>2012-07-20T09:18:07.000Z</time>
      </trkpt>
      <trkpt lat="47.66611" lon="6.14967">
        <ele>247.80000305176</ele>
        <time>2012-07-20T09:18:08.000Z</time>
      </trkpt>
      <trkpt lat="47.66608" lon="6.14972">
        <ele>247.39999389648</ele>
        <time>2012-07-20T09:18:09.000Z</time>
      </trkpt>
      <trkpt lat="47.66605" lon="6.14977">
        <ele>246.80000305176</ele>
        <time>2012-07-20T09:18:10.000Z</time>
      </trkpt>
      <trkpt lat="47.66602" lon="6.14982">
        <ele>246.39999389648</ele>
        <time>2012-07-20T09:18:11.000Z</time>
      </trkpt>
      <trkpt lat="47.666" lon="6.14986">
        <ele>246</ele>
        <time>2012-07-20T09:18:12.000Z</time>
      </trkpt>
      <trkpt lat="47.66598" lon="6.14988">
        <ele>245.60000610352</ele>
        <time>2012-07-20T09:18:13.000Z</time>
      </trkpt>
      <trkpt lat="47.66596" lon="6.14991">
        <ele>245.60000610352</ele>
        <time>2012-07-20T09:18:14.000Z</time>
      </trkpt>
      <trkpt lat="47.66592" lon="6.14999">
        <ele>245.19999694824</ele>
        <time>2012-07-20T09:18:16.000Z</time>
      </trkpt>
      <trkpt lat="47.66589" lon="6.15003">
        <ele>244.60000610352</ele>
        <time>2012-07-20T09:18:17.000Z</time>
      </trkpt>
      <trkpt lat="47.66586" lon="6.15008">
        <ele>244.19999694824</ele>
        <time>2012-07-20T09:18:18.000Z</time>
      </trkpt>
      <trkpt lat="47.66583" lon="6.15012">
        <ele>243.80000305176</ele>
        <time>2012-07-20T09:18:19.000Z</time>
      </trkpt>
      <trkpt lat="47.66581" lon="6.15016">
        <ele>243.39999389648</ele>
        <time>2012-07-20T09:18:20.000Z</time>
      </trkpt>
      <trkpt lat="47.66574" lon="6.15029">
        <ele>243.39999389648</ele>
        <time>2012-07-20T09:18:24.000Z</time>
      </trkpt>
      <trkpt lat="47.66566" lon="6.1504">
        <ele>243</ele>
        <time>2012-07-20T09:18:28.000Z</time>
      </trkpt>
      <trkpt lat="47.66566" lon="6.15042">
        <ele>242.60000610352</ele>
        <time>2012-07-20T09:18:29.000Z</time>
      </trkpt>
      <trkpt lat="47.66565" lon="6.15044">
        <ele>242.19999694824</ele>
        <time>2012-07-20T09:18:30.000Z</time>
      </trkpt>
      <trkpt lat="47.66563" lon="6.15045">
        <ele>241.80000305176</ele>
        <time>2012-07-20T09:18:31.000Z</time>
      </trkpt>
      <trkpt lat="47.66562" lon="6.15046">
        <ele>241.39999389648</ele>
        <time>2012-07-20T09:18:32.000Z</time>
      </trkpt>
      <trkpt lat="47.66557" lon="6.15046">
        <ele>241.39999389648</ele>
        <time>2012-07-20T09:18:35.000Z</time>
      </trkpt>
      <trkpt lat="47.66542" lon="6.15047">
        <ele>241.39999389648</ele>
        <time>2012-07-20T09:18:41.000Z</time>
      </trkpt>
      <trkpt lat="47.66531" lon="6.15047">
        <ele>241</ele>
        <time>2012-07-20T09:18:44.000Z</time>
      </trkpt>
      <trkpt lat="47.66527" lon="6.15047">
        <ele>240.60000610352</ele>
        <time>2012-07-20T09:18:45.000Z</time>
      </trkpt>
      <trkpt lat="47.66524" lon="6.15048">
        <ele>240.19999694824</ele>
        <time>2012-07-20T09:18:46.000Z</time>
      </trkpt>
      <trkpt lat="47.6652" lon="6.15049">
        <ele>239.60000610352</ele>
        <time>2012-07-20T09:18:47.000Z</time>
      </trkpt>
      <trkpt lat="47.66515" lon="6.15048">
        <ele>239.19999694824</ele>
        <time>2012-07-20T09:18:48.000Z</time>
      </trkpt>
      <trkpt lat="47.66496" lon="6.15045">
        <ele>239.19999694824</ele>
        <time>2012-07-20T09:18:53.000Z</time>
      </trkpt>
      <trkpt lat="47.66492" lon="6.15042">
        <ele>239.19999694824</ele>
        <time>2012-07-20T09:18:54.000Z</time>
      </trkpt>
      <trkpt lat="47.66484" lon="6.15038">
        <ele>239.19999694824</ele>
        <time>2012-07-20T09:18:56.000Z</time>
      </trkpt>
      <trkpt lat="47.66466" lon="6.1503">
        <ele>239.19999694824</ele>
        <time>2012-07-20T09:19:00.000Z</time>
      </trkpt>
      <trkpt lat="47.66462" lon="6.15029">
        <ele>239.19999694824</ele>
        <time>2012-07-20T09:19:01.000Z</time>
      </trkpt>
      <trkpt lat="47.66447" lon="6.15033">
        <ele>239.19999694824</ele>
        <time>2012-07-20T09:19:05.000Z</time>
      </trkpt>
      <trkpt lat="47.6642" lon="6.15041">
        <ele>239.19999694824</ele>
        <time>2012-07-20T09:19:13.000Z</time>
      </trkpt>
      <trkpt lat="47.66387" lon="6.15049">
        <ele>239.19999694824</ele>
        <time>2012-07-20T09:19:22.000Z</time>
      </trkpt>
      <trkpt lat="47.66369" lon="6.15051">
        <ele>239.19999694824</ele>
        <time>2012-07-20T09:19:27.000Z</time>
      </trkpt>
      <trkpt lat="47.66347" lon="6.15053">
        <ele>239.19999694824</ele>
        <time>2012-07-20T09:19:33.000Z</time>
      </trkpt>
      <trkpt lat="47.66326" lon="6.1505">
        <ele>239.19999694824</ele>
        <time>2012-07-20T09:19:39.000Z</time>
      </trkpt>
      <trkpt lat="47.66296" lon="6.15044">
        <ele>239.19999694824</ele>
        <time>2012-07-20T09:19:47.000Z</time>
      </trkpt>
      <trkpt lat="47.66263" lon="6.15037">
        <ele>239.19999694824</ele>
        <time>2012-07-20T09:19:54.000Z</time>
      </trkpt>
      <trkpt lat="47.66256" lon="6.15037">
        <ele>239.19999694824</ele>
        <time>2012-07-20T09:19:55.000Z</time>
      </trkpt>
      <trkpt lat="47.66234" lon="6.15036">
        <ele>238.80000305176</ele>
        <time>2012-07-20T09:19:58.000Z</time>
      </trkpt>
      <trkpt lat="47.66227" lon="6.15034">
        <ele>238.39999389648</ele>
        <time>2012-07-20T09:19:59.000Z</time>
      </trkpt>
      <trkpt lat="47.6622" lon="6.15032">
        <ele>238</ele>
        <time>2012-07-20T09:20:00.000Z</time>
      </trkpt>
      <trkpt lat="47.66212" lon="6.15029">
        <ele>237.60000610352</ele>
        <time>2012-07-20T09:20:01.000Z</time>
      </trkpt>
      <trkpt lat="47.66204" lon="6.15028">
        <ele>237.19999694824</ele>
        <time>2012-07-20T09:20:02.000Z</time>
      </trkpt>
      <trkpt lat="47.66196" lon="6.15026">
        <ele>236.60000610352</ele>
        <time>2012-07-20T09:20:03.000Z</time>
      </trkpt>
      <trkpt lat="47.66187" lon="6.15025">
        <ele>236.19999694824</ele>
        <time>2012-07-20T09:20:04.000Z</time>
      </trkpt>
      <trkpt lat="47.66179" lon="6.15023">
        <ele>235.60000610352</ele>
        <time>2012-07-20T09:20:05.000Z</time>
      </trkpt>
      <trkpt lat="47.6617" lon="6.15022">
        <ele>235.19999694824</ele>
        <time>2012-07-20T09:20:06.000Z</time>
      </trkpt>
      <trkpt lat="47.6615" lon="6.15021">
        <ele>234.60000610352</ele>
        <time>2012-07-20T09:20:08.000Z</time>
      </trkpt>
      <trkpt lat="47.6614" lon="6.15022">
        <ele>234.19999694824</ele>
        <time>2012-07-20T09:20:09.000Z</time>
      </trkpt>
      <trkpt lat="47.66129" lon="6.15022">
        <ele>233.80000305176</ele>
        <time>2012-07-20T09:20:10.000Z</time>
      </trkpt>
      <trkpt lat="47.66119" lon="6.15022">
        <ele>232.80000305176</ele>
        <time>2012-07-20T09:20:11.000Z</time>
      </trkpt>
      <trkpt lat="47.66108" lon="6.15022">
        <ele>232.39999389648</ele>
        <time>2012-07-20T09:20:12.000Z</time>
      </trkpt>
      <trkpt lat="47.66098" lon="6.15022">
        <ele>231.80000305176</ele>
        <time>2012-07-20T09:20:13.000Z</time>
      </trkpt>
      <trkpt lat="47.66087" lon="6.15022">
        <ele>231.39999389648</ele>
        <time>2012-07-20T09:20:14.000Z</time>
      </trkpt>
      <trkpt lat="47.66077" lon="6.15022">
        <ele>231</ele>
        <time>2012-07-20T09:20:15.000Z</time>
      </trkpt>
      <trkpt lat="47.66066" lon="6.15022">
        <ele>230.39999389648</ele>
        <time>2012-07-20T09:20:16.000Z</time>
      </trkpt>
      <trkpt lat="47.66055" lon="6.15023">
        <ele>229.80000305176</ele>
        <time>2012-07-20T09:20:17.000Z</time>
      </trkpt>
      <trkpt lat="47.66044" lon="6.15023">
        <ele>229.39999389648</ele>
        <time>2012-07-20T09:20:18.000Z</time>
      </trkpt>
      <trkpt lat="47.66034" lon="6.15023">
        <ele>228.80000305176</ele>
        <time>2012-07-20T09:20:19.000Z</time>
      </trkpt>
      <trkpt lat="47.66024" lon="6.15023">
        <ele>228.19999694824</ele>
        <time>2012-07-20T09:20:20.000Z</time>
      </trkpt>
      <trkpt lat="47.66006" lon="6.15022">
        <ele>228.19999694824</ele>
        <time>2012-07-20T09:20:22.000Z</time>
      </trkpt>
      <trkpt lat="47.65996" lon="6.15021">
        <ele>227.80000305176</ele>
        <time>2012-07-20T09:20:23.000Z</time>
      </trkpt>
      <trkpt lat="47.65988" lon="6.1502">
        <ele>227.19999694824</ele>
        <time>2012-07-20T09:20:24.000Z</time>
      </trkpt>
      <trkpt lat="47.6598" lon="6.1502">
        <ele>226.80000305176</ele>
        <time>2012-07-20T09:20:25.000Z</time>
      </trkpt>
      <trkpt lat="47.65971" lon="6.15019">
        <ele>226.39999389648</ele>
        <time>2012-07-20T09:20:26.000Z</time>
      </trkpt>
      <trkpt lat="47.65964" lon="6.15018">
        <ele>225.80000305176</ele>
        <time>2012-07-20T09:20:27.000Z</time>
      </trkpt>
      <trkpt lat="47.65956" lon="6.15018">
        <ele>225.80000305176</ele>
        <time>2012-07-20T09:20:28.000Z</time>
      </trkpt>
      <trkpt lat="47.65925" lon="6.15017">
        <ele>225.80000305176</ele>
        <time>2012-07-20T09:20:33.000Z</time>
      </trkpt>
      <trkpt lat="47.65904" lon="6.15016">
        <ele>225.80000305176</ele>
        <time>2012-07-20T09:20:38.000Z</time>
      </trkpt>
      <trkpt lat="47.65885" lon="6.15015">
        <ele>225.80000305176</ele>
        <time>2012-07-20T09:20:44.000Z</time>
      </trkpt>
      <trkpt lat="47.65883" lon="6.15015">
        <ele>226.19999694824</ele>
        <time>2012-07-20T09:20:45.000Z</time>
      </trkpt>
      <trkpt lat="47.6588" lon="6.15015">
        <ele>226.60000610352</ele>
        <time>2012-07-20T09:20:46.000Z</time>
      </trkpt>
      <trkpt lat="47.65878" lon="6.15015">
        <ele>227</ele>
        <time>2012-07-20T09:20:47.000Z</time>
      </trkpt>
      <trkpt lat="47.65875" lon="6.15015">
        <ele>227.60000610352</ele>
        <time>2012-07-20T09:20:48.000Z</time>
      </trkpt>
      <trkpt lat="47.65873" lon="6.15015">
        <ele>228</ele>
        <time>2012-07-20T09:20:49.000Z</time>
      </trkpt>
      <trkpt lat="47.65867" lon="6.15014">
        <ele>228</ele>
        <time>2012-07-20T09:20:52.000Z</time>
      </trkpt>
      <trkpt lat="47.65852" lon="6.15014">
        <ele>228</ele>
        <time>2012-07-20T09:20:58.000Z</time>
      </trkpt>
      <trkpt lat="47.6584" lon="6.15016">
        <ele>228.39999389648</ele>
        <time>2012-07-20T09:21:03.000Z</time>
      </trkpt>
      <trkpt lat="47.65838" lon="6.15016">
        <ele>228.80000305176</ele>
        <time>2012-07-20T09:21:04.000Z</time>
      </trkpt>
      <trkpt lat="47.65835" lon="6.15016">
        <ele>229.19999694824</ele>
        <time>2012-07-20T09:21:05.000Z</time>
      </trkpt>
      <trkpt lat="47.65833" lon="6.15016">
        <ele>229.60000610352</ele>
        <time>2012-07-20T09:21:06.000Z</time>
      </trkpt>
      <trkpt lat="47.6583" lon="6.15015">
        <ele>230</ele>
        <time>2012-07-20T09:21:07.000Z</time>
      </trkpt>
      <trkpt lat="47.65818" lon="6.15017">
        <ele>230</ele>
        <time>2012-07-20T09:21:12.000Z</time>
      </trkpt>
      <trkpt lat="47.65799" lon="6.15019">
        <ele>230</ele>
        <time>2012-07-20T09:21:19.000Z</time>
      </trkpt>
      <trkpt lat="47.65776" lon="6.15021">
        <ele>230</ele>
        <time>2012-07-20T09:21:27.000Z</time>
      </trkpt>
      <trkpt lat="47.65756" lon="6.15022">
        <ele>230</ele>
        <time>2012-07-20T09:21:34.000Z</time>
      </trkpt>
      <trkpt lat="47.65733" lon="6.15023">
        <ele>230</ele>
        <time>2012-07-20T09:21:43.000Z</time>
      </trkpt>
      <trkpt lat="47.65713" lon="6.15024">
        <ele>230</ele>
        <time>2012-07-20T09:21:52.000Z</time>
      </trkpt>
      <trkpt lat="47.65707" lon="6.15024">
        <ele>230</ele>
        <time>2012-07-20T09:21:56.000Z</time>
      </trkpt>
      <trkpt lat="47.65707" lon="6.15025">
        <ele>230</ele>
        <time>2012-07-20T09:21:57.000Z</time>
      </trkpt>
      <trkpt lat="47.65706" lon="6.15027">
        <ele>230</ele>
        <time>2012-07-20T09:22:00.000Z</time>
      </trkpt>
      <trkpt lat="47.65705" lon="6.15027">
        <ele>230</ele>
        <time>2012-07-20T09:22:17.000Z</time>
      </trkpt>
      <trkpt lat="47.65704" lon="6.15026">
        <ele>230</ele>
        <time>2012-07-20T09:22:18.000Z</time>
      </trkpt>
      <trkpt lat="47.65701" lon="6.15023">
        <ele>230</ele>
        <time>2012-07-20T09:22:20.000Z</time>
      </trkpt>
      <trkpt lat="47.65693" lon="6.15017">
        <ele>230</ele>
        <time>2012-07-20T09:22:24.000Z</time>
      </trkpt>
      <trkpt lat="47.65667" lon="6.15011">
        <ele>230</ele>
        <time>2012-07-20T09:22:32.000Z</time>
      </trkpt>
      <trkpt lat="47.65633" lon="6.15004">
        <ele>230</ele>
        <time>2012-07-20T09:22:40.000Z</time>
      </trkpt>
      <trkpt lat="47.65592" lon="6.14996">
        <ele>230</ele>
        <time>2012-07-20T09:22:49.000Z</time>
      </trkpt>
      <trkpt lat="47.65553" lon="6.14985">
        <ele>229.60000610352</ele>
        <time>2012-07-20T09:22:57.000Z</time>
      </trkpt>
      <trkpt lat="47.65547" lon="6.14984">
        <ele>229.19999694824</ele>
        <time>2012-07-20T09:22:58.000Z</time>
      </trkpt>
      <trkpt lat="47.65542" lon="6.14984">
        <ele>228.60000610352</ele>
        <time>2012-07-20T09:22:59.000Z</time>
      </trkpt>
      <trkpt lat="47.65536" lon="6.14985">
        <ele>228.19999694824</ele>
        <time>2012-07-20T09:23:00.000Z</time>
      </trkpt>
      <trkpt lat="47.6553" lon="6.14985">
        <ele>227.80000305176</ele>
        <time>2012-07-20T09:23:01.000Z</time>
      </trkpt>
      <trkpt lat="47.65524" lon="6.14987">
        <ele>227.80000305176</ele>
        <time>2012-07-20T09:23:02.000Z</time>
      </trkpt>
      <trkpt lat="47.65518" lon="6.14989">
        <ele>227.80000305176</ele>
        <time>2012-07-20T09:23:03.000Z</time>
      </trkpt>
      <trkpt lat="47.65462" lon="6.15003">
        <ele>227.80000305176</ele>
        <time>2012-07-20T09:23:13.000Z</time>
      </trkpt>
      <trkpt lat="47.6545" lon="6.15005">
        <ele>227.39999389648</ele>
        <time>2012-07-20T09:23:15.000Z</time>
      </trkpt>
      <trkpt lat="47.65444" lon="6.15006">
        <ele>227</ele>
        <time>2012-07-20T09:23:16.000Z</time>
      </trkpt>
      <trkpt lat="47.65438" lon="6.15007">
        <ele>226.60000610352</ele>
        <time>2012-07-20T09:23:17.000Z</time>
      </trkpt>
      <trkpt lat="47.65432" lon="6.15007">
        <ele>226.19999694824</ele>
        <time>2012-07-20T09:23:18.000Z</time>
      </trkpt>
      <trkpt lat="47.65426" lon="6.15006">
        <ele>225.80000305176</ele>
        <time>2012-07-20T09:23:19.000Z</time>
      </trkpt>
      <trkpt lat="47.65414" lon="6.15006">
        <ele>225.80000305176</ele>
        <time>2012-07-20T09:23:21.000Z</time>
      </trkpt>
      <trkpt lat="47.65389" lon="6.15006">
        <ele>225.39999389648</ele>
        <time>2012-07-20T09:23:25.000Z</time>
      </trkpt>
      <trkpt lat="47.65382" lon="6.15007">
        <ele>225</ele>
        <time>2012-07-20T09:23:26.000Z</time>
      </trkpt>
      <trkpt lat="47.65376" lon="6.15008">
        <ele>224.39999389648</ele>
        <time>2012-07-20T09:23:27.000Z</time>
      </trkpt>
      <trkpt lat="47.65369" lon="6.1501">
        <ele>223.60000610352</ele>
        <time>2012-07-20T09:23:28.000Z</time>
      </trkpt>
      <trkpt lat="47.6534" lon="6.15014">
        <ele>223.19999694824</ele>
        <time>2012-07-20T09:23:32.000Z</time>
      </trkpt>
      <trkpt lat="47.65332" lon="6.15016">
        <ele>222.80000305176</ele>
        <time>2012-07-20T09:23:33.000Z</time>
      </trkpt>
      <trkpt lat="47.65324" lon="6.15017">
        <ele>222.19999694824</ele>
        <time>2012-07-20T09:23:34.000Z</time>
      </trkpt>
      <trkpt lat="47.65317" lon="6.15019">
        <ele>221.80000305176</ele>
        <time>2012-07-20T09:23:35.000Z</time>
      </trkpt>
      <trkpt lat="47.65311" lon="6.15019">
        <ele>221.39999389648</ele>
        <time>2012-07-20T09:23:36.000Z</time>
      </trkpt>
      <trkpt lat="47.65302" lon="6.15019">
        <ele>221.39999389648</ele>
        <time>2012-07-20T09:23:38.000Z</time>
      </trkpt>
      <trkpt lat="47.65299" lon="6.1502">
        <ele>221</ele>
        <time>2012-07-20T09:23:39.000Z</time>
      </trkpt>
      <trkpt lat="47.65297" lon="6.15021">
        <ele>220.39999389648</ele>
        <time>2012-07-20T09:23:40.000Z</time>
      </trkpt>
      <trkpt lat="47.65295" lon="6.15021">
        <ele>220</ele>
        <time>2012-07-20T09:23:41.000Z</time>
      </trkpt>
      <trkpt lat="47.65293" lon="6.15021">
        <ele>219.60000610352</ele>
        <time>2012-07-20T09:23:42.000Z</time>
      </trkpt>
      <trkpt lat="47.65291" lon="6.15021">
        <ele>219.19999694824</ele>
        <time>2012-07-20T09:23:43.000Z</time>
      </trkpt>
      <trkpt lat="47.65277" lon="6.15024">
        <ele>219.19999694824</ele>
        <time>2012-07-20T09:23:48.000Z</time>
      </trkpt>
      <trkpt lat="47.65248" lon="6.15029">
        <ele>219.19999694824</ele>
        <time>2012-07-20T09:23:56.000Z</time>
      </trkpt>
      <trkpt lat="47.65219" lon="6.15032">
        <ele>219.19999694824</ele>
        <time>2012-07-20T09:24:03.000Z</time>
      </trkpt>
      <trkpt lat="47.65214" lon="6.15033">
        <ele>218.60000610352</ele>
        <time>2012-07-20T09:24:04.000Z</time>
      </trkpt>
      <trkpt lat="47.6521" lon="6.15034">
        <ele>218.19999694824</ele>
        <time>2012-07-20T09:24:05.000Z</time>
      </trkpt>
      <trkpt lat="47.65206" lon="6.15035">
        <ele>217.80000305176</ele>
        <time>2012-07-20T09:24:06.000Z</time>
      </trkpt>
      <trkpt lat="47.65201" lon="6.15035">
        <ele>217.39999389648</ele>
        <time>2012-07-20T09:24:07.000Z</time>
      </trkpt>
      <trkpt lat="47.65197" lon="6.15035">
        <ele>217</ele>
        <time>2012-07-20T09:24:08.000Z</time>
      </trkpt>
      <trkpt lat="47.6518" lon="6.15037">
        <ele>217</ele>
        <time>2012-07-20T09:24:12.000Z</time>
      </trkpt>
      <trkpt lat="47.65176" lon="6.15038">
        <ele>217</ele>
        <time>2012-07-20T09:24:13.000Z</time>
      </trkpt>
      <trkpt lat="47.65168" lon="6.1504">
        <ele>217</ele>
        <time>2012-07-20T09:24:15.000Z</time>
      </trkpt>
      <trkpt lat="47.65157" lon="6.15046">
        <ele>217</ele>
        <time>2012-07-20T09:24:18.000Z</time>
      </trkpt>
      <trkpt lat="47.65136" lon="6.15064">
        <ele>217</ele>
        <time>2012-07-20T09:24:25.000Z</time>
      </trkpt>
      <trkpt lat="47.65119" lon="6.1508">
        <ele>217</ele>
        <time>2012-07-20T09:24:32.000Z</time>
      </trkpt>
      <trkpt lat="47.65104" lon="6.15092">
        <ele>217</ele>
        <time>2012-07-20T09:24:38.000Z</time>
      </trkpt>
      <trkpt lat="47.65081" lon="6.15114">
        <ele>217</ele>
        <time>2012-07-20T09:24:46.000Z</time>
      </trkpt>
      <trkpt lat="47.65061" lon="6.15122">
        <ele>218.60000610352</ele>
        <time>2012-07-20T09:24:50.000Z</time>
      </trkpt>
      <trkpt lat="47.65061" lon="6.15122">
        <ele>218.60000610352</ele>
        <time>2012-07-20T09:24:53.000Z</time>
      </trkpt>
      <trkpt lat="47.65058" lon="6.1512">
        <ele>219</ele>
        <time>2012-07-20T09:24:54.000Z</time>
      </trkpt>
      <trkpt lat="47.65043" lon="6.15109">
        <ele>219</ele>
        <time>2012-07-20T09:24:59.000Z</time>
      </trkpt>
      <trkpt lat="47.65019" lon="6.15093">
        <ele>219</ele>
        <time>2012-07-20T09:25:07.000Z</time>
      </trkpt>
      <trkpt lat="47.65" lon="6.15081">
        <ele>219</ele>
        <time>2012-07-20T09:25:14.000Z</time>
      </trkpt>
      <trkpt lat="47.64984" lon="6.15074">
        <ele>219</ele>
        <time>2012-07-20T09:25:20.000Z</time>
      </trkpt>
      <trkpt lat="47.64969" lon="6.15067">
        <ele>219</ele>
        <time>2012-07-20T09:25:26.000Z</time>
      </trkpt>
      <trkpt lat="47.6495" lon="6.15059">
        <ele>219</ele>
        <time>2012-07-20T09:25:33.000Z</time>
      </trkpt>
      <trkpt lat="47.64932" lon="6.15055">
        <ele>219</ele>
        <time>2012-07-20T09:25:39.000Z</time>
      </trkpt>
      <trkpt lat="47.64913" lon="6.15051">
        <ele>219</ele>
        <time>2012-07-20T09:25:45.000Z</time>
      </trkpt>
      <trkpt lat="47.649" lon="6.15042">
        <ele>219</ele>
        <time>2012-07-20T09:25:50.000Z</time>
      </trkpt>
      <trkpt lat="47.64885" lon="6.15038">
        <ele>219</ele>
        <time>2012-07-20T09:25:55.000Z</time>
      </trkpt>
      <trkpt lat="47.64862" lon="6.15032">
        <ele>219</ele>
        <time>2012-07-20T09:26:03.000Z</time>
      </trkpt>
      <trkpt lat="47.6485" lon="6.15032">
        <ele>219</ele>
        <time>2012-07-20T09:26:09.000Z</time>
      </trkpt>
      <trkpt lat="47.64846" lon="6.1503">
        <ele>219</ele>
        <time>2012-07-20T09:26:13.000Z</time>
      </trkpt>
      <trkpt lat="47.6485" lon="6.15034">
        <ele>221.39999389648</ele>
        <time>2012-07-20T09:27:59.000Z</time>
      </trkpt>
      <trkpt lat="47.64861" lon="6.15036">
        <ele>221.39999389648</ele>
        <time>2012-07-20T09:28:04.000Z</time>
      </trkpt>
      <trkpt lat="47.64872" lon="6.15036">
        <ele>221.39999389648</ele>
        <time>2012-07-20T09:28:09.000Z</time>
      </trkpt>
      <trkpt lat="47.64887" lon="6.15038">
        <ele>221.39999389648</ele>
        <time>2012-07-20T09:28:15.000Z</time>
      </trkpt>
      <trkpt lat="47.649" lon="6.15041">
        <ele>221.39999389648</ele>
        <time>2012-07-20T09:28:21.000Z</time>
      </trkpt>
      <trkpt lat="47.64912" lon="6.15046">
        <ele>221.39999389648</ele>
        <time>2012-07-20T09:28:26.000Z</time>
      </trkpt>
      <trkpt lat="47.64925" lon="6.1505">
        <ele>221.39999389648</ele>
        <time>2012-07-20T09:28:31.000Z</time>
      </trkpt>
      <trkpt lat="47.64937" lon="6.1505">
        <ele>221.39999389648</ele>
        <time>2012-07-20T09:28:36.000Z</time>
      </trkpt>
      <trkpt lat="47.64952" lon="6.15056">
        <ele>221.39999389648</ele>
        <time>2012-07-20T09:28:42.000Z</time>
      </trkpt>
      <trkpt lat="47.64968" lon="6.15063">
        <ele>221.39999389648</ele>
        <time>2012-07-20T09:28:47.000Z</time>
      </trkpt>
      <trkpt lat="47.6499" lon="6.15073">
        <ele>221.39999389648</ele>
        <time>2012-07-20T09:28:55.000Z</time>
      </trkpt>
      <trkpt lat="47.64997" lon="6.15085">
        <ele>221.39999389648</ele>
        <time>2012-07-20T09:28:59.000Z</time>
      </trkpt>
      <trkpt lat="47.64998" lon="6.15088">
        <ele>221.39999389648</ele>
        <time>2012-07-20T09:29:00.000Z</time>
      </trkpt>
      <trkpt lat="47.64998" lon="6.15103">
        <ele>221.39999389648</ele>
        <time>2012-07-20T09:29:05.000Z</time>
      </trkpt>
      <trkpt lat="47.64999" lon="6.15106">
        <ele>221.39999389648</ele>
        <time>2012-07-20T09:29:06.000Z</time>
      </trkpt>
      <trkpt lat="47.65007" lon="6.15127">
        <ele>221.39999389648</ele>
        <time>2012-07-20T09:29:13.000Z</time>
      </trkpt>
      <trkpt lat="47.6501" lon="6.15144">
        <ele>221.39999389648</ele>
        <time>2012-07-20T09:29:18.000Z</time>
      </trkpt>
      <trkpt lat="47.65014" lon="6.15155">
        <ele>221.39999389648</ele>
        <time>2012-07-20T09:29:23.000Z</time>
      </trkpt>
      <trkpt lat="47.65019" lon="6.1517">
        <ele>221.39999389648</ele>
        <time>2012-07-20T09:29:29.000Z</time>
      </trkpt>
      <trkpt lat="47.65024" lon="6.15184">
        <ele>221.39999389648</ele>
        <time>2012-07-20T09:29:35.000Z</time>
      </trkpt>
      <trkpt lat="47.6503" lon="6.15201">
        <ele>221.39999389648</ele>
        <time>2012-07-20T09:29:42.000Z</time>
      </trkpt>
      <trkpt lat="47.65035" lon="6.15213">
        <ele>221.39999389648</ele>
        <time>2012-07-20T09:29:47.000Z</time>
      </trkpt>
      <trkpt lat="47.65041" lon="6.15235">
        <ele>221.39999389648</ele>
        <time>2012-07-20T09:29:54.000Z</time>
      </trkpt>
      <trkpt lat="47.65046" lon="6.15253">
        <ele>221.39999389648</ele>
        <time>2012-07-20T09:30:01.000Z</time>
      </trkpt>
      <trkpt lat="47.65047" lon="6.15256">
        <ele>221.39999389648</ele>
        <time>2012-07-20T09:30:04.000Z</time>
      </trkpt>
      <trkpt lat="47.65049" lon="6.1526">
        <ele>223.39999389648</ele>
        <time>2012-07-20T09:30:22.000Z</time>
      </trkpt>
      <trkpt lat="47.65049" lon="6.15262">
        <ele>223.39999389648</ele>
        <time>2012-07-20T09:30:23.000Z</time>
      </trkpt>
      <trkpt lat="47.65053" lon="6.15274">
        <ele>223.39999389648</ele>
        <time>2012-07-20T09:30:27.000Z</time>
      </trkpt>
      <trkpt lat="47.65058" lon="6.1529">
        <ele>223.39999389648</ele>
        <time>2012-07-20T09:30:32.000Z</time>
      </trkpt>
      <trkpt lat="47.65062" lon="6.15303">
        <ele>223.39999389648</ele>
        <time>2012-07-20T09:30:37.000Z</time>
      </trkpt>
      <trkpt lat="47.65063" lon="6.15309">
        <ele>223.39999389648</ele>
        <time>2012-07-20T09:30:42.000Z</time>
      </trkpt>
      <trkpt lat="47.65069" lon="6.15331">
        <ele>223.39999389648</ele>
        <time>2012-07-20T09:30:50.000Z</time>
      </trkpt>
      <trkpt lat="47.65074" lon="6.15352">
        <ele>223.39999389648</ele>
        <time>2012-07-20T09:30:57.000Z</time>
      </trkpt>
      <trkpt lat="47.65077" lon="6.15372">
        <ele>223.39999389648</ele>
        <time>2012-07-20T09:31:05.000Z</time>
      </trkpt>
      <trkpt lat="47.65082" lon="6.15385">
        <ele>223.39999389648</ele>
        <time>2012-07-20T09:31:12.000Z</time>
      </trkpt>
      <trkpt lat="47.65087" lon="6.15402">
        <ele>223.39999389648</ele>
        <time>2012-07-20T09:31:18.000Z</time>
      </trkpt>
      <trkpt lat="47.65089" lon="6.15416">
        <ele>223.39999389648</ele>
        <time>2012-07-20T09:31:24.000Z</time>
      </trkpt>
      <trkpt lat="47.65092" lon="6.15425">
        <ele>223.39999389648</ele>
        <time>2012-07-20T09:31:27.000Z</time>
      </trkpt>
      <trkpt lat="47.6514" lon="6.15581">
        <ele>221.39999389648</ele>
        <time>2012-07-20T09:35:20.000Z</time>
      </trkpt>
      <trkpt lat="47.65141" lon="6.15584">
        <ele>221.39999389648</ele>
        <time>2012-07-20T09:35:21.000Z</time>
      </trkpt>
      <trkpt lat="47.65145" lon="6.15603">
        <ele>221.39999389648</ele>
        <time>2012-07-20T09:35:27.000Z</time>
      </trkpt>
      <trkpt lat="47.65151" lon="6.15625">
        <ele>221.39999389648</ele>
        <time>2012-07-20T09:35:34.000Z</time>
      </trkpt>
      <trkpt lat="47.65156" lon="6.15647">
        <ele>221.39999389648</ele>
        <time>2012-07-20T09:35:41.000Z</time>
      </trkpt>
      <trkpt lat="47.65163" lon="6.15667">
        <ele>221</ele>
        <time>2012-07-20T09:35:48.000Z</time>
      </trkpt>
      <trkpt lat="47.65165" lon="6.15669">
        <ele>220.60000610352</ele>
        <time>2012-07-20T09:35:49.000Z</time>
      </trkpt>
      <trkpt lat="47.65166" lon="6.15671">
        <ele>220.19999694824</ele>
        <time>2012-07-20T09:35:50.000Z</time>
      </trkpt>
      <trkpt lat="47.65167" lon="6.15674">
        <ele>219.80000305176</ele>
        <time>2012-07-20T09:35:51.000Z</time>
      </trkpt>
      <trkpt lat="47.65168" lon="6.15678">
        <ele>219.39999389648</ele>
        <time>2012-07-20T09:35:52.000Z</time>
      </trkpt>
      <trkpt lat="47.65169" lon="6.15685">
        <ele>219.39999389648</ele>
        <time>2012-07-20T09:35:54.000Z</time>
      </trkpt>
      <trkpt lat="47.65174" lon="6.15706">
        <ele>219.39999389648</ele>
        <time>2012-07-20T09:36:01.000Z</time>
      </trkpt>
      <trkpt lat="47.65178" lon="6.15725">
        <ele>219.39999389648</ele>
        <time>2012-07-20T09:36:08.000Z</time>
      </trkpt>
      <trkpt lat="47.65184" lon="6.15744">
        <ele>219.39999389648</ele>
        <time>2012-07-20T09:36:16.000Z</time>
      </trkpt>
      <trkpt lat="47.65186" lon="6.15746">
        <ele>219.39999389648</ele>
        <time>2012-07-20T09:36:19.000Z</time>
      </trkpt>
      <trkpt lat="47.65187" lon="6.15767">
        <ele>219.39999389648</ele>
        <time>2012-07-20T09:37:44.000Z</time>
      </trkpt>
      <trkpt lat="47.65185" lon="6.15768">
        <ele>219.39999389648</ele>
        <time>2012-07-20T09:37:45.000Z</time>
      </trkpt>
      <trkpt lat="47.65178" lon="6.15772">
        <ele>219.39999389648</ele>
        <time>2012-07-20T09:37:49.000Z</time>
      </trkpt>
      <trkpt lat="47.65176" lon="6.15773">
        <ele>219.39999389648</ele>
        <time>2012-07-20T09:37:50.000Z</time>
      </trkpt>
      <trkpt lat="47.65163" lon="6.15781">
        <ele>219.39999389648</ele>
        <time>2012-07-20T09:37:57.000Z</time>
      </trkpt>
      <trkpt lat="47.6515" lon="6.15787">
        <ele>219.39999389648</ele>
        <time>2012-07-20T09:38:04.000Z</time>
      </trkpt>
      <trkpt lat="47.65145" lon="6.15791">
        <ele>219.39999389648</ele>
        <time>2012-07-20T09:38:09.000Z</time>
      </trkpt>
      <trkpt lat="47.65143" lon="6.15792">
        <ele>219.39999389648</ele>
        <time>2012-07-20T09:38:10.000Z</time>
      </trkpt>
      <trkpt lat="47.6514" lon="6.15793">
        <ele>219.39999389648</ele>
        <time>2012-07-20T09:38:12.000Z</time>
      </trkpt>
      <trkpt lat="47.65128" lon="6.158">
        <ele>219.39999389648</ele>
        <time>2012-07-20T09:38:18.000Z</time>
      </trkpt>
      <trkpt lat="47.65114" lon="6.15807">
        <ele>219.39999389648</ele>
        <time>2012-07-20T09:38:23.000Z</time>
      </trkpt>
      <trkpt lat="47.65103" lon="6.15815">
        <ele>219.39999389648</ele>
        <time>2012-07-20T09:38:29.000Z</time>
      </trkpt>
      <trkpt lat="47.6509" lon="6.15824">
        <ele>219.39999389648</ele>
        <time>2012-07-20T09:38:36.000Z</time>
      </trkpt>
      <trkpt lat="47.65078" lon="6.15831">
        <ele>219.39999389648</ele>
        <time>2012-07-20T09:38:43.000Z</time>
      </trkpt>
      <trkpt lat="47.65066" lon="6.15839">
        <ele>219.39999389648</ele>
        <time>2012-07-20T09:38:49.000Z</time>
      </trkpt>
      <trkpt lat="47.65064" lon="6.15842">
        <ele>219.39999389648</ele>
        <time>2012-07-20T09:38:52.000Z</time>
      </trkpt>
      <trkpt lat="47.6506" lon="6.15845">
        <ele>220</ele>
        <time>2012-07-20T09:39:24.000Z</time>
      </trkpt>
      <trkpt lat="47.65057" lon="6.15847">
        <ele>220</ele>
        <time>2012-07-20T09:39:25.000Z</time>
      </trkpt>
      <trkpt lat="47.65042" lon="6.15855">
        <ele>220</ele>
        <time>2012-07-20T09:39:31.000Z</time>
      </trkpt>
      <trkpt lat="47.65033" lon="6.15863">
        <ele>220</ele>
        <time>2012-07-20T09:39:36.000Z</time>
      </trkpt>
      <trkpt lat="47.65024" lon="6.15875">
        <ele>220</ele>
        <time>2012-07-20T09:39:45.000Z</time>
      </trkpt>
      <trkpt lat="47.65023" lon="6.15876">
        <ele>220</ele>
        <time>2012-07-20T09:39:46.000Z</time>
      </trkpt>
      <trkpt lat="47.65027" lon="6.15904">
        <ele>220.19999694824</ele>
        <time>2012-07-20T09:40:05.000Z</time>
      </trkpt>
      <trkpt lat="47.65028" lon="6.15912">
        <ele>220.19999694824</ele>
        <time>2012-07-20T09:40:08.000Z</time>
      </trkpt>
      <trkpt lat="47.65031" lon="6.15924">
        <ele>220.19999694824</ele>
        <time>2012-07-20T09:40:14.000Z</time>
      </trkpt>
      <trkpt lat="47.65036" lon="6.1594">
        <ele>220.19999694824</ele>
        <time>2012-07-20T09:40:21.000Z</time>
      </trkpt>
      <trkpt lat="47.65039" lon="6.15946">
        <ele>220.19999694824</ele>
        <time>2012-07-20T09:40:25.000Z</time>
      </trkpt>
      <trkpt lat="47.65048" lon="6.15968">
        <ele>217.80000305176</ele>
        <time>2012-07-20T09:41:22.000Z</time>
      </trkpt>
      <trkpt lat="47.65048" lon="6.15972">
        <ele>217.80000305176</ele>
        <time>2012-07-20T09:41:23.000Z</time>
      </trkpt>
      <trkpt lat="47.6505" lon="6.15984">
        <ele>217.80000305176</ele>
        <time>2012-07-20T09:41:28.000Z</time>
      </trkpt>
      <trkpt lat="47.65051" lon="6.15988">
        <ele>218.19999694824</ele>
        <time>2012-07-20T09:41:30.000Z</time>
      </trkpt>
      <trkpt lat="47.65052" lon="6.15991">
        <ele>218.60000610352</ele>
        <time>2012-07-20T09:41:31.000Z</time>
      </trkpt>
      <trkpt lat="47.65053" lon="6.15993">
        <ele>219</ele>
        <time>2012-07-20T09:41:32.000Z</time>
      </trkpt>
      <trkpt lat="47.65054" lon="6.15996">
        <ele>219.39999389648</ele>
        <time>2012-07-20T09:41:33.000Z</time>
      </trkpt>
      <trkpt lat="47.65054" lon="6.15998">
        <ele>219.80000305176</ele>
        <time>2012-07-20T09:41:34.000Z</time>
      </trkpt>
      <trkpt lat="47.65055" lon="6.16006">
        <ele>219.80000305176</ele>
        <time>2012-07-20T09:41:38.000Z</time>
      </trkpt>
      <trkpt lat="47.65079" lon="6.16052">
        <ele>221.80000305176</ele>
        <time>2012-07-20T09:42:56.000Z</time>
      </trkpt>
      <trkpt lat="47.6509" lon="6.16049">
        <ele>221.80000305176</ele>
        <time>2012-07-20T09:43:03.000Z</time>
      </trkpt>
      <trkpt lat="47.651" lon="6.16044">
        <ele>221.80000305176</ele>
        <time>2012-07-20T09:43:09.000Z</time>
      </trkpt>
      <trkpt lat="47.65109" lon="6.1604">
        <ele>221.80000305176</ele>
        <time>2012-07-20T09:43:15.000Z</time>
      </trkpt>
      <trkpt lat="47.65121" lon="6.16032">
        <ele>221.80000305176</ele>
        <time>2012-07-20T09:43:22.000Z</time>
      </trkpt>
      <trkpt lat="47.65133" lon="6.16025">
        <ele>221.80000305176</ele>
        <time>2012-07-20T09:43:29.000Z</time>
      </trkpt>
      <trkpt lat="47.65147" lon="6.16018">
        <ele>221.80000305176</ele>
        <time>2012-07-20T09:43:36.000Z</time>
      </trkpt>
      <trkpt lat="47.65161" lon="6.16008">
        <ele>221.80000305176</ele>
        <time>2012-07-20T09:43:44.000Z</time>
      </trkpt>
      <trkpt lat="47.65172" lon="6.16">
        <ele>221.80000305176</ele>
        <time>2012-07-20T09:43:51.000Z</time>
      </trkpt>
      <trkpt lat="47.65182" lon="6.15995">
        <ele>221.80000305176</ele>
        <time>2012-07-20T09:43:58.000Z</time>
      </trkpt>
      <trkpt lat="47.65193" lon="6.15988">
        <ele>221.39999389648</ele>
        <time>2012-07-20T09:44:04.000Z</time>
      </trkpt>
      <trkpt lat="47.65195" lon="6.15987">
        <ele>221</ele>
        <time>2012-07-20T09:44:05.000Z</time>
      </trkpt>
      <trkpt lat="47.65197" lon="6.15986">
        <ele>220.60000610352</ele>
        <time>2012-07-20T09:44:06.000Z</time>
      </trkpt>
      <trkpt lat="47.65198" lon="6.15985">
        <ele>219.80000305176</ele>
        <time>2012-07-20T09:44:07.000Z</time>
      </trkpt>
      <trkpt lat="47.65207" lon="6.15981">
        <ele>219.80000305176</ele>
        <time>2012-07-20T09:44:12.000Z</time>
      </trkpt>
      <trkpt lat="47.65216" lon="6.15974">
        <ele>219.80000305176</ele>
        <time>2012-07-20T09:44:18.000Z</time>
      </trkpt>
      <trkpt lat="47.65228" lon="6.15968">
        <ele>219.80000305176</ele>
        <time>2012-07-20T09:44:24.000Z</time>
      </trkpt>
      <trkpt lat="47.65233" lon="6.15965">
        <ele>219.80000305176</ele>
        <time>2012-07-20T09:44:28.000Z</time>
      </trkpt>
      <trkpt lat="47.65239" lon="6.15945">
        <ele>219.80000305176</ele>
        <time>2012-07-20T09:45:03.000Z</time>
      </trkpt>
      <trkpt lat="47.65239" lon="6.15943">
        <ele>219.80000305176</ele>
        <time>2012-07-20T09:45:04.000Z</time>
      </trkpt>
      <trkpt lat="47.65235" lon="6.15927">
        <ele>219.80000305176</ele>
        <time>2012-07-20T09:45:12.000Z</time>
      </trkpt>
      <trkpt lat="47.65233" lon="6.15916">
        <ele>219.80000305176</ele>
        <time>2012-07-20T09:45:18.000Z</time>
      </trkpt>
      <trkpt lat="47.65233" lon="6.15915">
        <ele>219.80000305176</ele>
        <time>2012-07-20T09:45:19.000Z</time>
      </trkpt>
      <trkpt lat="47.65229" lon="6.15899">
        <ele>219.80000305176</ele>
        <time>2012-07-20T09:46:12.000Z</time>
      </trkpt>
      <trkpt lat="47.65227" lon="6.15895">
        <ele>219.80000305176</ele>
        <time>2012-07-20T09:46:14.000Z</time>
      </trkpt>
      <trkpt lat="47.65222" lon="6.15877">
        <ele>219.80000305176</ele>
        <time>2012-07-20T09:46:20.000Z</time>
      </trkpt>
      <trkpt lat="47.65219" lon="6.15859">
        <ele>219.80000305176</ele>
        <time>2012-07-20T09:46:26.000Z</time>
      </trkpt>
      <trkpt lat="47.65215" lon="6.15846">
        <ele>219.80000305176</ele>
        <time>2012-07-20T09:46:31.000Z</time>
      </trkpt>
      <trkpt lat="47.65209" lon="6.15827">
        <ele>219.80000305176</ele>
        <time>2012-07-20T09:46:37.000Z</time>
      </trkpt>
      <trkpt lat="47.65203" lon="6.15806">
        <ele>219.80000305176</ele>
        <time>2012-07-20T09:46:43.000Z</time>
      </trkpt>
      <trkpt lat="47.65198" lon="6.15784">
        <ele>219.80000305176</ele>
        <time>2012-07-20T09:46:50.000Z</time>
      </trkpt>
      <trkpt lat="47.65194" lon="6.1577">
        <ele>219.80000305176</ele>
        <time>2012-07-20T09:46:56.000Z</time>
      </trkpt>
      <trkpt lat="47.65193" lon="6.1577">
        <ele>219.80000305176</ele>
        <time>2012-07-20T09:46:57.000Z</time>
      </trkpt>
      <trkpt lat="47.65178" lon="6.15727">
        <ele>219.80000305176</ele>
        <time>2012-07-20T09:48:18.000Z</time>
      </trkpt>
      <trkpt lat="47.65178" lon="6.15725">
        <ele>219.80000305176</ele>
        <time>2012-07-20T09:48:19.000Z</time>
      </trkpt>
      <trkpt lat="47.65176" lon="6.15715">
        <ele>219.80000305176</ele>
        <time>2012-07-20T09:48:23.000Z</time>
      </trkpt>
      <trkpt lat="47.65175" lon="6.15711">
        <ele>219.80000305176</ele>
        <time>2012-07-20T09:48:25.000Z</time>
      </trkpt>
      <trkpt lat="47.65174" lon="6.15697">
        <ele>219.80000305176</ele>
        <time>2012-07-20T09:48:30.000Z</time>
      </trkpt>
      <trkpt lat="47.65167" lon="6.15679">
        <ele>219.80000305176</ele>
        <time>2012-07-20T09:48:36.000Z</time>
      </trkpt>
      <trkpt lat="47.65161" lon="6.15659">
        <ele>219.80000305176</ele>
        <time>2012-07-20T09:48:42.000Z</time>
      </trkpt>
      <trkpt lat="47.65154" lon="6.15635">
        <ele>219.80000305176</ele>
        <time>2012-07-20T09:48:49.000Z</time>
      </trkpt>
      <trkpt lat="47.65148" lon="6.15614">
        <ele>219.80000305176</ele>
        <time>2012-07-20T09:48:56.000Z</time>
      </trkpt>
      <trkpt lat="47.65142" lon="6.15593">
        <ele>219.80000305176</ele>
        <time>2012-07-20T09:49:03.000Z</time>
      </trkpt>
      <trkpt lat="47.65138" lon="6.15581">
        <ele>219.80000305176</ele>
        <time>2012-07-20T09:49:09.000Z</time>
      </trkpt>
      <trkpt lat="47.65138" lon="6.15549">
        <ele>221.80000305176</ele>
        <time>2012-07-20T09:51:42.000Z</time>
      </trkpt>
      <trkpt lat="47.65141" lon="6.15546">
        <ele>221.80000305176</ele>
        <time>2012-07-20T09:51:44.000Z</time>
      </trkpt>
      <trkpt lat="47.65151" lon="6.15539">
        <ele>221.80000305176</ele>
        <time>2012-07-20T09:51:50.000Z</time>
      </trkpt>
      <trkpt lat="47.6516" lon="6.15531">
        <ele>221.80000305176</ele>
        <time>2012-07-20T09:51:55.000Z</time>
      </trkpt>
      <trkpt lat="47.6517" lon="6.15526">
        <ele>221.80000305176</ele>
        <time>2012-07-20T09:52:00.000Z</time>
      </trkpt>
      <trkpt lat="47.65179" lon="6.15521">
        <ele>221.80000305176</ele>
        <time>2012-07-20T09:52:06.000Z</time>
      </trkpt>
      <trkpt lat="47.65187" lon="6.15516">
        <ele>221.80000305176</ele>
        <time>2012-07-20T09:52:12.000Z</time>
      </trkpt>
      <trkpt lat="47.65192" lon="6.15514">
        <ele>221.80000305176</ele>
        <time>2012-07-20T09:52:15.000Z</time>
      </trkpt>
      <trkpt lat="47.65198" lon="6.15511">
        <ele>221.80000305176</ele>
        <time>2012-07-20T09:52:18.000Z</time>
      </trkpt>
      <trkpt lat="47.6521" lon="6.15504">
        <ele>221.39999389648</ele>
        <time>2012-07-20T09:52:23.000Z</time>
      </trkpt>
      <trkpt lat="47.65212" lon="6.15502">
        <ele>221</ele>
        <time>2012-07-20T09:52:24.000Z</time>
      </trkpt>
      <trkpt lat="47.65213" lon="6.15502">
        <ele>220.39999389648</ele>
        <time>2012-07-20T09:52:25.000Z</time>
      </trkpt>
      <trkpt lat="47.65215" lon="6.15501">
        <ele>220</ele>
        <time>2012-07-20T09:52:26.000Z</time>
      </trkpt>
      <trkpt lat="47.65217" lon="6.15501">
        <ele>219.60000610352</ele>
        <time>2012-07-20T09:52:27.000Z</time>
      </trkpt>
      <trkpt lat="47.65222" lon="6.15499">
        <ele>219.60000610352</ele>
        <time>2012-07-20T09:52:30.000Z</time>
      </trkpt>
      <trkpt lat="47.65233" lon="6.15492">
        <ele>219.60000610352</ele>
        <time>2012-07-20T09:52:35.000Z</time>
      </trkpt>
      <trkpt lat="47.65241" lon="6.15488">
        <ele>219.60000610352</ele>
        <time>2012-07-20T09:52:40.000Z</time>
      </trkpt>
      <trkpt lat="47.65242" lon="6.15487">
        <ele>219.60000610352</ele>
        <time>2012-07-20T09:52:41.000Z</time>
      </trkpt>
      <trkpt lat="47.65252" lon="6.15479">
        <ele>219.60000610352</ele>
        <time>2012-07-20T09:52:47.000Z</time>
      </trkpt>
      <trkpt lat="47.65262" lon="6.15472">
        <ele>219.60000610352</ele>
        <time>2012-07-20T09:52:54.000Z</time>
      </trkpt>
      <trkpt lat="47.65263" lon="6.15471">
        <ele>219.60000610352</ele>
        <time>2012-07-20T09:52:55.000Z</time>
      </trkpt>
      <trkpt lat="47.6527" lon="6.15434">
        <ele>217.60000610352</ele>
        <time>2012-07-20T09:55:21.000Z</time>
      </trkpt>
      <trkpt lat="47.65268" lon="6.15434">
        <ele>217.60000610352</ele>
        <time>2012-07-20T09:55:23.000Z</time>
      </trkpt>
      <trkpt lat="47.65267" lon="6.15435">
        <ele>217.60000610352</ele>
        <time>2012-07-20T09:55:24.000Z</time>
      </trkpt>
      <trkpt lat="47.65264" lon="6.15435">
        <ele>217.60000610352</ele>
        <time>2012-07-20T09:55:28.000Z</time>
      </trkpt>
      <trkpt lat="47.65197" lon="6.15342">
        <ele>219.60000610352</ele>
        <time>2012-07-20T09:57:17.000Z</time>
      </trkpt>
      <trkpt lat="47.65193" lon="6.15336">
        <ele>219.60000610352</ele>
        <time>2012-07-20T09:57:21.000Z</time>
      </trkpt>
      <trkpt lat="47.65105" lon="6.15354">
        <ele>221.60000610352</ele>
        <time>2012-07-20T10:00:07.000Z</time>
      </trkpt>
      <trkpt lat="47.65104" lon="6.15354">
        <ele>221.60000610352</ele>
        <time>2012-07-20T10:00:08.000Z</time>
      </trkpt>
      <trkpt lat="47.65098" lon="6.15349">
        <ele>221.60000610352</ele>
        <time>2012-07-20T10:00:15.000Z</time>
      </trkpt>
      <trkpt lat="47.65092" lon="6.15348">
        <ele>221.60000610352</ele>
        <time>2012-07-20T10:00:31.000Z</time>
      </trkpt>
      <trkpt lat="47.6509" lon="6.15349">
        <ele>221.60000610352</ele>
        <time>2012-07-20T10:00:34.000Z</time>
      </trkpt>
      <trkpt lat="47.65084" lon="6.15352">
        <ele>221.60000610352</ele>
        <time>2012-07-20T10:00:40.000Z</time>
      </trkpt>
      <trkpt lat="47.65078" lon="6.15355">
        <ele>221.60000610352</ele>
        <time>2012-07-20T10:00:47.000Z</time>
      </trkpt>
      <trkpt lat="47.65077" lon="6.15355">
        <ele>221.60000610352</ele>
        <time>2012-07-20T10:00:48.000Z</time>
      </trkpt>
      <trkpt lat="47.65074" lon="6.15353">
        <ele>221.60000610352</ele>
        <time>2012-07-20T10:01:04.000Z</time>
      </trkpt>
      <trkpt lat="47.65072" lon="6.1535">
        <ele>221.60000610352</ele>
        <time>2012-07-20T10:01:06.000Z</time>
      </trkpt>
      <trkpt lat="47.65072" lon="6.15347">
        <ele>221.60000610352</ele>
        <time>2012-07-20T10:01:07.000Z</time>
      </trkpt>
      <trkpt lat="47.6507" lon="6.1534">
        <ele>221.60000610352</ele>
        <time>2012-07-20T10:01:10.000Z</time>
      </trkpt>
      <trkpt lat="47.65068" lon="6.15334">
        <ele>221.60000610352</ele>
        <time>2012-07-20T10:01:13.000Z</time>
      </trkpt>
      <trkpt lat="47.65064" lon="6.15323">
        <ele>221.60000610352</ele>
        <time>2012-07-20T10:01:17.000Z</time>
      </trkpt>
      <trkpt lat="47.65061" lon="6.15313">
        <ele>221.60000610352</ele>
        <time>2012-07-20T10:01:22.000Z</time>
      </trkpt>
      <trkpt lat="47.65056" lon="6.15295">
        <ele>221.60000610352</ele>
        <time>2012-07-20T10:01:29.000Z</time>
      </trkpt>
      <trkpt lat="47.65055" lon="6.15293">
        <ele>221.60000610352</ele>
        <time>2012-07-20T10:01:30.000Z</time>
      </trkpt>
      <trkpt lat="47.65053" lon="6.15284">
        <ele>221.60000610352</ele>
        <time>2012-07-20T10:01:34.000Z</time>
      </trkpt>
      <trkpt lat="47.6505" lon="6.15267">
        <ele>221.60000610352</ele>
        <time>2012-07-20T10:01:39.000Z</time>
      </trkpt>
      <trkpt lat="47.65049" lon="6.15263">
        <ele>221.60000610352</ele>
        <time>2012-07-20T10:01:40.000Z</time>
      </trkpt>
      <trkpt lat="47.65043" lon="6.15246">
        <ele>221.60000610352</ele>
        <time>2012-07-20T10:01:46.000Z</time>
      </trkpt>
      <trkpt lat="47.65039" lon="6.15228">
        <ele>221.60000610352</ele>
        <time>2012-07-20T10:01:51.000Z</time>
      </trkpt>
      <trkpt lat="47.6503" lon="6.15199">
        <ele>221.60000610352</ele>
        <time>2012-07-20T10:01:59.000Z</time>
      </trkpt>
      <trkpt lat="47.65025" lon="6.1518">
        <ele>221.60000610352</ele>
        <time>2012-07-20T10:02:05.000Z</time>
      </trkpt>
      <trkpt lat="47.6502" lon="6.15157">
        <ele>221.60000610352</ele>
        <time>2012-07-20T10:02:13.000Z</time>
      </trkpt>
      <trkpt lat="47.65014" lon="6.1514">
        <ele>221.60000610352</ele>
        <time>2012-07-20T10:02:20.000Z</time>
      </trkpt>
      <trkpt lat="47.65008" lon="6.15124">
        <ele>221.60000610352</ele>
        <time>2012-07-20T10:02:26.000Z</time>
      </trkpt>
      <trkpt lat="47.65001" lon="6.15104">
        <ele>221.60000610352</ele>
        <time>2012-07-20T10:02:33.000Z</time>
      </trkpt>
      <trkpt lat="47.65" lon="6.15094">
        <ele>221.60000610352</ele>
        <time>2012-07-20T10:02:36.000Z</time>
      </trkpt>
      <trkpt lat="47.65002" lon="6.15091">
        <ele>221.60000610352</ele>
        <time>2012-07-20T10:02:37.000Z</time>
      </trkpt>
      <trkpt lat="47.65007" lon="6.1509">
        <ele>221.19999694824</ele>
        <time>2012-07-20T10:02:39.000Z</time>
      </trkpt>
      <trkpt lat="47.6501" lon="6.15092">
        <ele>220.80000305176</ele>
        <time>2012-07-20T10:02:40.000Z</time>
      </trkpt>
      <trkpt lat="47.65012" lon="6.15092">
        <ele>220.39999389648</ele>
        <time>2012-07-20T10:02:41.000Z</time>
      </trkpt>
      <trkpt lat="47.65014" lon="6.15093">
        <ele>220</ele>
        <time>2012-07-20T10:02:42.000Z</time>
      </trkpt>
      <trkpt lat="47.65017" lon="6.15095">
        <ele>219.60000610352</ele>
        <time>2012-07-20T10:02:43.000Z</time>
      </trkpt>
      <trkpt lat="47.65019" lon="6.15096">
        <ele>219.60000610352</ele>
        <time>2012-07-20T10:02:44.000Z</time>
      </trkpt>
      <trkpt lat="47.65021" lon="6.15098">
        <ele>219.60000610352</ele>
        <time>2012-07-20T10:02:45.000Z</time>
      </trkpt>
      <trkpt lat="47.65043" lon="6.15112">
        <ele>219.60000610352</ele>
        <time>2012-07-20T10:02:53.000Z</time>
      </trkpt>
      <trkpt lat="47.65064" lon="6.15126">
        <ele>219.60000610352</ele>
        <time>2012-07-20T10:03:01.000Z</time>
      </trkpt>
      <trkpt lat="47.65078" lon="6.15123">
        <ele>219.60000610352</ele>
        <time>2012-07-20T10:03:06.000Z</time>
      </trkpt>
      <trkpt lat="47.65096" lon="6.15106">
        <ele>219.60000610352</ele>
        <time>2012-07-20T10:03:13.000Z</time>
      </trkpt>
      <trkpt lat="47.65115" lon="6.15089">
        <ele>219.60000610352</ele>
        <time>2012-07-20T10:03:18.000Z</time>
      </trkpt>
      <trkpt lat="47.65122" lon="6.15083">
        <ele>219.19999694824</ele>
        <time>2012-07-20T10:03:20.000Z</time>
      </trkpt>
      <trkpt lat="47.65126" lon="6.15081">
        <ele>218.80000305176</ele>
        <time>2012-07-20T10:03:21.000Z</time>
      </trkpt>
      <trkpt lat="47.6513" lon="6.15078">
        <ele>218.19999694824</ele>
        <time>2012-07-20T10:03:22.000Z</time>
      </trkpt>
      <trkpt lat="47.65133" lon="6.15075">
        <ele>217.80000305176</ele>
        <time>2012-07-20T10:03:23.000Z</time>
      </trkpt>
      <trkpt lat="47.65137" lon="6.15072">
        <ele>217.39999389648</ele>
        <time>2012-07-20T10:03:24.000Z</time>
      </trkpt>
      <trkpt lat="47.6515" lon="6.15061">
        <ele>217.39999389648</ele>
        <time>2012-07-20T10:03:27.000Z</time>
      </trkpt>
      <trkpt lat="47.65168" lon="6.15049">
        <ele>217.39999389648</ele>
        <time>2012-07-20T10:03:31.000Z</time>
      </trkpt>
      <trkpt lat="47.65177" lon="6.15045">
        <ele>217.39999389648</ele>
        <time>2012-07-20T10:03:33.000Z</time>
      </trkpt>
      <trkpt lat="47.652" lon="6.1504">
        <ele>217.39999389648</ele>
        <time>2012-07-20T10:03:39.000Z</time>
      </trkpt>
      <trkpt lat="47.65228" lon="6.15035">
        <ele>217.39999389648</ele>
        <time>2012-07-20T10:03:47.000Z</time>
      </trkpt>
      <trkpt lat="47.6525" lon="6.1503">
        <ele>217.39999389648</ele>
        <time>2012-07-20T10:03:54.000Z</time>
      </trkpt>
      <trkpt lat="47.65271" lon="6.15027">
        <ele>217.39999389648</ele>
        <time>2012-07-20T10:04:01.000Z</time>
      </trkpt>
      <trkpt lat="47.65292" lon="6.15023">
        <ele>217.39999389648</ele>
        <time>2012-07-20T10:04:08.000Z</time>
      </trkpt>
      <trkpt lat="47.6532" lon="6.15019">
        <ele>217.39999389648</ele>
        <time>2012-07-20T10:04:17.000Z</time>
      </trkpt>
      <trkpt lat="47.65336" lon="6.15016">
        <ele>217.39999389648</ele>
        <time>2012-07-20T10:04:23.000Z</time>
      </trkpt>
      <trkpt lat="47.65354" lon="6.15013">
        <ele>217.80000305176</ele>
        <time>2012-07-20T10:04:30.000Z</time>
      </trkpt>
      <trkpt lat="47.65356" lon="6.15012">
        <ele>218.19999694824</ele>
        <time>2012-07-20T10:04:31.000Z</time>
      </trkpt>
      <trkpt lat="47.65359" lon="6.15012">
        <ele>219</ele>
        <time>2012-07-20T10:04:32.000Z</time>
      </trkpt>
      <trkpt lat="47.65361" lon="6.15011">
        <ele>219.39999389648</ele>
        <time>2012-07-20T10:04:33.000Z</time>
      </trkpt>
      <trkpt lat="47.65376" lon="6.15009">
        <ele>219.39999389648</ele>
        <time>2012-07-20T10:04:39.000Z</time>
      </trkpt>
      <trkpt lat="47.65391" lon="6.15008">
        <ele>219.80000305176</ele>
        <time>2012-07-20T10:04:44.000Z</time>
      </trkpt>
      <trkpt lat="47.65394" lon="6.15008">
        <ele>220.19999694824</ele>
        <time>2012-07-20T10:04:45.000Z</time>
      </trkpt>
      <trkpt lat="47.65397" lon="6.15008">
        <ele>220.60000610352</ele>
        <time>2012-07-20T10:04:46.000Z</time>
      </trkpt>
      <trkpt lat="47.654" lon="6.15007">
        <ele>221</ele>
        <time>2012-07-20T10:04:47.000Z</time>
      </trkpt>
      <trkpt lat="47.65403" lon="6.15006">
        <ele>221.60000610352</ele>
        <time>2012-07-20T10:04:48.000Z</time>
      </trkpt>
      <trkpt lat="47.65411" lon="6.15008">
        <ele>221.60000610352</ele>
        <time>2012-07-20T10:04:51.000Z</time>
      </trkpt>
      <trkpt lat="47.65425" lon="6.15009">
        <ele>221.60000610352</ele>
        <time>2012-07-20T10:04:57.000Z</time>
      </trkpt>
      <trkpt lat="47.6544" lon="6.15008">
        <ele>221.60000610352</ele>
        <time>2012-07-20T10:05:04.000Z</time>
      </trkpt>
      <trkpt lat="47.65447" lon="6.15008">
        <ele>222</ele>
        <time>2012-07-20T10:05:07.000Z</time>
      </trkpt>
      <trkpt lat="47.65449" lon="6.15008">
        <ele>222.39999389648</ele>
        <time>2012-07-20T10:05:08.000Z</time>
      </trkpt>
      <trkpt lat="47.65451" lon="6.15007">
        <ele>222.80000305176</ele>
        <time>2012-07-20T10:05:09.000Z</time>
      </trkpt>
      <trkpt lat="47.65453" lon="6.15007">
        <ele>223.19999694824</ele>
        <time>2012-07-20T10:05:10.000Z</time>
      </trkpt>
      <trkpt lat="47.65455" lon="6.15007">
        <ele>223.60000610352</ele>
        <time>2012-07-20T10:05:11.000Z</time>
      </trkpt>
      <trkpt lat="47.65457" lon="6.15006">
        <ele>223.60000610352</ele>
        <time>2012-07-20T10:05:12.000Z</time>
      </trkpt>
      <trkpt lat="47.6547" lon="6.15004">
        <ele>223.60000610352</ele>
        <time>2012-07-20T10:05:18.000Z</time>
      </trkpt>
      <trkpt lat="47.6549" lon="6.14999">
        <ele>223.60000610352</ele>
        <time>2012-07-20T10:05:27.000Z</time>
      </trkpt>
      <trkpt lat="47.65507" lon="6.14994">
        <ele>223.60000610352</ele>
        <time>2012-07-20T10:05:34.000Z</time>
      </trkpt>
      <trkpt lat="47.65525" lon="6.1499">
        <ele>224</ele>
        <time>2012-07-20T10:05:41.000Z</time>
      </trkpt>
      <trkpt lat="47.65527" lon="6.1499">
        <ele>224.39999389648</ele>
        <time>2012-07-20T10:05:42.000Z</time>
      </trkpt>
      <trkpt lat="47.6553" lon="6.14989">
        <ele>224.80000305176</ele>
        <time>2012-07-20T10:05:43.000Z</time>
      </trkpt>
      <trkpt lat="47.65533" lon="6.14988">
        <ele>225.19999694824</ele>
        <time>2012-07-20T10:05:44.000Z</time>
      </trkpt>
      <trkpt lat="47.65535" lon="6.14988">
        <ele>225.60000610352</ele>
        <time>2012-07-20T10:05:45.000Z</time>
      </trkpt>
      <trkpt lat="47.65549" lon="6.14988">
        <ele>225.60000610352</ele>
        <time>2012-07-20T10:05:50.000Z</time>
      </trkpt>
      <trkpt lat="47.65565" lon="6.14991">
        <ele>225.60000610352</ele>
        <time>2012-07-20T10:05:57.000Z</time>
      </trkpt>
      <trkpt lat="47.65583" lon="6.14995">
        <ele>226</ele>
        <time>2012-07-20T10:06:04.000Z</time>
      </trkpt>
      <trkpt lat="47.65585" lon="6.14996">
        <ele>226.39999389648</ele>
        <time>2012-07-20T10:06:05.000Z</time>
      </trkpt>
      <trkpt lat="47.65588" lon="6.14996">
        <ele>226.80000305176</ele>
        <time>2012-07-20T10:06:06.000Z</time>
      </trkpt>
      <trkpt lat="47.6559" lon="6.14997">
        <ele>227.19999694824</ele>
        <time>2012-07-20T10:06:07.000Z</time>
      </trkpt>
      <trkpt lat="47.65593" lon="6.14997">
        <ele>227.60000610352</ele>
        <time>2012-07-20T10:06:08.000Z</time>
      </trkpt>
      <trkpt lat="47.65604" lon="6.15001">
        <ele>227.60000610352</ele>
        <time>2012-07-20T10:06:12.000Z</time>
      </trkpt>
      <trkpt lat="47.65618" lon="6.15003">
        <ele>227.60000610352</ele>
        <time>2012-07-20T10:06:18.000Z</time>
      </trkpt>
      <trkpt lat="47.65638" lon="6.15006">
        <ele>227.60000610352</ele>
        <time>2012-07-20T10:06:26.000Z</time>
      </trkpt>
      <trkpt lat="47.65658" lon="6.15011">
        <ele>227.60000610352</ele>
        <time>2012-07-20T10:06:34.000Z</time>
      </trkpt>
      <trkpt lat="47.65674" lon="6.15011">
        <ele>227.60000610352</ele>
        <time>2012-07-20T10:06:40.000Z</time>
      </trkpt>
      <trkpt lat="47.65678" lon="6.15013">
        <ele>228</ele>
        <time>2012-07-20T10:06:42.000Z</time>
      </trkpt>
      <trkpt lat="47.6568" lon="6.15015">
        <ele>228.39999389648</ele>
        <time>2012-07-20T10:06:43.000Z</time>
      </trkpt>
      <trkpt lat="47.65682" lon="6.15016">
        <ele>228.80000305176</ele>
        <time>2012-07-20T10:06:44.000Z</time>
      </trkpt>
      <trkpt lat="47.65684" lon="6.15016">
        <ele>229.19999694824</ele>
        <time>2012-07-20T10:06:45.000Z</time>
      </trkpt>
      <trkpt lat="47.65687" lon="6.15015">
        <ele>229.80000305176</ele>
        <time>2012-07-20T10:06:46.000Z</time>
      </trkpt>
      <trkpt lat="47.65689" lon="6.15015">
        <ele>229.80000305176</ele>
        <time>2012-07-20T10:06:47.000Z</time>
      </trkpt>
      <trkpt lat="47.65695" lon="6.15017">
        <ele>229.80000305176</ele>
        <time>2012-07-20T10:06:50.000Z</time>
      </trkpt>
      <trkpt lat="47.65702" lon="6.15024">
        <ele>229.80000305176</ele>
        <time>2012-07-20T10:06:55.000Z</time>
      </trkpt>
      <trkpt lat="47.65702" lon="6.15024">
        <ele>229.80000305176</ele>
        <time>2012-07-20T10:06:56.000Z</time>
      </trkpt>
      <trkpt lat="47.65702" lon="6.15025">
        <ele>229.80000305176</ele>
        <time>2012-07-20T10:08:30.000Z</time>
      </trkpt>
      <trkpt lat="47.65704" lon="6.15029">
        <ele>229.80000305176</ele>
        <time>2012-07-20T10:08:32.000Z</time>
      </trkpt>
      <trkpt lat="47.65707" lon="6.15046">
        <ele>229.80000305176</ele>
        <time>2012-07-20T10:08:36.000Z</time>
      </trkpt>
      <trkpt lat="47.65712" lon="6.1507">
        <ele>229.80000305176</ele>
        <time>2012-07-20T10:08:42.000Z</time>
      </trkpt>
      <trkpt lat="47.65718" lon="6.15096">
        <ele>229.80000305176</ele>
        <time>2012-07-20T10:08:47.000Z</time>
      </trkpt>
      <trkpt lat="47.65724" lon="6.15123">
        <ele>229.80000305176</ele>
        <time>2012-07-20T10:08:52.000Z</time>
      </trkpt>
      <trkpt lat="47.65731" lon="6.1515">
        <ele>229.80000305176</ele>
        <time>2012-07-20T10:08:58.000Z</time>
      </trkpt>
      <trkpt lat="47.65738" lon="6.15183">
        <ele>229.80000305176</ele>
        <time>2012-07-20T10:09:05.000Z</time>
      </trkpt>
      <trkpt lat="47.65746" lon="6.15226">
        <ele>229.80000305176</ele>
        <time>2012-07-20T10:09:12.000Z</time>
      </trkpt>
      <trkpt lat="47.65746" lon="6.15233">
        <ele>229.39999389648</ele>
        <time>2012-07-20T10:09:13.000Z</time>
      </trkpt>
      <trkpt lat="47.65747" lon="6.15241">
        <ele>228.80000305176</ele>
        <time>2012-07-20T10:09:14.000Z</time>
      </trkpt>
      <trkpt lat="47.65749" lon="6.15249">
        <ele>228.39999389648</ele>
        <time>2012-07-20T10:09:15.000Z</time>
      </trkpt>
      <trkpt lat="47.6575" lon="6.15257">
        <ele>228</ele>
        <time>2012-07-20T10:09:16.000Z</time>
      </trkpt>
      <trkpt lat="47.65752" lon="6.15266">
        <ele>227.60000610352</ele>
        <time>2012-07-20T10:09:17.000Z</time>
      </trkpt>
      <trkpt lat="47.65754" lon="6.15275">
        <ele>227.19999694824</ele>
        <time>2012-07-20T10:09:18.000Z</time>
      </trkpt>
      <trkpt lat="47.65756" lon="6.15285">
        <ele>226.80000305176</ele>
        <time>2012-07-20T10:09:19.000Z</time>
      </trkpt>
      <trkpt lat="47.65758" lon="6.15295">
        <ele>226.39999389648</ele>
        <time>2012-07-20T10:09:20.000Z</time>
      </trkpt>
      <trkpt lat="47.65759" lon="6.15304">
        <ele>226</ele>
        <time>2012-07-20T10:09:21.000Z</time>
      </trkpt>
      <trkpt lat="47.65761" lon="6.15314">
        <ele>225.60000610352</ele>
        <time>2012-07-20T10:09:22.000Z</time>
      </trkpt>
      <trkpt lat="47.65763" lon="6.15324">
        <ele>225.19999694824</ele>
        <time>2012-07-20T10:09:23.000Z</time>
      </trkpt>
      <trkpt lat="47.65765" lon="6.15333">
        <ele>224.80000305176</ele>
        <time>2012-07-20T10:09:24.000Z</time>
      </trkpt>
      <trkpt lat="47.65767" lon="6.15341">
        <ele>224.39999389648</ele>
        <time>2012-07-20T10:09:25.000Z</time>
      </trkpt>
      <trkpt lat="47.65769" lon="6.1535">
        <ele>223.80000305176</ele>
        <time>2012-07-20T10:09:26.000Z</time>
      </trkpt>
      <trkpt lat="47.6577" lon="6.15358">
        <ele>223.39999389648</ele>
        <time>2012-07-20T10:09:27.000Z</time>
      </trkpt>
      <trkpt lat="47.65779" lon="6.15403">
        <ele>223</ele>
        <time>2012-07-20T10:09:33.000Z</time>
      </trkpt>
      <trkpt lat="47.6578" lon="6.1541">
        <ele>222.60000610352</ele>
        <time>2012-07-20T10:09:34.000Z</time>
      </trkpt>
      <trkpt lat="47.65781" lon="6.15415">
        <ele>222.19999694824</ele>
        <time>2012-07-20T10:09:35.000Z</time>
      </trkpt>
      <trkpt lat="47.65782" lon="6.1542">
        <ele>221.80000305176</ele>
        <time>2012-07-20T10:09:36.000Z</time>
      </trkpt>
      <trkpt lat="47.65783" lon="6.15425">
        <ele>221.39999389648</ele>
        <time>2012-07-20T10:09:37.000Z</time>
      </trkpt>
      <trkpt lat="47.65784" lon="6.15429">
        <ele>221.39999389648</ele>
        <time>2012-07-20T10:09:38.000Z</time>
      </trkpt>
      <trkpt lat="47.65788" lon="6.15453">
        <ele>221.39999389648</ele>
        <time>2012-07-20T10:09:45.000Z</time>
      </trkpt>
      <trkpt lat="47.65792" lon="6.15471">
        <ele>221.39999389648</ele>
        <time>2012-07-20T10:09:51.000Z</time>
      </trkpt>
      <trkpt lat="47.65797" lon="6.15493">
        <ele>221.39999389648</ele>
        <time>2012-07-20T10:09:58.000Z</time>
      </trkpt>
      <trkpt lat="47.658" lon="6.15511">
        <ele>221.80000305176</ele>
        <time>2012-07-20T10:10:04.000Z</time>
      </trkpt>
      <trkpt lat="47.65801" lon="6.15514">
        <ele>222.19999694824</ele>
        <time>2012-07-20T10:10:05.000Z</time>
      </trkpt>
      <trkpt lat="47.65801" lon="6.15517">
        <ele>222.60000610352</ele>
        <time>2012-07-20T10:10:06.000Z</time>
      </trkpt>
      <trkpt lat="47.65802" lon="6.1552">
        <ele>223</ele>
        <time>2012-07-20T10:10:07.000Z</time>
      </trkpt>
      <trkpt lat="47.65803" lon="6.15523">
        <ele>223.39999389648</ele>
        <time>2012-07-20T10:10:08.000Z</time>
      </trkpt>
      <trkpt lat="47.65806" lon="6.15538">
        <ele>223.39999389648</ele>
        <time>2012-07-20T10:10:13.000Z</time>
      </trkpt>
      <trkpt lat="47.6581" lon="6.15556">
        <ele>223.39999389648</ele>
        <time>2012-07-20T10:10:19.000Z</time>
      </trkpt>
      <trkpt lat="47.65812" lon="6.15569">
        <ele>223.80000305176</ele>
        <time>2012-07-20T10:10:24.000Z</time>
      </trkpt>
      <trkpt lat="47.65812" lon="6.15572">
        <ele>224.19999694824</ele>
        <time>2012-07-20T10:10:25.000Z</time>
      </trkpt>
      <trkpt lat="47.65813" lon="6.15574">
        <ele>224.80000305176</ele>
        <time>2012-07-20T10:10:26.000Z</time>
      </trkpt>
      <trkpt lat="47.65814" lon="6.15577">
        <ele>225.19999694824</ele>
        <time>2012-07-20T10:10:27.000Z</time>
      </trkpt>
      <trkpt lat="47.65814" lon="6.1558">
        <ele>225.60000610352</ele>
        <time>2012-07-20T10:10:28.000Z</time>
      </trkpt>
      <trkpt lat="47.65817" lon="6.15592">
        <ele>225.60000610352</ele>
        <time>2012-07-20T10:10:32.000Z</time>
      </trkpt>
      <trkpt lat="47.65822" lon="6.15616">
        <ele>225.60000610352</ele>
        <time>2012-07-20T10:10:40.000Z</time>
      </trkpt>
      <trkpt lat="47.65827" lon="6.15639">
        <ele>225.60000610352</ele>
        <time>2012-07-20T10:10:47.000Z</time>
      </trkpt>
      <trkpt lat="47.65831" lon="6.1566">
        <ele>226</ele>
        <time>2012-07-20T10:10:53.000Z</time>
      </trkpt>
      <trkpt lat="47.65832" lon="6.15663">
        <ele>226.39999389648</ele>
        <time>2012-07-20T10:10:54.000Z</time>
      </trkpt>
      <trkpt lat="47.65832" lon="6.15667">
        <ele>226.80000305176</ele>
        <time>2012-07-20T10:10:55.000Z</time>
      </trkpt>
      <trkpt lat="47.65833" lon="6.1567">
        <ele>227.19999694824</ele>
        <time>2012-07-20T10:10:56.000Z</time>
      </trkpt>
      <trkpt lat="47.65833" lon="6.15674">
        <ele>227.60000610352</ele>
        <time>2012-07-20T10:10:57.000Z</time>
      </trkpt>
      <trkpt lat="47.65838" lon="6.15694">
        <ele>227.60000610352</ele>
        <time>2012-07-20T10:11:03.000Z</time>
      </trkpt>
      <trkpt lat="47.65844" lon="6.15725">
        <ele>227.60000610352</ele>
        <time>2012-07-20T10:11:11.000Z</time>
      </trkpt>
      <trkpt lat="47.65851" lon="6.15759">
        <ele>228</ele>
        <time>2012-07-20T10:11:20.000Z</time>
      </trkpt>
      <trkpt lat="47.65851" lon="6.15763">
        <ele>228.39999389648</ele>
        <time>2012-07-20T10:11:21.000Z</time>
      </trkpt>
      <trkpt lat="47.65852" lon="6.15767">
        <ele>228.80000305176</ele>
        <time>2012-07-20T10:11:22.000Z</time>
      </trkpt>
      <trkpt lat="47.65852" lon="6.1577">
        <ele>229.19999694824</ele>
        <time>2012-07-20T10:11:23.000Z</time>
      </trkpt>
      <trkpt lat="47.65853" lon="6.15774">
        <ele>229.60000610352</ele>
        <time>2012-07-20T10:11:24.000Z</time>
      </trkpt>
      <trkpt lat="47.65857" lon="6.15797">
        <ele>229.60000610352</ele>
        <time>2012-07-20T10:11:30.000Z</time>
      </trkpt>
      <trkpt lat="47.65862" lon="6.15823">
        <ele>229.60000610352</ele>
        <time>2012-07-20T10:11:37.000Z</time>
      </trkpt>
      <trkpt lat="47.65871" lon="6.15849">
        <ele>229.60000610352</ele>
        <time>2012-07-20T10:11:45.000Z</time>
      </trkpt>
      <trkpt lat="47.65874" lon="6.15858">
        <ele>229.60000610352</ele>
        <time>2012-07-20T10:11:49.000Z</time>
      </trkpt>
      <trkpt lat="47.65878" lon="6.15864">
        <ele>229.60000610352</ele>
        <time>2012-07-20T10:11:51.000Z</time>
      </trkpt>
      <trkpt lat="47.6589" lon="6.15885">
        <ele>229.60000610352</ele>
        <time>2012-07-20T10:11:58.000Z</time>
      </trkpt>
      <trkpt lat="47.65903" lon="6.15906">
        <ele>229.60000610352</ele>
        <time>2012-07-20T10:12:05.000Z</time>
      </trkpt>
      <trkpt lat="47.65915" lon="6.15925">
        <ele>229.60000610352</ele>
        <time>2012-07-20T10:12:12.000Z</time>
      </trkpt>
      <trkpt lat="47.65927" lon="6.15956">
        <ele>229.60000610352</ele>
        <time>2012-07-20T10:12:20.000Z</time>
      </trkpt>
      <trkpt lat="47.65923" lon="6.15967">
        <ele>229.60000610352</ele>
        <time>2012-07-20T10:12:24.000Z</time>
      </trkpt>
      <trkpt lat="47.65911" lon="6.15984">
        <ele>229.60000610352</ele>
        <time>2012-07-20T10:12:32.000Z</time>
      </trkpt>
      <trkpt lat="47.65906" lon="6.1599">
        <ele>230</ele>
        <time>2012-07-20T10:12:35.000Z</time>
      </trkpt>
      <trkpt lat="47.65904" lon="6.15992">
        <ele>230.39999389648</ele>
        <time>2012-07-20T10:12:36.000Z</time>
      </trkpt>
      <trkpt lat="47.65903" lon="6.15994">
        <ele>230.80000305176</ele>
        <time>2012-07-20T10:12:37.000Z</time>
      </trkpt>
      <trkpt lat="47.65901" lon="6.15996">
        <ele>231.19999694824</ele>
        <time>2012-07-20T10:12:38.000Z</time>
      </trkpt>
      <trkpt lat="47.659" lon="6.15998">
        <ele>231.60000610352</ele>
        <time>2012-07-20T10:12:39.000Z</time>
      </trkpt>
      <trkpt lat="47.65891" lon="6.16012">
        <ele>231.60000610352</ele>
        <time>2012-07-20T10:12:45.000Z</time>
      </trkpt>
      <trkpt lat="47.6588" lon="6.16033">
        <ele>231.60000610352</ele>
        <time>2012-07-20T10:12:52.000Z</time>
      </trkpt>
      <trkpt lat="47.65865" lon="6.16054">
        <ele>231.60000610352</ele>
        <time>2012-07-20T10:12:57.000Z</time>
      </trkpt>
      <trkpt lat="47.65834" lon="6.16093">
        <ele>231.60000610352</ele>
        <time>2012-07-20T10:13:04.000Z</time>
      </trkpt>
      <trkpt lat="47.6582" lon="6.16113">
        <ele>231.19999694824</ele>
        <time>2012-07-20T10:13:07.000Z</time>
      </trkpt>
      <trkpt lat="47.65814" lon="6.16119">
        <ele>230.80000305176</ele>
        <time>2012-07-20T10:13:08.000Z</time>
      </trkpt>
      <trkpt lat="47.65809" lon="6.16125">
        <ele>229.80000305176</ele>
        <time>2012-07-20T10:13:09.000Z</time>
      </trkpt>
      <trkpt lat="47.65804" lon="6.16133">
        <ele>229.39999389648</ele>
        <time>2012-07-20T10:13:10.000Z</time>
      </trkpt>
      <trkpt lat="47.65798" lon="6.1614">
        <ele>229.39999389648</ele>
        <time>2012-07-20T10:13:11.000Z</time>
      </trkpt>
      <trkpt lat="47.65793" lon="6.16148">
        <ele>228.80000305176</ele>
        <time>2012-07-20T10:13:12.000Z</time>
      </trkpt>
      <trkpt lat="47.65787" lon="6.16156">
        <ele>228.39999389648</ele>
        <time>2012-07-20T10:13:13.000Z</time>
      </trkpt>
      <trkpt lat="47.65782" lon="6.16164">
        <ele>227.80000305176</ele>
        <time>2012-07-20T10:13:14.000Z</time>
      </trkpt>
      <trkpt lat="47.65776" lon="6.16171">
        <ele>227.39999389648</ele>
        <time>2012-07-20T10:13:15.000Z</time>
      </trkpt>
      <trkpt lat="47.6577" lon="6.16179">
        <ele>227</ele>
        <time>2012-07-20T10:13:16.000Z</time>
      </trkpt>
      <trkpt lat="47.65764" lon="6.16188">
        <ele>226.60000610352</ele>
        <time>2012-07-20T10:13:17.000Z</time>
      </trkpt>
      <trkpt lat="47.65758" lon="6.16196">
        <ele>226.19999694824</ele>
        <time>2012-07-20T10:13:18.000Z</time>
      </trkpt>
      <trkpt lat="47.65752" lon="6.16204">
        <ele>225.80000305176</ele>
        <time>2012-07-20T10:13:19.000Z</time>
      </trkpt>
      <trkpt lat="47.65747" lon="6.16212">
        <ele>225.19999694824</ele>
        <time>2012-07-20T10:13:20.000Z</time>
      </trkpt>
      <trkpt lat="47.65742" lon="6.16219">
        <ele>224.80000305176</ele>
        <time>2012-07-20T10:13:21.000Z</time>
      </trkpt>
      <trkpt lat="47.65726" lon="6.16242">
        <ele>224.80000305176</ele>
        <time>2012-07-20T10:13:24.000Z</time>
      </trkpt>
      <trkpt lat="47.657" lon="6.16279">
        <ele>224.80000305176</ele>
        <time>2012-07-20T10:13:30.000Z</time>
      </trkpt>
      <trkpt lat="47.65679" lon="6.16309">
        <ele>224.80000305176</ele>
        <time>2012-07-20T10:13:36.000Z</time>
      </trkpt>
      <trkpt lat="47.65672" lon="6.16319">
        <ele>224.80000305176</ele>
        <time>2012-07-20T10:13:38.000Z</time>
      </trkpt>
      <trkpt lat="47.65656" lon="6.16342">
        <ele>224.80000305176</ele>
        <time>2012-07-20T10:13:43.000Z</time>
      </trkpt>
      <trkpt lat="47.65635" lon="6.16374">
        <ele>224.80000305176</ele>
        <time>2012-07-20T10:13:50.000Z</time>
      </trkpt>
      <trkpt lat="47.65611" lon="6.16409">
        <ele>224.80000305176</ele>
        <time>2012-07-20T10:13:58.000Z</time>
      </trkpt>
      <trkpt lat="47.65593" lon="6.16435">
        <ele>224.80000305176</ele>
        <time>2012-07-20T10:14:05.000Z</time>
      </trkpt>
      <trkpt lat="47.65586" lon="6.16447">
        <ele>225.19999694824</ele>
        <time>2012-07-20T10:14:08.000Z</time>
      </trkpt>
      <trkpt lat="47.65584" lon="6.1645">
        <ele>225.60000610352</ele>
        <time>2012-07-20T10:14:09.000Z</time>
      </trkpt>
      <trkpt lat="47.65581" lon="6.16454">
        <ele>226.19999694824</ele>
        <time>2012-07-20T10:14:10.000Z</time>
      </trkpt>
      <trkpt lat="47.65579" lon="6.16458">
        <ele>226.60000610352</ele>
        <time>2012-07-20T10:14:11.000Z</time>
      </trkpt>
      <trkpt lat="47.65576" lon="6.16462">
        <ele>227</ele>
        <time>2012-07-20T10:14:12.000Z</time>
      </trkpt>
      <trkpt lat="47.65574" lon="6.16465">
        <ele>227</ele>
        <time>2012-07-20T10:14:13.000Z</time>
      </trkpt>
      <trkpt lat="47.65554" lon="6.16493">
        <ele>227</ele>
        <time>2012-07-20T10:14:21.000Z</time>
      </trkpt>
      <trkpt lat="47.65536" lon="6.16519">
        <ele>227.39999389648</ele>
        <time>2012-07-20T10:14:29.000Z</time>
      </trkpt>
      <trkpt lat="47.65534" lon="6.16522">
        <ele>227.80000305176</ele>
        <time>2012-07-20T10:14:30.000Z</time>
      </trkpt>
      <trkpt lat="47.65533" lon="6.16525">
        <ele>228.19999694824</ele>
        <time>2012-07-20T10:14:31.000Z</time>
      </trkpt>
      <trkpt lat="47.65531" lon="6.16527">
        <ele>228.60000610352</ele>
        <time>2012-07-20T10:14:32.000Z</time>
      </trkpt>
      <trkpt lat="47.6553" lon="6.1653">
        <ele>229</ele>
        <time>2012-07-20T10:14:33.000Z</time>
      </trkpt>
      <trkpt lat="47.65522" lon="6.16539">
        <ele>229</ele>
        <time>2012-07-20T10:14:37.000Z</time>
      </trkpt>
      <trkpt lat="47.65509" lon="6.16538">
        <ele>229</ele>
        <time>2012-07-20T10:14:42.000Z</time>
      </trkpt>
      <trkpt lat="47.65487" lon="6.16534">
        <ele>229</ele>
        <time>2012-07-20T10:14:49.000Z</time>
      </trkpt>
      <trkpt lat="47.65452" lon="6.16528">
        <ele>229</ele>
        <time>2012-07-20T10:14:59.000Z</time>
      </trkpt>
      <trkpt lat="47.65429" lon="6.16524">
        <ele>229</ele>
        <time>2012-07-20T10:15:05.000Z</time>
      </trkpt>
      <trkpt lat="47.6539" lon="6.16516">
        <ele>229</ele>
        <time>2012-07-20T10:15:14.000Z</time>
      </trkpt>
      <trkpt lat="47.65357" lon="6.16511">
        <ele>229</ele>
        <time>2012-07-20T10:15:22.000Z</time>
      </trkpt>
      <trkpt lat="47.65327" lon="6.16505">
        <ele>229</ele>
        <time>2012-07-20T10:15:30.000Z</time>
      </trkpt>
      <trkpt lat="47.65285" lon="6.16497">
        <ele>229</ele>
        <time>2012-07-20T10:15:41.000Z</time>
      </trkpt>
      <trkpt lat="47.65239" lon="6.16489">
        <ele>229</ele>
        <time>2012-07-20T10:15:53.000Z</time>
      </trkpt>
      <trkpt lat="47.65205" lon="6.16483">
        <ele>229</ele>
        <time>2012-07-20T10:16:03.000Z</time>
      </trkpt>
      <trkpt lat="47.65183" lon="6.16479">
        <ele>229</ele>
        <time>2012-07-20T10:16:11.000Z</time>
      </trkpt>
      <trkpt lat="47.6518" lon="6.16478">
        <ele>229.39999389648</ele>
        <time>2012-07-20T10:16:12.000Z</time>
      </trkpt>
      <trkpt lat="47.65177" lon="6.16479">
        <ele>229.80000305176</ele>
        <time>2012-07-20T10:16:13.000Z</time>
      </trkpt>
      <trkpt lat="47.65175" lon="6.16478">
        <ele>230.19999694824</ele>
        <time>2012-07-20T10:16:14.000Z</time>
      </trkpt>
      <trkpt lat="47.65172" lon="6.16477">
        <ele>230.60000610352</ele>
        <time>2012-07-20T10:16:15.000Z</time>
      </trkpt>
      <trkpt lat="47.6517" lon="6.16476">
        <ele>231</ele>
        <time>2012-07-20T10:16:16.000Z</time>
      </trkpt>
      <trkpt lat="47.65165" lon="6.16475">
        <ele>231</ele>
        <time>2012-07-20T10:16:18.000Z</time>
      </trkpt>
      <trkpt lat="47.65148" lon="6.16473">
        <ele>231</ele>
        <time>2012-07-20T10:16:25.000Z</time>
      </trkpt>
      <trkpt lat="47.65136" lon="6.1647">
        <ele>231.39999389648</ele>
        <time>2012-07-20T10:16:30.000Z</time>
      </trkpt>
      <trkpt lat="47.65133" lon="6.16469">
        <ele>231.80000305176</ele>
        <time>2012-07-20T10:16:31.000Z</time>
      </trkpt>
      <trkpt lat="47.65131" lon="6.16469">
        <ele>232.19999694824</ele>
        <time>2012-07-20T10:16:32.000Z</time>
      </trkpt>
      <trkpt lat="47.65128" lon="6.16468">
        <ele>232.60000610352</ele>
        <time>2012-07-20T10:16:33.000Z</time>
      </trkpt>
      <trkpt lat="47.65126" lon="6.16468">
        <ele>233</ele>
        <time>2012-07-20T10:16:34.000Z</time>
      </trkpt>
      <trkpt lat="47.65111" lon="6.16466">
        <ele>233</ele>
        <time>2012-07-20T10:16:40.000Z</time>
      </trkpt>
      <trkpt lat="47.65095" lon="6.16463">
        <ele>233</ele>
        <time>2012-07-20T10:16:47.000Z</time>
      </trkpt>
      <trkpt lat="47.65089" lon="6.16462">
        <ele>233.60000610352</ele>
        <time>2012-07-20T10:16:50.000Z</time>
      </trkpt>
      <trkpt lat="47.65086" lon="6.16461">
        <ele>234</ele>
        <time>2012-07-20T10:16:51.000Z</time>
      </trkpt>
      <trkpt lat="47.65084" lon="6.16461">
        <ele>234.80000305176</ele>
        <time>2012-07-20T10:16:52.000Z</time>
      </trkpt>
      <trkpt lat="47.65082" lon="6.1646">
        <ele>235.19999694824</ele>
        <time>2012-07-20T10:16:53.000Z</time>
      </trkpt>
      <trkpt lat="47.65063" lon="6.16456">
        <ele>235.19999694824</ele>
        <time>2012-07-20T10:17:01.000Z</time>
      </trkpt>
      <trkpt lat="47.65046" lon="6.16453">
        <ele>235.19999694824</ele>
        <time>2012-07-20T10:17:08.000Z</time>
      </trkpt>
      <trkpt lat="47.65042" lon="6.16453">
        <ele>235.60000610352</ele>
        <time>2012-07-20T10:17:10.000Z</time>
      </trkpt>
      <trkpt lat="47.65039" lon="6.16452">
        <ele>236</ele>
        <time>2012-07-20T10:17:11.000Z</time>
      </trkpt>
      <trkpt lat="47.65037" lon="6.16452">
        <ele>236.39999389648</ele>
        <time>2012-07-20T10:17:12.000Z</time>
      </trkpt>
      <trkpt lat="47.65034" lon="6.16451">
        <ele>237</ele>
        <time>2012-07-20T10:17:13.000Z</time>
      </trkpt>
      <trkpt lat="47.65032" lon="6.16451">
        <ele>237.39999389648</ele>
        <time>2012-07-20T10:17:14.000Z</time>
      </trkpt>
      <trkpt lat="47.65026" lon="6.1645">
        <ele>237.39999389648</ele>
        <time>2012-07-20T10:17:16.000Z</time>
      </trkpt>
      <trkpt lat="47.65013" lon="6.16446">
        <ele>237.39999389648</ele>
        <time>2012-07-20T10:17:22.000Z</time>
      </trkpt>
      <trkpt lat="47.64992" lon="6.16443">
        <ele>237.39999389648</ele>
        <time>2012-07-20T10:17:31.000Z</time>
      </trkpt>
      <trkpt lat="47.64968" lon="6.16441">
        <ele>237.39999389648</ele>
        <time>2012-07-20T10:17:39.000Z</time>
      </trkpt>
      <trkpt lat="47.64939" lon="6.16436">
        <ele>237.39999389648</ele>
        <time>2012-07-20T10:17:47.000Z</time>
      </trkpt>
      <trkpt lat="47.64913" lon="6.1643">
        <ele>237.39999389648</ele>
        <time>2012-07-20T10:17:55.000Z</time>
      </trkpt>
      <trkpt lat="47.64894" lon="6.16428">
        <ele>237.39999389648</ele>
        <time>2012-07-20T10:18:02.000Z</time>
      </trkpt>
      <trkpt lat="47.64876" lon="6.16424">
        <ele>237.39999389648</ele>
        <time>2012-07-20T10:18:09.000Z</time>
      </trkpt>
      <trkpt lat="47.64848" lon="6.16419">
        <ele>237.39999389648</ele>
        <time>2012-07-20T10:18:19.000Z</time>
      </trkpt>
      <trkpt lat="47.64842" lon="6.16418">
        <ele>237.80000305176</ele>
        <time>2012-07-20T10:18:21.000Z</time>
      </trkpt>
      <trkpt lat="47.64839" lon="6.16418">
        <ele>238.39999389648</ele>
        <time>2012-07-20T10:18:22.000Z</time>
      </trkpt>
      <trkpt lat="47.64837" lon="6.16417">
        <ele>238.80000305176</ele>
        <time>2012-07-20T10:18:23.000Z</time>
      </trkpt>
      <trkpt lat="47.64834" lon="6.16417">
        <ele>239.19999694824</ele>
        <time>2012-07-20T10:18:24.000Z</time>
      </trkpt>
      <trkpt lat="47.64832" lon="6.16416">
        <ele>239.80000305176</ele>
        <time>2012-07-20T10:18:25.000Z</time>
      </trkpt>
      <trkpt lat="47.64824" lon="6.16415">
        <ele>239.80000305176</ele>
        <time>2012-07-20T10:18:28.000Z</time>
      </trkpt>
      <trkpt lat="47.64803" lon="6.16411">
        <ele>239.80000305176</ele>
        <time>2012-07-20T10:18:35.000Z</time>
      </trkpt>
      <trkpt lat="47.64778" lon="6.16405">
        <ele>239.80000305176</ele>
        <time>2012-07-20T10:18:42.000Z</time>
      </trkpt>
      <trkpt lat="47.64753" lon="6.16402">
        <ele>239.80000305176</ele>
        <time>2012-07-20T10:18:48.000Z</time>
      </trkpt>
      <trkpt lat="47.64732" lon="6.16397">
        <ele>239.39999389648</ele>
        <time>2012-07-20T10:18:52.000Z</time>
      </trkpt>
      <trkpt lat="47.64727" lon="6.16396">
        <ele>239</ele>
        <time>2012-07-20T10:18:53.000Z</time>
      </trkpt>
      <trkpt lat="47.64721" lon="6.16396">
        <ele>238.60000610352</ele>
        <time>2012-07-20T10:18:54.000Z</time>
      </trkpt>
      <trkpt lat="47.64715" lon="6.16394">
        <ele>237.80000305176</ele>
        <time>2012-07-20T10:18:55.000Z</time>
      </trkpt>
      <trkpt lat="47.64672" lon="6.16386">
        <ele>237.80000305176</ele>
        <time>2012-07-20T10:19:02.000Z</time>
      </trkpt>
      <trkpt lat="47.64665" lon="6.16385">
        <ele>237.39999389648</ele>
        <time>2012-07-20T10:19:03.000Z</time>
      </trkpt>
      <trkpt lat="47.64659" lon="6.16384">
        <ele>236.80000305176</ele>
        <time>2012-07-20T10:19:04.000Z</time>
      </trkpt>
      <trkpt lat="47.64652" lon="6.16382">
        <ele>236.39999389648</ele>
        <time>2012-07-20T10:19:05.000Z</time>
      </trkpt>
      <trkpt lat="47.64646" lon="6.16381">
        <ele>236</ele>
        <time>2012-07-20T10:19:06.000Z</time>
      </trkpt>
      <trkpt lat="47.64638" lon="6.1638">
        <ele>235.60000610352</ele>
        <time>2012-07-20T10:19:07.000Z</time>
      </trkpt>
      <trkpt lat="47.64617" lon="6.16376">
        <ele>235.60000610352</ele>
        <time>2012-07-20T10:19:10.000Z</time>
      </trkpt>
      <trkpt lat="47.64562" lon="6.16366">
        <ele>235.60000610352</ele>
        <time>2012-07-20T10:19:18.000Z</time>
      </trkpt>
      <trkpt lat="47.64555" lon="6.16365">
        <ele>235.60000610352</ele>
        <time>2012-07-20T10:19:19.000Z</time>
      </trkpt>
      <trkpt lat="47.64543" lon="6.16363">
        <ele>235.19999694824</ele>
        <time>2012-07-20T10:19:21.000Z</time>
      </trkpt>
      <trkpt lat="47.64536" lon="6.16362">
        <ele>234.80000305176</ele>
        <time>2012-07-20T10:19:22.000Z</time>
      </trkpt>
      <trkpt lat="47.6453" lon="6.16361">
        <ele>234.39999389648</ele>
        <time>2012-07-20T10:19:23.000Z</time>
      </trkpt>
      <trkpt lat="47.64524" lon="6.1636">
        <ele>234</ele>
        <time>2012-07-20T10:19:24.000Z</time>
      </trkpt>
      <trkpt lat="47.64517" lon="6.16359">
        <ele>233.60000610352</ele>
        <time>2012-07-20T10:19:25.000Z</time>
      </trkpt>
      <trkpt lat="47.64478" lon="6.16353">
        <ele>233.60000610352</ele>
        <time>2012-07-20T10:19:32.000Z</time>
      </trkpt>
      <trkpt lat="47.64443" lon="6.16342">
        <ele>233.60000610352</ele>
        <time>2012-07-20T10:19:39.000Z</time>
      </trkpt>
      <trkpt lat="47.64435" lon="6.16337">
        <ele>233.60000610352</ele>
        <time>2012-07-20T10:19:41.000Z</time>
      </trkpt>
      <trkpt lat="47.64429" lon="6.1632">
        <ele>233.60000610352</ele>
        <time>2012-07-20T10:19:44.000Z</time>
      </trkpt>
      <trkpt lat="47.64415" lon="6.16304">
        <ele>233.60000610352</ele>
        <time>2012-07-20T10:19:48.000Z</time>
      </trkpt>
      <trkpt lat="47.64403" lon="6.16311">
        <ele>233.60000610352</ele>
        <time>2012-07-20T10:19:51.000Z</time>
      </trkpt>
      <trkpt lat="47.644" lon="6.16316">
        <ele>234</ele>
        <time>2012-07-20T10:19:52.000Z</time>
      </trkpt>
      <trkpt lat="47.64397" lon="6.16321">
        <ele>234.39999389648</ele>
        <time>2012-07-20T10:19:53.000Z</time>
      </trkpt>
      <trkpt lat="47.64393" lon="6.16326">
        <ele>234.80000305176</ele>
        <time>2012-07-20T10:19:54.000Z</time>
      </trkpt>
      <trkpt lat="47.64389" lon="6.1633">
        <ele>235.19999694824</ele>
        <time>2012-07-20T10:19:55.000Z</time>
      </trkpt>
      <trkpt lat="47.64384" lon="6.16332">
        <ele>235.60000610352</ele>
        <time>2012-07-20T10:19:56.000Z</time>
      </trkpt>
      <trkpt lat="47.64371" lon="6.16334">
        <ele>235.60000610352</ele>
        <time>2012-07-20T10:19:59.000Z</time>
      </trkpt>
      <trkpt lat="47.64368" lon="6.16335">
        <ele>235.60000610352</ele>
        <time>2012-07-20T10:20:00.000Z</time>
      </trkpt>
      <trkpt lat="47.64357" lon="6.16348">
        <ele>235.60000610352</ele>
        <time>2012-07-20T10:20:04.000Z</time>
      </trkpt>
      <trkpt lat="47.64354" lon="6.1636">
        <ele>235.60000610352</ele>
        <time>2012-07-20T10:20:06.000Z</time>
      </trkpt>
      <trkpt lat="47.64352" lon="6.16373">
        <ele>235.60000610352</ele>
        <time>2012-07-20T10:20:08.000Z</time>
      </trkpt>
      <trkpt lat="47.64339" lon="6.16419">
        <ele>235.60000610352</ele>
        <time>2012-07-20T10:20:15.000Z</time>
      </trkpt>
      <trkpt lat="47.64329" lon="6.16453">
        <ele>235.19999694824</ele>
        <time>2012-07-20T10:20:20.000Z</time>
      </trkpt>
      <trkpt lat="47.64327" lon="6.16459">
        <ele>234.80000305176</ele>
        <time>2012-07-20T10:20:21.000Z</time>
      </trkpt>
      <trkpt lat="47.64325" lon="6.16466">
        <ele>234.39999389648</ele>
        <time>2012-07-20T10:20:22.000Z</time>
      </trkpt>
      <trkpt lat="47.64323" lon="6.16473">
        <ele>234</ele>
        <time>2012-07-20T10:20:23.000Z</time>
      </trkpt>
      <trkpt lat="47.64321" lon="6.16479">
        <ele>233.60000610352</ele>
        <time>2012-07-20T10:20:24.000Z</time>
      </trkpt>
      <trkpt lat="47.6432" lon="6.16486">
        <ele>233.60000610352</ele>
        <time>2012-07-20T10:20:25.000Z</time>
      </trkpt>
      <trkpt lat="47.64316" lon="6.16505">
        <ele>233.60000610352</ele>
        <time>2012-07-20T10:20:28.000Z</time>
      </trkpt>
      <trkpt lat="47.64305" lon="6.16546">
        <ele>233.60000610352</ele>
        <time>2012-07-20T10:20:35.000Z</time>
      </trkpt>
      <trkpt lat="47.64296" lon="6.16583">
        <ele>233.60000610352</ele>
        <time>2012-07-20T10:20:42.000Z</time>
      </trkpt>
      <trkpt lat="47.64285" lon="6.16619">
        <ele>233.60000610352</ele>
        <time>2012-07-20T10:20:50.000Z</time>
      </trkpt>
      <trkpt lat="47.64276" lon="6.16647">
        <ele>233.60000610352</ele>
        <time>2012-07-20T10:20:57.000Z</time>
      </trkpt>
      <trkpt lat="47.64269" lon="6.16674">
        <ele>234</ele>
        <time>2012-07-20T10:21:04.000Z</time>
      </trkpt>
      <trkpt lat="47.64269" lon="6.16678">
        <ele>234.39999389648</ele>
        <time>2012-07-20T10:21:05.000Z</time>
      </trkpt>
      <trkpt lat="47.64268" lon="6.16682">
        <ele>234.80000305176</ele>
        <time>2012-07-20T10:21:06.000Z</time>
      </trkpt>
      <trkpt lat="47.64267" lon="6.16686">
        <ele>235.19999694824</ele>
        <time>2012-07-20T10:21:07.000Z</time>
      </trkpt>
      <trkpt lat="47.64266" lon="6.16689">
        <ele>235.60000610352</ele>
        <time>2012-07-20T10:21:08.000Z</time>
      </trkpt>
      <trkpt lat="47.64264" lon="6.167">
        <ele>235.60000610352</ele>
        <time>2012-07-20T10:21:11.000Z</time>
      </trkpt>
      <trkpt lat="47.64256" lon="6.16722">
        <ele>235.60000610352</ele>
        <time>2012-07-20T10:21:17.000Z</time>
      </trkpt>
      <trkpt lat="47.64251" lon="6.16745">
        <ele>235.60000610352</ele>
        <time>2012-07-20T10:21:21.000Z</time>
      </trkpt>
      <trkpt lat="47.64249" lon="6.16752">
        <ele>235.60000610352</ele>
        <time>2012-07-20T10:21:22.000Z</time>
      </trkpt>
      <trkpt lat="47.64244" lon="6.16769">
        <ele>235.60000610352</ele>
        <time>2012-07-20T10:21:25.000Z</time>
      </trkpt>
      <trkpt lat="47.64239" lon="6.16787">
        <ele>235.60000610352</ele>
        <time>2012-07-20T10:21:28.000Z</time>
      </trkpt>
      <trkpt lat="47.64231" lon="6.16824">
        <ele>235.60000610352</ele>
        <time>2012-07-20T10:21:35.000Z</time>
      </trkpt>
      <trkpt lat="47.64228" lon="6.16838">
        <ele>236</ele>
        <time>2012-07-20T10:21:38.000Z</time>
      </trkpt>
      <trkpt lat="47.64227" lon="6.16843">
        <ele>236.39999389648</ele>
        <time>2012-07-20T10:21:39.000Z</time>
      </trkpt>
      <trkpt lat="47.64226" lon="6.16847">
        <ele>236.80000305176</ele>
        <time>2012-07-20T10:21:40.000Z</time>
      </trkpt>
      <trkpt lat="47.64225" lon="6.16852">
        <ele>237.19999694824</ele>
        <time>2012-07-20T10:21:41.000Z</time>
      </trkpt>
      <trkpt lat="47.64224" lon="6.16857">
        <ele>237.60000610352</ele>
        <time>2012-07-20T10:21:42.000Z</time>
      </trkpt>
      <trkpt lat="47.64222" lon="6.16866">
        <ele>237.60000610352</ele>
        <time>2012-07-20T10:21:44.000Z</time>
      </trkpt>
      <trkpt lat="47.64214" lon="6.16903">
        <ele>237.60000610352</ele>
        <time>2012-07-20T10:21:51.000Z</time>
      </trkpt>
      <trkpt lat="47.64206" lon="6.16931">
        <ele>237.60000610352</ele>
        <time>2012-07-20T10:21:56.000Z</time>
      </trkpt>
      <trkpt lat="47.64195" lon="6.16974">
        <ele>237.60000610352</ele>
        <time>2012-07-20T10:22:02.000Z</time>
      </trkpt>
      <trkpt lat="47.64193" lon="6.16983">
        <ele>237.19999694824</ele>
        <time>2012-07-20T10:22:03.000Z</time>
      </trkpt>
      <trkpt lat="47.6419" lon="6.16991">
        <ele>236.80000305176</ele>
        <time>2012-07-20T10:22:04.000Z</time>
      </trkpt>
      <trkpt lat="47.64188" lon="6.17001">
        <ele>236.39999389648</ele>
        <time>2012-07-20T10:22:05.000Z</time>
      </trkpt>
      <trkpt lat="47.64186" lon="6.1701">
        <ele>235.80000305176</ele>
        <time>2012-07-20T10:22:06.000Z</time>
      </trkpt>
      <trkpt lat="47.64183" lon="6.1702">
        <ele>235.39999389648</ele>
        <time>2012-07-20T10:22:07.000Z</time>
      </trkpt>
      <trkpt lat="47.64181" lon="6.1703">
        <ele>235</ele>
        <time>2012-07-20T10:22:08.000Z</time>
      </trkpt>
      <trkpt lat="47.64177" lon="6.17041">
        <ele>234.60000610352</ele>
        <time>2012-07-20T10:22:09.000Z</time>
      </trkpt>
      <trkpt lat="47.64174" lon="6.17053">
        <ele>234.19999694824</ele>
        <time>2012-07-20T10:22:10.000Z</time>
      </trkpt>
      <trkpt lat="47.64171" lon="6.17065">
        <ele>233.80000305176</ele>
        <time>2012-07-20T10:22:11.000Z</time>
      </trkpt>
      <trkpt lat="47.64168" lon="6.17078">
        <ele>232.80000305176</ele>
        <time>2012-07-20T10:22:12.000Z</time>
      </trkpt>
      <trkpt lat="47.64165" lon="6.17091">
        <ele>232.19999694824</ele>
        <time>2012-07-20T10:22:13.000Z</time>
      </trkpt>
      <trkpt lat="47.64162" lon="6.17105">
        <ele>231.60000610352</ele>
        <time>2012-07-20T10:22:14.000Z</time>
      </trkpt>
      <trkpt lat="47.6416" lon="6.17119">
        <ele>230.80000305176</ele>
        <time>2012-07-20T10:22:15.000Z</time>
      </trkpt>
      <trkpt lat="47.64156" lon="6.17133">
        <ele>230.19999694824</ele>
        <time>2012-07-20T10:22:16.000Z</time>
      </trkpt>
      <trkpt lat="47.64153" lon="6.17148">
        <ele>229.39999389648</ele>
        <time>2012-07-20T10:22:17.000Z</time>
      </trkpt>
      <trkpt lat="47.64149" lon="6.17163">
        <ele>228.60000610352</ele>
        <time>2012-07-20T10:22:18.000Z</time>
      </trkpt>
      <trkpt lat="47.64146" lon="6.17178">
        <ele>227.80000305176</ele>
        <time>2012-07-20T10:22:19.000Z</time>
      </trkpt>
      <trkpt lat="47.64142" lon="6.17193">
        <ele>227</ele>
        <time>2012-07-20T10:22:20.000Z</time>
      </trkpt>
      <trkpt lat="47.64138" lon="6.17207">
        <ele>226</ele>
        <time>2012-07-20T10:22:21.000Z</time>
      </trkpt>
      <trkpt lat="47.64134" lon="6.17221">
        <ele>225.19999694824</ele>
        <time>2012-07-20T10:22:22.000Z</time>
      </trkpt>
      <trkpt lat="47.6413" lon="6.17234">
        <ele>224.39999389648</ele>
        <time>2012-07-20T10:22:23.000Z</time>
      </trkpt>
      <trkpt lat="47.64126" lon="6.17246">
        <ele>223.60000610352</ele>
        <time>2012-07-20T10:22:24.000Z</time>
      </trkpt>
      <trkpt lat="47.64101" lon="6.173">
        <ele>223.60000610352</ele>
        <time>2012-07-20T10:22:29.000Z</time>
      </trkpt>
      <trkpt lat="47.64079" lon="6.17333">
        <ele>223.19999694824</ele>
        <time>2012-07-20T10:22:33.000Z</time>
      </trkpt>
      <trkpt lat="47.64074" lon="6.17341">
        <ele>222.80000305176</ele>
        <time>2012-07-20T10:22:34.000Z</time>
      </trkpt>
      <trkpt lat="47.64068" lon="6.17348">
        <ele>222.19999694824</ele>
        <time>2012-07-20T10:22:35.000Z</time>
      </trkpt>
      <trkpt lat="47.64062" lon="6.17354">
        <ele>221.80000305176</ele>
        <time>2012-07-20T10:22:36.000Z</time>
      </trkpt>
      <trkpt lat="47.64056" lon="6.1736">
        <ele>221.39999389648</ele>
        <time>2012-07-20T10:22:37.000Z</time>
      </trkpt>
      <trkpt lat="47.64038" lon="6.17374">
        <ele>221.39999389648</ele>
        <time>2012-07-20T10:22:40.000Z</time>
      </trkpt>
      <trkpt lat="47.63999" lon="6.17401">
        <ele>221</ele>
        <time>2012-07-20T10:22:47.000Z</time>
      </trkpt>
      <trkpt lat="47.63994" lon="6.17404">
        <ele>220.60000610352</ele>
        <time>2012-07-20T10:22:48.000Z</time>
      </trkpt>
      <trkpt lat="47.63991" lon="6.17406">
        <ele>220.19999694824</ele>
        <time>2012-07-20T10:22:49.000Z</time>
      </trkpt>
      <trkpt lat="47.63989" lon="6.17408">
        <ele>219.80000305176</ele>
        <time>2012-07-20T10:22:50.000Z</time>
      </trkpt>
      <trkpt lat="47.63987" lon="6.17412">
        <ele>219.39999389648</ele>
        <time>2012-07-20T10:22:51.000Z</time>
      </trkpt>
      <trkpt lat="47.63987" lon="6.17417">
        <ele>219.39999389648</ele>
        <time>2012-07-20T10:22:52.000Z</time>
      </trkpt>
      <trkpt lat="47.6399" lon="6.17427">
        <ele>219.39999389648</ele>
        <time>2012-07-20T10:22:54.000Z</time>
      </trkpt>
      <trkpt lat="47.63994" lon="6.17432">
        <ele>219.39999389648</ele>
        <time>2012-07-20T10:22:56.000Z</time>
      </trkpt>
      <trkpt lat="47.63994" lon="6.17432">
        <ele>219.39999389648</ele>
        <time>2012-07-20T10:22:58.000Z</time>
      </trkpt>
      <trkpt lat="47.63995" lon="6.17434">
        <ele>219.39999389648</ele>
        <time>2012-07-20T10:23:04.000Z</time>
      </trkpt>
      <trkpt lat="47.63998" lon="6.17439">
        <ele>219.39999389648</ele>
        <time>2012-07-20T10:23:06.000Z</time>
      </trkpt>
      <trkpt lat="47.64013" lon="6.17462">
        <ele>219.39999389648</ele>
        <time>2012-07-20T10:23:12.000Z</time>
      </trkpt>
      <trkpt lat="47.64045" lon="6.17508">
        <ele>219.39999389648</ele>
        <time>2012-07-20T10:23:22.000Z</time>
      </trkpt>
      <trkpt lat="47.64073" lon="6.17547">
        <ele>219.39999389648</ele>
        <time>2012-07-20T10:23:29.000Z</time>
      </trkpt>
      <trkpt lat="47.64104" lon="6.17589">
        <ele>219.39999389648</ele>
        <time>2012-07-20T10:23:37.000Z</time>
      </trkpt>
      <trkpt lat="47.64131" lon="6.17625">
        <ele>219.39999389648</ele>
        <time>2012-07-20T10:23:45.000Z</time>
      </trkpt>
      <trkpt lat="47.64162" lon="6.17667">
        <ele>219.39999389648</ele>
        <time>2012-07-20T10:23:54.000Z</time>
      </trkpt>
      <trkpt lat="47.64169" lon="6.17676">
        <ele>219.39999389648</ele>
        <time>2012-07-20T10:23:56.000Z</time>
      </trkpt>
      <trkpt lat="47.64177" lon="6.17687">
        <ele>219.39999389648</ele>
        <time>2012-07-20T10:23:59.000Z</time>
      </trkpt>
      <trkpt lat="47.64186" lon="6.17699">
        <ele>219.39999389648</ele>
        <time>2012-07-20T10:24:02.000Z</time>
      </trkpt>
      <trkpt lat="47.642" lon="6.17719">
        <ele>219.39999389648</ele>
        <time>2012-07-20T10:24:07.000Z</time>
      </trkpt>
      <trkpt lat="47.64221" lon="6.17744">
        <ele>219.39999389648</ele>
        <time>2012-07-20T10:24:14.000Z</time>
      </trkpt>
      <trkpt lat="47.64248" lon="6.17769">
        <ele>219.39999389648</ele>
        <time>2012-07-20T10:24:22.000Z</time>
      </trkpt>
      <trkpt lat="47.64277" lon="6.17789">
        <ele>219.39999389648</ele>
        <time>2012-07-20T10:24:29.000Z</time>
      </trkpt>
      <trkpt lat="47.64308" lon="6.17807">
        <ele>219.39999389648</ele>
        <time>2012-07-20T10:24:36.000Z</time>
      </trkpt>
      <trkpt lat="47.64336" lon="6.17826">
        <ele>219.39999389648</ele>
        <time>2012-07-20T10:24:43.000Z</time>
      </trkpt>
      <trkpt lat="47.6435" lon="6.17841">
        <ele>219.39999389648</ele>
        <time>2012-07-20T10:24:47.000Z</time>
      </trkpt>
      <trkpt lat="47.64357" lon="6.17852">
        <ele>219.39999389648</ele>
        <time>2012-07-20T10:24:49.000Z</time>
      </trkpt>
      <trkpt lat="47.64361" lon="6.17858">
        <ele>219.39999389648</ele>
        <time>2012-07-20T10:24:50.000Z</time>
      </trkpt>
      <trkpt lat="47.64377" lon="6.17878">
        <ele>219.39999389648</ele>
        <time>2012-07-20T10:24:54.000Z</time>
      </trkpt>
      <trkpt lat="47.64381" lon="6.17883">
        <ele>219.39999389648</ele>
        <time>2012-07-20T10:24:55.000Z</time>
      </trkpt>
      <trkpt lat="47.64392" lon="6.17898">
        <ele>219.39999389648</ele>
        <time>2012-07-20T10:24:59.000Z</time>
      </trkpt>
      <trkpt lat="47.64409" lon="6.17927">
        <ele>219.39999389648</ele>
        <time>2012-07-20T10:25:07.000Z</time>
      </trkpt>
      <trkpt lat="47.64426" lon="6.17957">
        <ele>219.39999389648</ele>
        <time>2012-07-20T10:25:14.000Z</time>
      </trkpt>
      <trkpt lat="47.64446" lon="6.17992">
        <ele>219.39999389648</ele>
        <time>2012-07-20T10:25:21.000Z</time>
      </trkpt>
      <trkpt lat="47.64466" lon="6.18027">
        <ele>219.39999389648</ele>
        <time>2012-07-20T10:25:27.000Z</time>
      </trkpt>
      <trkpt lat="47.64473" lon="6.18035">
        <ele>219.39999389648</ele>
        <time>2012-07-20T10:25:29.000Z</time>
      </trkpt>
      <trkpt lat="47.64485" lon="6.18044">
        <ele>219.39999389648</ele>
        <time>2012-07-20T10:25:32.000Z</time>
      </trkpt>
      <trkpt lat="47.64501" lon="6.18052">
        <ele>219.39999389648</ele>
        <time>2012-07-20T10:25:36.000Z</time>
      </trkpt>
      <trkpt lat="47.64507" lon="6.18059">
        <ele>219.39999389648</ele>
        <time>2012-07-20T10:25:38.000Z</time>
      </trkpt>
      <trkpt lat="47.64507" lon="6.18074">
        <ele>219.39999389648</ele>
        <time>2012-07-20T10:25:41.000Z</time>
      </trkpt>
      <trkpt lat="47.64506" lon="6.1808">
        <ele>219.39999389648</ele>
        <time>2012-07-20T10:25:42.000Z</time>
      </trkpt>
      <trkpt lat="47.64498" lon="6.18108">
        <ele>219.39999389648</ele>
        <time>2012-07-20T10:25:46.000Z</time>
      </trkpt>
      <trkpt lat="47.64494" lon="6.18135">
        <ele>219.39999389648</ele>
        <time>2012-07-20T10:25:49.000Z</time>
      </trkpt>
      <trkpt lat="47.64495" lon="6.18152">
        <ele>219.39999389648</ele>
        <time>2012-07-20T10:25:51.000Z</time>
      </trkpt>
      <trkpt lat="47.64499" lon="6.18167">
        <ele>219.39999389648</ele>
        <time>2012-07-20T10:25:53.000Z</time>
      </trkpt>
      <trkpt lat="47.645" lon="6.18175">
        <ele>219.39999389648</ele>
        <time>2012-07-20T10:25:54.000Z</time>
      </trkpt>
      <trkpt lat="47.64501" lon="6.18181">
        <ele>219.39999389648</ele>
        <time>2012-07-20T10:25:55.000Z</time>
      </trkpt>
      <trkpt lat="47.64496" lon="6.18204">
        <ele>219.39999389648</ele>
        <time>2012-07-20T10:25:59.000Z</time>
      </trkpt>
      <trkpt lat="47.64487" lon="6.18225">
        <ele>219.39999389648</ele>
        <time>2012-07-20T10:26:04.000Z</time>
      </trkpt>
      <trkpt lat="47.64469" lon="6.18257">
        <ele>219.39999389648</ele>
        <time>2012-07-20T10:26:10.000Z</time>
      </trkpt>
      <trkpt lat="47.6446" lon="6.1827">
        <ele>219.39999389648</ele>
        <time>2012-07-20T10:26:14.000Z</time>
      </trkpt>
      <trkpt lat="47.64448" lon="6.18285">
        <ele>219.39999389648</ele>
        <time>2012-07-20T10:26:19.000Z</time>
      </trkpt>
      <trkpt lat="47.64439" lon="6.18299">
        <ele>219.39999389648</ele>
        <time>2012-07-20T10:26:23.000Z</time>
      </trkpt>
      <trkpt lat="47.64439" lon="6.18303">
        <ele>219.39999389648</ele>
        <time>2012-07-20T10:26:24.000Z</time>
      </trkpt>
      <trkpt lat="47.6444" lon="6.18314">
        <ele>219.39999389648</ele>
        <time>2012-07-20T10:26:27.000Z</time>
      </trkpt>
      <trkpt lat="47.6444" lon="6.1832">
        <ele>219.39999389648</ele>
        <time>2012-07-20T10:26:29.000Z</time>
      </trkpt>
      <trkpt lat="47.6444" lon="6.18327">
        <ele>219.39999389648</ele>
        <time>2012-07-20T10:26:33.000Z</time>
      </trkpt>
    </trkseg>
  </trk>
</gpx>